<?xml version="1.0" encoding="UTF-8" standalone="yes"?>
<gpx
 xmlns="http://www.topografix.com/GPX/1/1"
 creator="OziExplorer Version 3956f - http://www.oziexplorer.com"
 version="1.1"
 xmlns:xsi="http://www.w3.org/2001/XMLSchema-instance"
 xsi:schemaLocation="http://www.topografix.com/GPX/1/1 http://www.topografix.com/GPX/1/1/gpx.xsd">
<metadata>
 <time>2023-05-10T13:58:23Z</time>
 <bounds minlat="32.505820" minlon="35.333210" maxlat="32.552400" maxlon="35.415430"/>
</metadata>
<wpt lat="32.5520073" lon="35.3335856">
 <time>2023-05-10T13:45:14.294Z</time>
 <name>1-StFin</name>
 <sym>Bike Trail</sym>
</wpt>
<wpt lat="32.5472251" lon="35.3369116">
 <time>2023-05-10T13:45:23.402Z</time>
 <name>2-Vlevo</name>
 <sym>Flag, Red</sym>
</wpt>
<wpt lat="32.5351416" lon="35.3755515">
 <time>2023-05-10T13:45:39.433Z</time>
 <name>3-Tatspit</name>
 <sym>Flag, Red</sym>
</wpt>
<wpt lat="32.5101761" lon="35.4083763">
 <time>2023-05-10T13:45:54.964Z</time>
 <name>4-Stoliki</name>
 <sym>Flag, Red</sym>
</wpt>
<wpt lat="32.5089201" lon="35.3991656">
 <time>2023-05-10T13:46:24.695Z</time>
 <name>5-Singl</name>
 <sym>Flag, Red</sym>
</wpt>
<wpt lat="32.5167640" lon="35.3780352">
 <time>2023-05-10T13:55:33.845Z</time>
 <name>6-VarJip1</name>
 <sym>Flag, Red</sym>
</wpt>
<wpt lat="32.5197622" lon="35.3733896">
 <time>2023-05-10T13:56:02.502Z</time>
 <name>7-VarJip2</name>
 <sym>Flag, Red</sym>
</wpt>
<wpt lat="32.5253532" lon="35.3640663">
 <time>2023-05-10T13:56:34.089Z</time>
 <name>8-VarJip3</name>
 <sym>Flag, Red</sym>
</wpt>
<wpt lat="32.5216301" lon="35.3425013">
 <time>2023-05-10T13:57:26.555Z</time>
 <name>9-VarJip4</name>
 <sym>Flag, Red</sym>
</wpt>
<trk>
 <name>Jip+Sin_Gilboa_41km.1030m</name>
 <desc>Jip+Sin_Gilboa_41km.1030m</desc>
<trkseg>
<trkpt lat="32.5519900" lon="35.3336500">
<ele>71.300003</ele>
<time>2023-05-10T16:58:23.691Z</time>
</trkpt>
<trkpt lat="32.5519800" lon="35.3338000">
<ele>71.949997</ele>
<time>2023-05-10T16:58:23.691Z</time>
</trkpt>
<trkpt lat="32.5520200" lon="35.3339000">
<ele>71.419998</ele>
<time>2023-05-10T16:58:23.691Z</time>
</trkpt>
<trkpt lat="32.5522100" lon="35.3337700">
<ele>67.250000</ele>
<time>2023-05-10T16:58:23.691Z</time>
</trkpt>
<trkpt lat="32.5522500" lon="35.3337900">
<ele>66.769997</ele>
<time>2023-05-10T16:58:23.691Z</time>
</trkpt>
<trkpt lat="32.5523100" lon="35.3338000">
<ele>66.250000</ele>
<time>2023-05-10T16:58:23.691Z</time>
</trkpt>
<trkpt lat="32.5523500" lon="35.3337800">
<ele>65.980003</ele>
<time>2023-05-10T16:58:23.691Z</time>
</trkpt>
<trkpt lat="32.5523800" lon="35.3337400">
<ele>65.900002</ele>
<time>2023-05-10T16:58:23.691Z</time>
</trkpt>
<trkpt lat="32.5524000" lon="35.3336400">
<ele>66.229996</ele>
<time>2023-05-10T16:58:23.691Z</time>
</trkpt>
<trkpt lat="32.5523600" lon="35.3335600">
<ele>66.690002</ele>
<time>2023-05-10T16:58:23.691Z</time>
</trkpt>
<trkpt lat="32.5522900" lon="35.3335200">
<ele>66.919998</ele>
<time>2023-05-10T16:58:23.691Z</time>
</trkpt>
<trkpt lat="32.5522800" lon="35.3332700">
<ele>67.619995</ele>
<time>2023-05-10T16:58:23.691Z</time>
</trkpt>
<trkpt lat="32.5509700" lon="35.3332100">
<ele>76.639999</ele>
<time>2023-05-10T16:58:23.691Z</time>
</trkpt>
<trkpt lat="32.5500600" lon="35.3333800">
<ele>70.930000</ele>
<time>2023-05-10T16:58:23.691Z</time>
</trkpt>
<trkpt lat="32.5492800" lon="35.3337900">
<ele>69.580002</ele>
<time>2023-05-10T16:58:23.691Z</time>
</trkpt>
<trkpt lat="32.5489500" lon="35.3340600">
<ele>66.580002</ele>
<time>2023-05-10T16:58:23.691Z</time>
</trkpt>
<trkpt lat="32.5487200" lon="35.3342900">
<ele>65.699997</ele>
<time>2023-05-10T16:58:23.691Z</time>
</trkpt>
<trkpt lat="32.5486200" lon="35.3343800">
<ele>64.019997</ele>
<time>2023-05-10T16:58:23.692Z</time>
</trkpt>
<trkpt lat="32.5481000" lon="35.3351200">
<ele>61.590000</ele>
<time>2023-05-10T16:58:23.692Z</time>
</trkpt>
<trkpt lat="32.5472100" lon="35.3368900">
<ele>55.459999</ele>
<time>2023-05-10T16:58:23.692Z</time>
</trkpt>
<trkpt lat="32.5474100" lon="35.3375800">
<ele>49.810001</ele>
<time>2023-05-10T16:58:23.692Z</time>
</trkpt>
<trkpt lat="32.5474200" lon="35.3376200">
<ele>49.689999</ele>
<time>2023-05-10T16:58:23.692Z</time>
</trkpt>
<trkpt lat="32.5475300" lon="35.3378300">
<ele>48.939999</ele>
<time>2023-05-10T16:58:23.692Z</time>
</trkpt>
<trkpt lat="32.5482700" lon="35.3383400">
<ele>52.270000</ele>
<time>2023-05-10T16:58:23.692Z</time>
</trkpt>
<trkpt lat="32.5484400" lon="35.3384300">
<ele>54.110001</ele>
<time>2023-05-10T16:58:23.692Z</time>
</trkpt>
<trkpt lat="32.5486000" lon="35.3386200">
<ele>56.630001</ele>
<time>2023-05-10T16:58:23.692Z</time>
</trkpt>
<trkpt lat="32.5487300" lon="35.3387300">
<ele>56.020000</ele>
<time>2023-05-10T16:58:23.692Z</time>
</trkpt>
<trkpt lat="32.5488700" lon="35.3388100">
<ele>56.810001</ele>
<time>2023-05-10T16:58:23.692Z</time>
</trkpt>
<trkpt lat="32.5488400" lon="35.3390200">
<ele>53.880001</ele>
<time>2023-05-10T16:58:23.692Z</time>
</trkpt>
<trkpt lat="32.5488700" lon="35.3392100">
<ele>50.570004</ele>
<time>2023-05-10T16:58:23.692Z</time>
</trkpt>
<trkpt lat="32.5489500" lon="35.3395100">
<ele>46.700001</ele>
<time>2023-05-10T16:58:23.692Z</time>
</trkpt>
<trkpt lat="32.5490900" lon="35.3396200">
<ele>45.029999</ele>
<time>2023-05-10T16:58:23.692Z</time>
</trkpt>
<trkpt lat="32.5492500" lon="35.3396200">
<ele>45.400002</ele>
<time>2023-05-10T16:58:23.692Z</time>
</trkpt>
<trkpt lat="32.5493000" lon="35.3396600">
<ele>45.150002</ele>
<time>2023-05-10T16:58:23.692Z</time>
</trkpt>
<trkpt lat="32.5494100" lon="35.3397100">
<ele>45.010002</ele>
<time>2023-05-10T16:58:23.692Z</time>
</trkpt>
<trkpt lat="32.5494200" lon="35.3397800">
<ele>43.889999</ele>
<time>2023-05-10T16:58:23.692Z</time>
</trkpt>
<trkpt lat="32.5493900" lon="35.3398500">
<ele>42.590000</ele>
<time>2023-05-10T16:58:23.693Z</time>
</trkpt>
<trkpt lat="32.5491900" lon="35.3400700">
<ele>38.489998</ele>
<time>2023-05-10T16:58:23.693Z</time>
</trkpt>
<trkpt lat="32.5490200" lon="35.3402900">
<ele>34.329998</ele>
<time>2023-05-10T16:58:23.693Z</time>
</trkpt>
<trkpt lat="32.5489100" lon="35.3403800">
<ele>32.799999</ele>
<time>2023-05-10T16:58:23.693Z</time>
</trkpt>
<trkpt lat="32.5486900" lon="35.3404600">
<ele>29.879999</ele>
<time>2023-05-10T16:58:23.693Z</time>
</trkpt>
<trkpt lat="32.5484500" lon="35.3403900">
<ele>32.340000</ele>
<time>2023-05-10T16:58:23.693Z</time>
</trkpt>
<trkpt lat="32.5483800" lon="35.3403800">
<ele>32.950001</ele>
<time>2023-05-10T16:58:23.693Z</time>
</trkpt>
<trkpt lat="32.5482500" lon="35.3404300">
<ele>32.299999</ele>
<time>2023-05-10T16:58:23.693Z</time>
</trkpt>
<trkpt lat="32.5482700" lon="35.3404200">
<ele>32.520000</ele>
<time>2023-05-10T16:58:23.693Z</time>
</trkpt>
<trkpt lat="32.5483000" lon="35.3404700">
<ele>32.380001</ele>
<time>2023-05-10T16:58:23.693Z</time>
</trkpt>
<trkpt lat="32.5483100" lon="35.3405300">
<ele>32.020000</ele>
<time>2023-05-10T16:58:23.693Z</time>
</trkpt>
<trkpt lat="32.5484500" lon="35.3405700">
<ele>30.020000</ele>
<time>2023-05-10T16:58:23.693Z</time>
</trkpt>
<trkpt lat="32.5486800" lon="35.3406600">
<ele>28.720001</ele>
<time>2023-05-10T16:58:23.693Z</time>
</trkpt>
<trkpt lat="32.5487900" lon="35.3406700">
<ele>29.140001</ele>
<time>2023-05-10T16:58:23.693Z</time>
</trkpt>
<trkpt lat="32.5488400" lon="35.3406600">
<ele>29.219999</ele>
<time>2023-05-10T16:58:23.693Z</time>
</trkpt>
<trkpt lat="32.5490600" lon="35.3406900">
<ele>30.120001</ele>
<time>2023-05-10T16:58:23.693Z</time>
</trkpt>
<trkpt lat="32.5493300" lon="35.3406500">
<ele>31.259998</ele>
<time>2023-05-10T16:58:23.693Z</time>
</trkpt>
<trkpt lat="32.5495200" lon="35.3406600">
<ele>33.180000</ele>
<time>2023-05-10T16:58:23.693Z</time>
</trkpt>
<trkpt lat="32.5496000" lon="35.3406800">
<ele>34.750000</ele>
<time>2023-05-10T16:58:23.693Z</time>
</trkpt>
<trkpt lat="32.5497600" lon="35.3406700">
<ele>37.410000</ele>
<time>2023-05-10T16:58:23.693Z</time>
</trkpt>
<trkpt lat="32.5498200" lon="35.3406900">
<ele>38.060001</ele>
<time>2023-05-10T16:58:23.694Z</time>
</trkpt>
<trkpt lat="32.5498800" lon="35.3407300">
<ele>38.700001</ele>
<time>2023-05-10T16:58:23.694Z</time>
</trkpt>
<trkpt lat="32.5501400" lon="35.3407800">
<ele>38.489998</ele>
<time>2023-05-10T16:58:23.694Z</time>
</trkpt>
<trkpt lat="32.5503900" lon="35.3408600">
<ele>34.810001</ele>
<time>2023-05-10T16:58:23.694Z</time>
</trkpt>
<trkpt lat="32.5506300" lon="35.3409900">
<ele>33.040001</ele>
<time>2023-05-10T16:58:23.694Z</time>
</trkpt>
<trkpt lat="32.5508100" lon="35.3411300">
<ele>33.209999</ele>
<time>2023-05-10T16:58:23.694Z</time>
</trkpt>
<trkpt lat="32.5513100" lon="35.3416900">
<ele>38.489998</ele>
<time>2023-05-10T16:58:23.694Z</time>
</trkpt>
<trkpt lat="32.5513500" lon="35.3417800">
<ele>38.049999</ele>
<time>2023-05-10T16:58:23.694Z</time>
</trkpt>
<trkpt lat="32.5513700" lon="35.3420500">
<ele>37.889999</ele>
<time>2023-05-10T16:58:23.694Z</time>
</trkpt>
<trkpt lat="32.5513600" lon="35.3422400">
<ele>36.860001</ele>
<time>2023-05-10T16:58:23.694Z</time>
</trkpt>
<trkpt lat="32.5513200" lon="35.3424300">
<ele>37.110001</ele>
<time>2023-05-10T16:58:23.694Z</time>
</trkpt>
<trkpt lat="32.5513200" lon="35.3425700">
<ele>36.100002</ele>
<time>2023-05-10T16:58:23.694Z</time>
</trkpt>
<trkpt lat="32.5513700" lon="35.3428800">
<ele>34.350002</ele>
<time>2023-05-10T16:58:23.694Z</time>
</trkpt>
<trkpt lat="32.5513700" lon="35.3429600">
<ele>35.709999</ele>
<time>2023-05-10T16:58:23.694Z</time>
</trkpt>
<trkpt lat="32.5514200" lon="35.3431000">
<ele>36.139999</ele>
<time>2023-05-10T16:58:23.694Z</time>
</trkpt>
<trkpt lat="32.5513800" lon="35.3432600">
<ele>37.250000</ele>
<time>2023-05-10T16:58:23.694Z</time>
</trkpt>
<trkpt lat="32.5513600" lon="35.3435200">
<ele>37.730000</ele>
<time>2023-05-10T16:58:23.694Z</time>
</trkpt>
<trkpt lat="32.5513700" lon="35.3437200">
<ele>37.020000</ele>
<time>2023-05-10T16:58:23.694Z</time>
</trkpt>
<trkpt lat="32.5512600" lon="35.3441000">
<ele>35.279999</ele>
<time>2023-05-10T16:58:23.694Z</time>
</trkpt>
<trkpt lat="32.5511100" lon="35.3444300">
<ele>32.399998</ele>
<time>2023-05-10T16:58:23.695Z</time>
</trkpt>
<trkpt lat="32.5509800" lon="35.3447900">
<ele>31.500000</ele>
<time>2023-05-10T16:58:23.695Z</time>
</trkpt>
<trkpt lat="32.5508400" lon="35.3456200">
<ele>29.510000</ele>
<time>2023-05-10T16:58:23.695Z</time>
</trkpt>
<trkpt lat="32.5508200" lon="35.3459600">
<ele>35.310001</ele>
<time>2023-05-10T16:58:23.695Z</time>
</trkpt>
<trkpt lat="32.5509000" lon="35.3465200">
<ele>35.150002</ele>
<time>2023-05-10T16:58:23.695Z</time>
</trkpt>
<trkpt lat="32.5509100" lon="35.3470400">
<ele>34.079998</ele>
<time>2023-05-10T16:58:23.695Z</time>
</trkpt>
<trkpt lat="32.5509400" lon="35.3472400">
<ele>32.279999</ele>
<time>2023-05-10T16:58:23.695Z</time>
</trkpt>
<trkpt lat="32.5509300" lon="35.3474300">
<ele>33.980000</ele>
<time>2023-05-10T16:58:23.695Z</time>
</trkpt>
<trkpt lat="32.5508600" lon="35.3477400">
<ele>38.529999</ele>
<time>2023-05-10T16:58:23.695Z</time>
</trkpt>
<trkpt lat="32.5508200" lon="35.3481300">
<ele>34.470001</ele>
<time>2023-05-10T16:58:23.695Z</time>
</trkpt>
<trkpt lat="32.5507400" lon="35.3482900">
<ele>34.130001</ele>
<time>2023-05-10T16:58:23.695Z</time>
</trkpt>
<trkpt lat="32.5506900" lon="35.3484900">
<ele>33.189999</ele>
<time>2023-05-10T16:58:23.695Z</time>
</trkpt>
<trkpt lat="32.5505300" lon="35.3491100">
<ele>29.619999</ele>
<time>2023-05-10T16:58:23.695Z</time>
</trkpt>
<trkpt lat="32.5504300" lon="35.3494200">
<ele>31.770000</ele>
<time>2023-05-10T16:58:23.695Z</time>
</trkpt>
<trkpt lat="32.5503300" lon="35.3496100">
<ele>34.459999</ele>
<time>2023-05-10T16:58:23.695Z</time>
</trkpt>
<trkpt lat="32.5502200" lon="35.3498800">
<ele>34.520000</ele>
<time>2023-05-10T16:58:23.695Z</time>
</trkpt>
<trkpt lat="32.5501100" lon="35.3500600">
<ele>40.020000</ele>
<time>2023-05-10T16:58:23.695Z</time>
</trkpt>
<trkpt lat="32.5499600" lon="35.3504400">
<ele>44.969997</ele>
<time>2023-05-10T16:58:23.695Z</time>
</trkpt>
<trkpt lat="32.5498800" lon="35.3507300">
<ele>42.450001</ele>
<time>2023-05-10T16:58:23.695Z</time>
</trkpt>
<trkpt lat="32.5498100" lon="35.3508500">
<ele>44.910000</ele>
<time>2023-05-10T16:58:23.695Z</time>
</trkpt>
<trkpt lat="32.5497700" lon="35.3509800">
<ele>44.049999</ele>
<time>2023-05-10T16:58:23.696Z</time>
</trkpt>
<trkpt lat="32.5495400" lon="35.3514000">
<ele>50.510002</ele>
<time>2023-05-10T16:58:23.696Z</time>
</trkpt>
<trkpt lat="32.5494500" lon="35.3516100">
<ele>53.000004</ele>
<time>2023-05-10T16:58:23.696Z</time>
</trkpt>
<trkpt lat="32.5494300" lon="35.3517800">
<ele>48.139999</ele>
<time>2023-05-10T16:58:23.696Z</time>
</trkpt>
<trkpt lat="32.5493400" lon="35.3520800">
<ele>44.880001</ele>
<time>2023-05-10T16:58:23.696Z</time>
</trkpt>
<trkpt lat="32.5493100" lon="35.3522100">
<ele>43.910000</ele>
<time>2023-05-10T16:58:23.696Z</time>
</trkpt>
<trkpt lat="32.5492600" lon="35.3523500">
<ele>44.309998</ele>
<time>2023-05-10T16:58:23.696Z</time>
</trkpt>
<trkpt lat="32.5491500" lon="35.3529700">
<ele>41.970001</ele>
<time>2023-05-10T16:58:23.696Z</time>
</trkpt>
<trkpt lat="32.5491000" lon="35.3534400">
<ele>43.410000</ele>
<time>2023-05-10T16:58:23.696Z</time>
</trkpt>
<trkpt lat="32.5490500" lon="35.3536700">
<ele>43.239998</ele>
<time>2023-05-10T16:58:23.696Z</time>
</trkpt>
<trkpt lat="32.5489800" lon="35.3539000">
<ele>36.860001</ele>
<time>2023-05-10T16:58:23.696Z</time>
</trkpt>
<trkpt lat="32.5487400" lon="35.3543400">
<ele>37.349998</ele>
<time>2023-05-10T16:58:23.696Z</time>
</trkpt>
<trkpt lat="32.5485900" lon="35.3545700">
<ele>35.549999</ele>
<time>2023-05-10T16:58:23.696Z</time>
</trkpt>
<trkpt lat="32.5484000" lon="35.3547800">
<ele>38.000000</ele>
<time>2023-05-10T16:58:23.696Z</time>
</trkpt>
<trkpt lat="32.5481500" lon="35.3552000">
<ele>39.279999</ele>
<time>2023-05-10T16:58:23.696Z</time>
</trkpt>
<trkpt lat="32.5479300" lon="35.3556900">
<ele>37.579998</ele>
<time>2023-05-10T16:58:23.696Z</time>
</trkpt>
<trkpt lat="32.5475500" lon="35.3563900">
<ele>32.869999</ele>
<time>2023-05-10T16:58:23.696Z</time>
</trkpt>
<trkpt lat="32.5474300" lon="35.3565900">
<ele>27.629999</ele>
<time>2023-05-10T16:58:23.696Z</time>
</trkpt>
<trkpt lat="32.5472200" lon="35.3568200">
<ele>31.779999</ele>
<time>2023-05-10T16:58:23.696Z</time>
</trkpt>
<trkpt lat="32.5470700" lon="35.3570900">
<ele>33.139999</ele>
<time>2023-05-10T16:58:23.697Z</time>
</trkpt>
<trkpt lat="32.5469600" lon="35.3573800">
<ele>30.490000</ele>
<time>2023-05-10T16:58:23.697Z</time>
</trkpt>
<trkpt lat="32.5467900" lon="35.3575800">
<ele>32.990002</ele>
<time>2023-05-10T16:58:23.697Z</time>
</trkpt>
<trkpt lat="32.5465900" lon="35.3577200">
<ele>35.910000</ele>
<time>2023-05-10T16:58:23.697Z</time>
</trkpt>
<trkpt lat="32.5462700" lon="35.3580300">
<ele>43.950001</ele>
<time>2023-05-10T16:58:23.697Z</time>
</trkpt>
<trkpt lat="32.5460300" lon="35.3583000">
<ele>47.930000</ele>
<time>2023-05-10T16:58:23.697Z</time>
</trkpt>
<trkpt lat="32.5458800" lon="35.3585500">
<ele>47.010002</ele>
<time>2023-05-10T16:58:23.697Z</time>
</trkpt>
<trkpt lat="32.5455000" lon="35.3589700">
<ele>55.920002</ele>
<time>2023-05-10T16:58:23.697Z</time>
</trkpt>
<trkpt lat="32.5453100" lon="35.3592900">
<ele>57.619999</ele>
<time>2023-05-10T16:58:23.697Z</time>
</trkpt>
<trkpt lat="32.5450700" lon="35.3595100">
<ele>59.330002</ele>
<time>2023-05-10T16:58:23.697Z</time>
</trkpt>
<trkpt lat="32.5448900" lon="35.3598700">
<ele>58.169998</ele>
<time>2023-05-10T16:58:23.697Z</time>
</trkpt>
<trkpt lat="32.5443400" lon="35.3605700">
<ele>64.189995</ele>
<time>2023-05-10T16:58:23.697Z</time>
</trkpt>
<trkpt lat="32.5442600" lon="35.3609100">
<ele>58.380001</ele>
<time>2023-05-10T16:58:23.697Z</time>
</trkpt>
<trkpt lat="32.5438600" lon="35.3617000">
<ele>55.360001</ele>
<time>2023-05-10T16:58:23.697Z</time>
</trkpt>
<trkpt lat="32.5434700" lon="35.3620700">
<ele>61.470001</ele>
<time>2023-05-10T16:58:23.697Z</time>
</trkpt>
<trkpt lat="32.5431800" lon="35.3624400">
<ele>64.949997</ele>
<time>2023-05-10T16:58:23.697Z</time>
</trkpt>
<trkpt lat="32.5427900" lon="35.3627500">
<ele>68.709999</ele>
<time>2023-05-10T16:58:23.697Z</time>
</trkpt>
<trkpt lat="32.5424200" lon="35.3629300">
<ele>75.540001</ele>
<time>2023-05-10T16:58:23.697Z</time>
</trkpt>
<trkpt lat="32.5420300" lon="35.3629700">
<ele>83.349998</ele>
<time>2023-05-10T16:58:23.697Z</time>
</trkpt>
<trkpt lat="32.5417400" lon="35.3629300">
<ele>91.410004</ele>
<time>2023-05-10T16:58:23.698Z</time>
</trkpt>
<trkpt lat="32.5411000" lon="35.3629400">
<ele>91.990005</ele>
<time>2023-05-10T16:58:23.698Z</time>
</trkpt>
<trkpt lat="32.5409300" lon="35.3628900">
<ele>91.799995</ele>
<time>2023-05-10T16:58:23.698Z</time>
</trkpt>
<trkpt lat="32.5405800" lon="35.3626900">
<ele>94.620003</ele>
<time>2023-05-10T16:58:23.698Z</time>
</trkpt>
<trkpt lat="32.5402200" lon="35.3625400">
<ele>96.889999</ele>
<time>2023-05-10T16:58:23.698Z</time>
</trkpt>
<trkpt lat="32.5397000" lon="35.3624400">
<ele>99.920006</ele>
<time>2023-05-10T16:58:23.698Z</time>
</trkpt>
<trkpt lat="32.5394000" lon="35.3624700">
<ele>92.519997</ele>
<time>2023-05-10T16:58:23.698Z</time>
</trkpt>
<trkpt lat="32.5393000" lon="35.3624200">
<ele>89.850006</ele>
<time>2023-05-10T16:58:23.698Z</time>
</trkpt>
<trkpt lat="32.5393000" lon="35.3624200">
<ele>89.850006</ele>
<time>2023-05-10T16:58:23.698Z</time>
</trkpt>
<trkpt lat="32.5389500" lon="35.3622600">
<ele>89.369995</ele>
<time>2023-05-10T16:58:23.698Z</time>
</trkpt>
<trkpt lat="32.5384400" lon="35.3620900">
<ele>91.980003</ele>
<time>2023-05-10T16:58:23.698Z</time>
</trkpt>
<trkpt lat="32.5381700" lon="35.3619500">
<ele>97.669998</ele>
<time>2023-05-10T16:58:23.698Z</time>
</trkpt>
<trkpt lat="32.5379000" lon="35.3618800">
<ele>99.930000</ele>
<time>2023-05-10T16:58:23.698Z</time>
</trkpt>
<trkpt lat="32.5377500" lon="35.3618900">
<ele>99.559998</ele>
<time>2023-05-10T16:58:23.698Z</time>
</trkpt>
<trkpt lat="32.5374700" lon="35.3619600">
<ele>97.050003</ele>
<time>2023-05-10T16:58:23.698Z</time>
</trkpt>
<trkpt lat="32.5372700" lon="35.3620700">
<ele>97.299995</ele>
<time>2023-05-10T16:58:23.698Z</time>
</trkpt>
<trkpt lat="32.5371500" lon="35.3622100">
<ele>96.389992</ele>
<time>2023-05-10T16:58:23.698Z</time>
</trkpt>
<trkpt lat="32.5370200" lon="35.3626500">
<ele>96.250008</ele>
<time>2023-05-10T16:58:23.698Z</time>
</trkpt>
<trkpt lat="32.5368000" lon="35.3629900">
<ele>100.489998</ele>
<time>2023-05-10T16:58:23.698Z</time>
</trkpt>
<trkpt lat="32.5367200" lon="35.3633200">
<ele>104.139999</ele>
<time>2023-05-10T16:58:23.698Z</time>
</trkpt>
<trkpt lat="32.5366600" lon="35.3634100">
<ele>105.570000</ele>
<time>2023-05-10T16:58:23.698Z</time>
</trkpt>
<trkpt lat="32.5367500" lon="35.3633800">
<ele>104.289993</ele>
<time>2023-05-10T16:58:23.699Z</time>
</trkpt>
<trkpt lat="32.5370500" lon="35.3631100">
<ele>98.019997</ele>
<time>2023-05-10T16:58:23.699Z</time>
</trkpt>
<trkpt lat="32.5373200" lon="35.3629800">
<ele>94.459999</ele>
<time>2023-05-10T16:58:23.699Z</time>
</trkpt>
<trkpt lat="32.5379000" lon="35.3631100">
<ele>88.650002</ele>
<time>2023-05-10T16:58:23.699Z</time>
</trkpt>
<trkpt lat="32.5380900" lon="35.3632500">
<ele>87.079994</ele>
<time>2023-05-10T16:58:23.699Z</time>
</trkpt>
<trkpt lat="32.5381200" lon="35.3633700">
<ele>88.129997</ele>
<time>2023-05-10T16:58:23.699Z</time>
</trkpt>
<trkpt lat="32.5381000" lon="35.3634800">
<ele>87.389999</ele>
<time>2023-05-10T16:58:23.699Z</time>
</trkpt>
<trkpt lat="32.5378100" lon="35.3637900">
<ele>96.110001</ele>
<time>2023-05-10T16:58:23.699Z</time>
</trkpt>
<trkpt lat="32.5374800" lon="35.3640300">
<ele>102.739998</ele>
<time>2023-05-10T16:58:23.699Z</time>
</trkpt>
<trkpt lat="32.5373400" lon="35.3642100">
<ele>109.380005</ele>
<time>2023-05-10T16:58:23.699Z</time>
</trkpt>
<trkpt lat="32.5372200" lon="35.3645700">
<ele>115.600006</ele>
<time>2023-05-10T16:58:23.699Z</time>
</trkpt>
<trkpt lat="32.5372300" lon="35.3648100">
<ele>114.910004</ele>
<time>2023-05-10T16:58:23.699Z</time>
</trkpt>
<trkpt lat="32.5373100" lon="35.3650100">
<ele>112.560005</ele>
<time>2023-05-10T16:58:23.699Z</time>
</trkpt>
<trkpt lat="32.5376300" lon="35.3656100">
<ele>102.190002</ele>
<time>2023-05-10T16:58:23.699Z</time>
</trkpt>
<trkpt lat="32.5377900" lon="35.3658400">
<ele>98.959999</ele>
<time>2023-05-10T16:58:23.699Z</time>
</trkpt>
<trkpt lat="32.5378900" lon="35.3658900">
<ele>98.760002</ele>
<time>2023-05-10T16:58:23.699Z</time>
</trkpt>
<trkpt lat="32.5382400" lon="35.3658400">
<ele>95.090004</ele>
<time>2023-05-10T16:58:23.699Z</time>
</trkpt>
<trkpt lat="32.5386600" lon="35.3659600">
<ele>92.729996</ele>
<time>2023-05-10T16:58:23.699Z</time>
</trkpt>
<trkpt lat="32.5387900" lon="35.3660500">
<ele>92.630005</ele>
<time>2023-05-10T16:58:23.699Z</time>
</trkpt>
<trkpt lat="32.5388100" lon="35.3661500">
<ele>93.709999</ele>
<time>2023-05-10T16:58:23.699Z</time>
</trkpt>
<trkpt lat="32.5388700" lon="35.3662200">
<ele>93.530006</ele>
<time>2023-05-10T16:58:23.699Z</time>
</trkpt>
<trkpt lat="32.5389700" lon="35.3662700">
<ele>91.649994</ele>
<time>2023-05-10T16:58:23.700Z</time>
</trkpt>
<trkpt lat="32.5391900" lon="35.3662800">
<ele>86.990005</ele>
<time>2023-05-10T16:58:23.700Z</time>
</trkpt>
<trkpt lat="32.5394300" lon="35.3663400">
<ele>86.370003</ele>
<time>2023-05-10T16:58:23.700Z</time>
</trkpt>
<trkpt lat="32.5399100" lon="35.3665500">
<ele>91.649994</ele>
<time>2023-05-10T16:58:23.700Z</time>
</trkpt>
<trkpt lat="32.5399800" lon="35.3665900">
<ele>93.000000</ele>
<time>2023-05-10T16:58:23.700Z</time>
</trkpt>
<trkpt lat="32.5403100" lon="35.3666500">
<ele>104.230003</ele>
<time>2023-05-10T16:58:23.700Z</time>
</trkpt>
<trkpt lat="32.5404500" lon="35.3666600">
<ele>105.290001</ele>
<time>2023-05-10T16:58:23.700Z</time>
</trkpt>
<trkpt lat="32.5405100" lon="35.3666400">
<ele>104.559998</ele>
<time>2023-05-10T16:58:23.700Z</time>
</trkpt>
<trkpt lat="32.5405800" lon="35.3666300">
<ele>104.510002</ele>
<time>2023-05-10T16:58:23.700Z</time>
</trkpt>
<trkpt lat="32.5406600" lon="35.3665400">
<ele>101.510002</ele>
<time>2023-05-10T16:58:23.700Z</time>
</trkpt>
<trkpt lat="32.5408200" lon="35.3664600">
<ele>101.070000</ele>
<time>2023-05-10T16:58:23.700Z</time>
</trkpt>
<trkpt lat="32.5408700" lon="35.3664000">
<ele>99.980003</ele>
<time>2023-05-10T16:58:23.700Z</time>
</trkpt>
<trkpt lat="32.5412100" lon="35.3663100">
<ele>102.960007</ele>
<time>2023-05-10T16:58:23.700Z</time>
</trkpt>
<trkpt lat="32.5414000" lon="35.3662300">
<ele>105.560005</ele>
<time>2023-05-10T16:58:23.700Z</time>
</trkpt>
<trkpt lat="32.5417300" lon="35.3661800">
<ele>108.729996</ele>
<time>2023-05-10T16:58:23.700Z</time>
</trkpt>
<trkpt lat="32.5420200" lon="35.3661700">
<ele>112.300003</ele>
<time>2023-05-10T16:58:23.700Z</time>
</trkpt>
<trkpt lat="32.5421200" lon="35.3661900">
<ele>113.810005</ele>
<time>2023-05-10T16:58:23.700Z</time>
</trkpt>
<trkpt lat="32.5421900" lon="35.3662500">
<ele>115.040001</ele>
<time>2023-05-10T16:58:23.700Z</time>
</trkpt>
<trkpt lat="32.5422500" lon="35.3663200">
<ele>116.129997</ele>
<time>2023-05-10T16:58:23.700Z</time>
</trkpt>
<trkpt lat="32.5424600" lon="35.3667400">
<ele>119.339996</ele>
<time>2023-05-10T16:58:23.700Z</time>
</trkpt>
<trkpt lat="32.5424700" lon="35.3669900">
<ele>117.779999</ele>
<time>2023-05-10T16:58:23.701Z</time>
</trkpt>
<trkpt lat="32.5423500" lon="35.3672000">
<ele>117.809998</ele>
<time>2023-05-10T16:58:23.701Z</time>
</trkpt>
<trkpt lat="32.5421700" lon="35.3674200">
<ele>118.840004</ele>
<time>2023-05-10T16:58:23.701Z</time>
</trkpt>
<trkpt lat="32.5421100" lon="35.3675400">
<ele>117.430008</ele>
<time>2023-05-10T16:58:23.701Z</time>
</trkpt>
<trkpt lat="32.5420700" lon="35.3675900">
<ele>116.029999</ele>
<time>2023-05-10T16:58:23.701Z</time>
</trkpt>
<trkpt lat="32.5420500" lon="35.3676500">
<ele>114.169998</ele>
<time>2023-05-10T16:58:23.701Z</time>
</trkpt>
<trkpt lat="32.5419200" lon="35.3677600">
<ele>112.059998</ele>
<time>2023-05-10T16:58:23.701Z</time>
</trkpt>
<trkpt lat="32.5418000" lon="35.3679200">
<ele>110.020004</ele>
<time>2023-05-10T16:58:23.701Z</time>
</trkpt>
<trkpt lat="32.5415300" lon="35.3681100">
<ele>112.349998</ele>
<time>2023-05-10T16:58:23.701Z</time>
</trkpt>
<trkpt lat="32.5414000" lon="35.3681300">
<ele>116.039993</ele>
<time>2023-05-10T16:58:23.701Z</time>
</trkpt>
<trkpt lat="32.5413500" lon="35.3681100">
<ele>117.050003</ele>
<time>2023-05-10T16:58:23.701Z</time>
</trkpt>
<trkpt lat="32.5412400" lon="35.3680100">
<ele>119.089996</ele>
<time>2023-05-10T16:58:23.701Z</time>
</trkpt>
<trkpt lat="32.5411500" lon="35.3678300">
<ele>120.830002</ele>
<time>2023-05-10T16:58:23.701Z</time>
</trkpt>
<trkpt lat="32.5410400" lon="35.3675100">
<ele>121.189995</ele>
<time>2023-05-10T16:58:23.701Z</time>
</trkpt>
<trkpt lat="32.5409500" lon="35.3673900">
<ele>120.089996</ele>
<time>2023-05-10T16:58:23.701Z</time>
</trkpt>
<trkpt lat="32.5409400" lon="35.3673000">
<ele>119.880005</ele>
<time>2023-05-10T16:58:23.701Z</time>
</trkpt>
<trkpt lat="32.5408800" lon="35.3672600">
<ele>119.360001</ele>
<time>2023-05-10T16:58:23.701Z</time>
</trkpt>
<trkpt lat="32.5407200" lon="35.3673500">
<ele>119.190002</ele>
<time>2023-05-10T16:58:23.701Z</time>
</trkpt>
<trkpt lat="32.5402000" lon="35.3675700">
<ele>121.679993</ele>
<time>2023-05-10T16:58:23.701Z</time>
</trkpt>
<trkpt lat="32.5401000" lon="35.3675800">
<ele>121.620003</ele>
<time>2023-05-10T16:58:23.702Z</time>
</trkpt>
<trkpt lat="32.5397600" lon="35.3674900">
<ele>123.530006</ele>
<time>2023-05-10T16:58:23.702Z</time>
</trkpt>
<trkpt lat="32.5395700" lon="35.3675500">
<ele>127.650002</ele>
<time>2023-05-10T16:58:23.702Z</time>
</trkpt>
<trkpt lat="32.5394200" lon="35.3676400">
<ele>132.449997</ele>
<time>2023-05-10T16:58:23.702Z</time>
</trkpt>
<trkpt lat="32.5392900" lon="35.3677500">
<ele>135.539993</ele>
<time>2023-05-10T16:58:23.702Z</time>
</trkpt>
<trkpt lat="32.5392500" lon="35.3679000">
<ele>139.860001</ele>
<time>2023-05-10T16:58:23.702Z</time>
</trkpt>
<trkpt lat="32.5392700" lon="35.3680700">
<ele>144.509995</ele>
<time>2023-05-10T16:58:23.702Z</time>
</trkpt>
<trkpt lat="32.5393400" lon="35.3682700">
<ele>146.940002</ele>
<time>2023-05-10T16:58:23.702Z</time>
</trkpt>
<trkpt lat="32.5393700" lon="35.3683900">
<ele>148.009995</ele>
<time>2023-05-10T16:58:23.702Z</time>
</trkpt>
<trkpt lat="32.5394300" lon="35.3685200">
<ele>148.309998</ele>
<time>2023-05-10T16:58:23.702Z</time>
</trkpt>
<trkpt lat="32.5393500" lon="35.3694400">
<ele>151.730011</ele>
<time>2023-05-10T16:58:23.702Z</time>
</trkpt>
<trkpt lat="32.5386500" lon="35.3696900">
<ele>176.850006</ele>
<time>2023-05-10T16:58:23.702Z</time>
</trkpt>
<trkpt lat="32.5385400" lon="35.3699500">
<ele>182.000000</ele>
<time>2023-05-10T16:58:23.702Z</time>
</trkpt>
<trkpt lat="32.5381100" lon="35.3697800">
<ele>186.729996</ele>
<time>2023-05-10T16:58:23.702Z</time>
</trkpt>
<trkpt lat="32.5378000" lon="35.3696900">
<ele>189.580002</ele>
<time>2023-05-10T16:58:23.702Z</time>
</trkpt>
<trkpt lat="32.5367900" lon="35.3696900">
<ele>191.179993</ele>
<time>2023-05-10T16:58:23.702Z</time>
</trkpt>
<trkpt lat="32.5367200" lon="35.3697300">
<ele>191.779999</ele>
<time>2023-05-10T16:58:23.702Z</time>
</trkpt>
<trkpt lat="32.5361200" lon="35.3698100">
<ele>190.599991</ele>
<time>2023-05-10T16:58:23.702Z</time>
</trkpt>
<trkpt lat="32.5355200" lon="35.3699600">
<ele>192.350006</ele>
<time>2023-05-10T16:58:23.702Z</time>
</trkpt>
<trkpt lat="32.5354100" lon="35.3700100">
<ele>193.229996</ele>
<time>2023-05-10T16:58:23.703Z</time>
</trkpt>
<trkpt lat="32.5354100" lon="35.3700100">
<ele>193.229996</ele>
<time>2023-05-10T16:58:23.703Z</time>
</trkpt>
<trkpt lat="32.5350000" lon="35.3701700">
<ele>190.669998</ele>
<time>2023-05-10T16:58:23.703Z</time>
</trkpt>
<trkpt lat="32.5339200" lon="35.3705300">
<ele>172.809998</ele>
<time>2023-05-10T16:58:23.703Z</time>
</trkpt>
<trkpt lat="32.5338500" lon="35.3705300">
<ele>171.679993</ele>
<time>2023-05-10T16:58:23.703Z</time>
</trkpt>
<trkpt lat="32.5337000" lon="35.3704500">
<ele>167.459991</ele>
<time>2023-05-10T16:58:23.703Z</time>
</trkpt>
<trkpt lat="32.5336400" lon="35.3704800">
<ele>167.099991</ele>
<time>2023-05-10T16:58:23.703Z</time>
</trkpt>
<trkpt lat="32.5334700" lon="35.3706500">
<ele>171.899994</ele>
<time>2023-05-10T16:58:23.703Z</time>
</trkpt>
<trkpt lat="32.5333100" lon="35.3707700">
<ele>175.860001</ele>
<time>2023-05-10T16:58:23.703Z</time>
</trkpt>
<trkpt lat="32.5331900" lon="35.3708200">
<ele>177.819992</ele>
<time>2023-05-10T16:58:23.703Z</time>
</trkpt>
<trkpt lat="32.5330100" lon="35.3708100">
<ele>179.400009</ele>
<time>2023-05-10T16:58:23.703Z</time>
</trkpt>
<trkpt lat="32.5327200" lon="35.3707500">
<ele>184.239990</ele>
<time>2023-05-10T16:58:23.703Z</time>
</trkpt>
<trkpt lat="32.5325300" lon="35.3706600">
<ele>190.599991</ele>
<time>2023-05-10T16:58:23.703Z</time>
</trkpt>
<trkpt lat="32.5323200" lon="35.3707000">
<ele>196.240005</ele>
<time>2023-05-10T16:58:23.703Z</time>
</trkpt>
<trkpt lat="32.5321900" lon="35.3707600">
<ele>198.740005</ele>
<time>2023-05-10T16:58:23.703Z</time>
</trkpt>
<trkpt lat="32.5319900" lon="35.3708900">
<ele>198.270004</ele>
<time>2023-05-10T16:58:23.703Z</time>
</trkpt>
<trkpt lat="32.5319000" lon="35.3710200">
<ele>198.510010</ele>
<time>2023-05-10T16:58:23.703Z</time>
</trkpt>
<trkpt lat="32.5318300" lon="35.3711600">
<ele>198.130005</ele>
<time>2023-05-10T16:58:23.703Z</time>
</trkpt>
<trkpt lat="32.5318000" lon="35.3712700">
<ele>197.639999</ele>
<time>2023-05-10T16:58:23.703Z</time>
</trkpt>
<trkpt lat="32.5317100" lon="35.3717500">
<ele>197.259995</ele>
<time>2023-05-10T16:58:23.703Z</time>
</trkpt>
<trkpt lat="32.5317100" lon="35.3717500">
<ele>197.259995</ele>
<time>2023-05-10T16:58:23.704Z</time>
</trkpt>
<trkpt lat="32.5317200" lon="35.3717500">
<ele>197.339996</ele>
<time>2023-05-10T16:58:23.704Z</time>
</trkpt>
<trkpt lat="32.5317100" lon="35.3717700">
<ele>197.489990</ele>
<time>2023-05-10T16:58:23.704Z</time>
</trkpt>
<trkpt lat="32.5316300" lon="35.3719500">
<ele>198.699997</ele>
<time>2023-05-10T16:58:23.704Z</time>
</trkpt>
<trkpt lat="32.5314900" lon="35.3721700">
<ele>200.639999</ele>
<time>2023-05-10T16:58:23.704Z</time>
</trkpt>
<trkpt lat="32.5311600" lon="35.3727500">
<ele>212.960007</ele>
<time>2023-05-10T16:58:23.704Z</time>
</trkpt>
<trkpt lat="32.5310200" lon="35.3728800">
<ele>214.360001</ele>
<time>2023-05-10T16:58:23.704Z</time>
</trkpt>
<trkpt lat="32.5309300" lon="35.3729100">
<ele>213.300003</ele>
<time>2023-05-10T16:58:23.704Z</time>
</trkpt>
<trkpt lat="32.5308500" lon="35.3729100">
<ele>211.750000</ele>
<time>2023-05-10T16:58:23.704Z</time>
</trkpt>
<trkpt lat="32.5307700" lon="35.3728500">
<ele>210.840012</ele>
<time>2023-05-10T16:58:23.704Z</time>
</trkpt>
<trkpt lat="32.5307000" lon="35.3727700">
<ele>209.929993</ele>
<time>2023-05-10T16:58:23.704Z</time>
</trkpt>
<trkpt lat="32.5304900" lon="35.3727700">
<ele>211.400009</ele>
<time>2023-05-10T16:58:23.704Z</time>
</trkpt>
<trkpt lat="32.5304500" lon="35.3729200">
<ele>213.550003</ele>
<time>2023-05-10T16:58:23.704Z</time>
</trkpt>
<trkpt lat="32.5305500" lon="35.3732600">
<ele>217.690002</ele>
<time>2023-05-10T16:58:23.704Z</time>
</trkpt>
<trkpt lat="32.5305400" lon="35.3734200">
<ele>220.869995</ele>
<time>2023-05-10T16:58:23.704Z</time>
</trkpt>
<trkpt lat="32.5305100" lon="35.3735100">
<ele>222.819992</ele>
<time>2023-05-10T16:58:23.704Z</time>
</trkpt>
<trkpt lat="32.5304100" lon="35.3736500">
<ele>225.220001</ele>
<time>2023-05-10T16:58:23.704Z</time>
</trkpt>
<trkpt lat="32.5304100" lon="35.3736500">
<ele>225.220001</ele>
<time>2023-05-10T16:58:23.704Z</time>
</trkpt>
<trkpt lat="32.5302800" lon="35.3738900">
<ele>227.979996</ele>
<time>2023-05-10T16:58:23.704Z</time>
</trkpt>
<trkpt lat="32.5302400" lon="35.3739400">
<ele>227.909988</ele>
<time>2023-05-10T16:58:23.705Z</time>
</trkpt>
<trkpt lat="32.5301700" lon="35.3739800">
<ele>227.869995</ele>
<time>2023-05-10T16:58:23.705Z</time>
</trkpt>
<trkpt lat="32.5300600" lon="35.3740100">
<ele>227.900009</ele>
<time>2023-05-10T16:58:23.705Z</time>
</trkpt>
<trkpt lat="32.5299900" lon="35.3739900">
<ele>227.629990</ele>
<time>2023-05-10T16:58:23.705Z</time>
</trkpt>
<trkpt lat="32.5298800" lon="35.3739000">
<ele>226.179993</ele>
<time>2023-05-10T16:58:23.705Z</time>
</trkpt>
<trkpt lat="32.5300300" lon="35.3746200">
<ele>230.729996</ele>
<time>2023-05-10T16:58:23.705Z</time>
</trkpt>
<trkpt lat="32.5300400" lon="35.3751500">
<ele>232.970001</ele>
<time>2023-05-10T16:58:23.705Z</time>
</trkpt>
<trkpt lat="32.5300500" lon="35.3754500">
<ele>234.159988</ele>
<time>2023-05-10T16:58:23.705Z</time>
</trkpt>
<trkpt lat="32.5300900" lon="35.3756400">
<ele>234.979996</ele>
<time>2023-05-10T16:58:23.705Z</time>
</trkpt>
<trkpt lat="32.5301600" lon="35.3758200">
<ele>235.030014</ele>
<time>2023-05-10T16:58:23.705Z</time>
</trkpt>
<trkpt lat="32.5303100" lon="35.3759400">
<ele>235.509995</ele>
<time>2023-05-10T16:58:23.705Z</time>
</trkpt>
<trkpt lat="32.5304600" lon="35.3759800">
<ele>234.779999</ele>
<time>2023-05-10T16:58:23.705Z</time>
</trkpt>
<trkpt lat="32.5306300" lon="35.3759400">
<ele>234.199997</ele>
<time>2023-05-10T16:58:23.705Z</time>
</trkpt>
<trkpt lat="32.5308100" lon="35.3758600">
<ele>235.699997</ele>
<time>2023-05-10T16:58:23.705Z</time>
</trkpt>
<trkpt lat="32.5311900" lon="35.3756400">
<ele>237.610001</ele>
<time>2023-05-10T16:58:23.705Z</time>
</trkpt>
<trkpt lat="32.5313700" lon="35.3755400">
<ele>239.569992</ele>
<time>2023-05-10T16:58:23.705Z</time>
</trkpt>
<trkpt lat="32.5317800" lon="35.3753000">
<ele>243.529984</ele>
<time>2023-05-10T16:58:23.705Z</time>
</trkpt>
<trkpt lat="32.5319600" lon="35.3752700">
<ele>245.470001</ele>
<time>2023-05-10T16:58:23.705Z</time>
</trkpt>
<trkpt lat="32.5321500" lon="35.3753400">
<ele>251.380005</ele>
<time>2023-05-10T16:58:23.705Z</time>
</trkpt>
<trkpt lat="32.5324700" lon="35.3757100">
<ele>257.290009</ele>
<time>2023-05-10T16:58:23.706Z</time>
</trkpt>
<trkpt lat="32.5326900" lon="35.3758300">
<ele>258.000000</ele>
<time>2023-05-10T16:58:23.706Z</time>
</trkpt>
<trkpt lat="32.5329500" lon="35.3758700">
<ele>255.910004</ele>
<time>2023-05-10T16:58:23.706Z</time>
</trkpt>
<trkpt lat="32.5333800" lon="35.3756800">
<ele>255.440002</ele>
<time>2023-05-10T16:58:23.706Z</time>
</trkpt>
<trkpt lat="32.5341600" lon="35.3750400">
<ele>271.070007</ele>
<time>2023-05-10T16:58:23.706Z</time>
</trkpt>
<trkpt lat="32.5344300" lon="35.3748400">
<ele>268.410004</ele>
<time>2023-05-10T16:58:23.706Z</time>
</trkpt>
<trkpt lat="32.5356400" lon="35.3742400">
<ele>280.600006</ele>
<time>2023-05-10T16:58:23.706Z</time>
</trkpt>
<trkpt lat="32.5357600" lon="35.3742400">
<ele>282.119995</ele>
<time>2023-05-10T16:58:23.706Z</time>
</trkpt>
<trkpt lat="32.5358500" lon="35.3742800">
<ele>283.910004</ele>
<time>2023-05-10T16:58:23.706Z</time>
</trkpt>
<trkpt lat="32.5359700" lon="35.3744200">
<ele>287.660004</ele>
<time>2023-05-10T16:58:23.706Z</time>
</trkpt>
<trkpt lat="32.5359600" lon="35.3746000">
<ele>288.739990</ele>
<time>2023-05-10T16:58:23.706Z</time>
</trkpt>
<trkpt lat="32.5359300" lon="35.3747400">
<ele>289.220001</ele>
<time>2023-05-10T16:58:23.706Z</time>
</trkpt>
<trkpt lat="32.5358700" lon="35.3749000">
<ele>288.240021</ele>
<time>2023-05-10T16:58:23.706Z</time>
</trkpt>
<trkpt lat="32.5358300" lon="35.3749500">
<ele>288.149994</ele>
<time>2023-05-10T16:58:23.706Z</time>
</trkpt>
<trkpt lat="32.5357300" lon="35.3749800">
<ele>287.269989</ele>
<time>2023-05-10T16:58:23.706Z</time>
</trkpt>
<trkpt lat="32.5356600" lon="35.3749600">
<ele>286.720001</ele>
<time>2023-05-10T16:58:23.706Z</time>
</trkpt>
<trkpt lat="32.5355900" lon="35.3749800">
<ele>286.190002</ele>
<time>2023-05-10T16:58:23.706Z</time>
</trkpt>
<trkpt lat="32.5355100" lon="35.3750500">
<ele>285.549988</ele>
<time>2023-05-10T16:58:23.706Z</time>
</trkpt>
<trkpt lat="32.5354100" lon="35.3752500">
<ele>285.279999</ele>
<time>2023-05-10T16:58:23.706Z</time>
</trkpt>
<trkpt lat="32.5353900" lon="35.3753800">
<ele>285.869995</ele>
<time>2023-05-10T16:58:23.707Z</time>
</trkpt>
<trkpt lat="32.5353600" lon="35.3754300">
<ele>286.049988</ele>
<time>2023-05-10T16:58:23.707Z</time>
</trkpt>
<trkpt lat="32.5353200" lon="35.3754500">
<ele>286.029999</ele>
<time>2023-05-10T16:58:23.707Z</time>
</trkpt>
<trkpt lat="32.5352500" lon="35.3754500">
<ele>285.359985</ele>
<time>2023-05-10T16:58:23.707Z</time>
</trkpt>
<trkpt lat="32.5352100" lon="35.3754800">
<ele>284.959991</ele>
<time>2023-05-10T16:58:23.707Z</time>
</trkpt>
<trkpt lat="32.5351300" lon="35.3755600">
<ele>284.390015</ele>
<time>2023-05-10T16:58:23.707Z</time>
</trkpt>
<trkpt lat="32.5351300" lon="35.3755600">
<ele>284.390015</ele>
<time>2023-05-10T16:58:23.707Z</time>
</trkpt>
<trkpt lat="32.5351300" lon="35.3755600">
<ele>284.390015</ele>
<time>2023-05-10T16:58:23.707Z</time>
</trkpt>
<trkpt lat="32.5352100" lon="35.3754800">
<ele>284.959991</ele>
<time>2023-05-10T16:58:23.707Z</time>
</trkpt>
<trkpt lat="32.5352500" lon="35.3754500">
<ele>285.359985</ele>
<time>2023-05-10T16:58:23.707Z</time>
</trkpt>
<trkpt lat="32.5353200" lon="35.3754500">
<ele>286.029999</ele>
<time>2023-05-10T16:58:23.707Z</time>
</trkpt>
<trkpt lat="32.5353600" lon="35.3754300">
<ele>286.049988</ele>
<time>2023-05-10T16:58:23.707Z</time>
</trkpt>
<trkpt lat="32.5353900" lon="35.3753800">
<ele>285.869995</ele>
<time>2023-05-10T16:58:23.707Z</time>
</trkpt>
<trkpt lat="32.5354100" lon="35.3752500">
<ele>285.279999</ele>
<time>2023-05-10T16:58:23.707Z</time>
</trkpt>
<trkpt lat="32.5355100" lon="35.3750500">
<ele>285.549988</ele>
<time>2023-05-10T16:58:23.707Z</time>
</trkpt>
<trkpt lat="32.5355900" lon="35.3749800">
<ele>286.190002</ele>
<time>2023-05-10T16:58:23.707Z</time>
</trkpt>
<trkpt lat="32.5356600" lon="35.3749600">
<ele>286.720001</ele>
<time>2023-05-10T16:58:23.707Z</time>
</trkpt>
<trkpt lat="32.5357300" lon="35.3749800">
<ele>287.269989</ele>
<time>2023-05-10T16:58:23.707Z</time>
</trkpt>
<trkpt lat="32.5358300" lon="35.3749500">
<ele>288.149994</ele>
<time>2023-05-10T16:58:23.707Z</time>
</trkpt>
<trkpt lat="32.5358700" lon="35.3749000">
<ele>288.240021</ele>
<time>2023-05-10T16:58:23.707Z</time>
</trkpt>
<trkpt lat="32.5359300" lon="35.3747400">
<ele>289.220001</ele>
<time>2023-05-10T16:58:23.707Z</time>
</trkpt>
<trkpt lat="32.5358000" lon="35.3746700">
<ele>287.929993</ele>
<time>2023-05-10T16:58:23.707Z</time>
</trkpt>
<trkpt lat="32.5357100" lon="35.3745800">
<ele>285.460022</ele>
<time>2023-05-10T16:58:23.707Z</time>
</trkpt>
<trkpt lat="32.5355700" lon="35.3745300">
<ele>282.480011</ele>
<time>2023-05-10T16:58:23.708Z</time>
</trkpt>
<trkpt lat="32.5354500" lon="35.3745800">
<ele>281.059998</ele>
<time>2023-05-10T16:58:23.708Z</time>
</trkpt>
<trkpt lat="32.5352000" lon="35.3747700">
<ele>277.880005</ele>
<time>2023-05-10T16:58:23.708Z</time>
</trkpt>
<trkpt lat="32.5352000" lon="35.3747700">
<ele>277.880005</ele>
<time>2023-05-10T16:58:23.708Z</time>
</trkpt>
<trkpt lat="32.5352000" lon="35.3747700">
<ele>277.880005</ele>
<time>2023-05-10T16:58:23.708Z</time>
</trkpt>
<trkpt lat="32.5347500" lon="35.3751100">
<ele>273.649994</ele>
<time>2023-05-10T16:58:23.708Z</time>
</trkpt>
<trkpt lat="32.5343800" lon="35.3753700">
<ele>274.019989</ele>
<time>2023-05-10T16:58:23.708Z</time>
</trkpt>
<trkpt lat="32.5342500" lon="35.3754500">
<ele>274.350006</ele>
<time>2023-05-10T16:58:23.708Z</time>
</trkpt>
<trkpt lat="32.5344300" lon="35.3748400">
<ele>268.410004</ele>
<time>2023-05-10T16:58:23.708Z</time>
</trkpt>
<trkpt lat="32.5341600" lon="35.3750400">
<ele>271.070007</ele>
<time>2023-05-10T16:58:23.708Z</time>
</trkpt>
<trkpt lat="32.5333800" lon="35.3756800">
<ele>255.440002</ele>
<time>2023-05-10T16:58:23.708Z</time>
</trkpt>
<trkpt lat="32.5329500" lon="35.3758700">
<ele>255.910004</ele>
<time>2023-05-10T16:58:23.708Z</time>
</trkpt>
<trkpt lat="32.5326900" lon="35.3758300">
<ele>258.000000</ele>
<time>2023-05-10T16:58:23.708Z</time>
</trkpt>
<trkpt lat="32.5325900" lon="35.3757700">
<ele>257.850006</ele>
<time>2023-05-10T16:58:23.708Z</time>
</trkpt>
<trkpt lat="32.5324700" lon="35.3757100">
<ele>257.290009</ele>
<time>2023-05-10T16:58:23.708Z</time>
</trkpt>
<trkpt lat="32.5321500" lon="35.3753400">
<ele>251.380005</ele>
<time>2023-05-10T16:58:23.708Z</time>
</trkpt>
<trkpt lat="32.5319600" lon="35.3752700">
<ele>245.470001</ele>
<time>2023-05-10T16:58:23.708Z</time>
</trkpt>
<trkpt lat="32.5317800" lon="35.3753000">
<ele>243.529984</ele>
<time>2023-05-10T16:58:23.708Z</time>
</trkpt>
<trkpt lat="32.5308100" lon="35.3758600">
<ele>235.699997</ele>
<time>2023-05-10T16:58:23.708Z</time>
</trkpt>
<trkpt lat="32.5306300" lon="35.3759400">
<ele>234.199997</ele>
<time>2023-05-10T16:58:23.708Z</time>
</trkpt>
<trkpt lat="32.5304600" lon="35.3759800">
<ele>234.779999</ele>
<time>2023-05-10T16:58:23.708Z</time>
</trkpt>
<trkpt lat="32.5303100" lon="35.3759400">
<ele>235.509995</ele>
<time>2023-05-10T16:58:23.708Z</time>
</trkpt>
<trkpt lat="32.5301600" lon="35.3758200">
<ele>235.030014</ele>
<time>2023-05-10T16:58:23.708Z</time>
</trkpt>
<trkpt lat="32.5300900" lon="35.3756400">
<ele>234.979996</ele>
<time>2023-05-10T16:58:23.708Z</time>
</trkpt>
<trkpt lat="32.5300500" lon="35.3754500">
<ele>234.159988</ele>
<time>2023-05-10T16:58:23.709Z</time>
</trkpt>
<trkpt lat="32.5300300" lon="35.3746200">
<ele>230.729996</ele>
<time>2023-05-10T16:58:23.709Z</time>
</trkpt>
<trkpt lat="32.5298800" lon="35.3739000">
<ele>226.179993</ele>
<time>2023-05-10T16:58:23.709Z</time>
</trkpt>
<trkpt lat="32.5298800" lon="35.3739000">
<ele>226.179993</ele>
<time>2023-05-10T16:58:23.709Z</time>
</trkpt>
<trkpt lat="32.5298800" lon="35.3739000">
<ele>226.179993</ele>
<time>2023-05-10T16:58:23.709Z</time>
</trkpt>
<trkpt lat="32.5297400" lon="35.3740300">
<ele>225.189987</ele>
<time>2023-05-10T16:58:23.709Z</time>
</trkpt>
<trkpt lat="32.5296500" lon="35.3741800">
<ele>225.549988</ele>
<time>2023-05-10T16:58:23.709Z</time>
</trkpt>
<trkpt lat="32.5294700" lon="35.3743700">
<ele>224.959991</ele>
<time>2023-05-10T16:58:23.709Z</time>
</trkpt>
<trkpt lat="32.5292100" lon="35.3745800">
<ele>224.169998</ele>
<time>2023-05-10T16:58:23.709Z</time>
</trkpt>
<trkpt lat="32.5290000" lon="35.3747300">
<ele>222.360016</ele>
<time>2023-05-10T16:58:23.709Z</time>
</trkpt>
<trkpt lat="32.5288200" lon="35.3748100">
<ele>220.390015</ele>
<time>2023-05-10T16:58:23.709Z</time>
</trkpt>
<trkpt lat="32.5283800" lon="35.3748900">
<ele>212.970001</ele>
<time>2023-05-10T16:58:23.709Z</time>
</trkpt>
<trkpt lat="32.5279300" lon="35.3750100">
<ele>206.949997</ele>
<time>2023-05-10T16:58:23.709Z</time>
</trkpt>
<trkpt lat="32.5277400" lon="35.3750800">
<ele>205.669998</ele>
<time>2023-05-10T16:58:23.709Z</time>
</trkpt>
<trkpt lat="32.5274600" lon="35.3752200">
<ele>203.190002</ele>
<time>2023-05-10T16:58:23.709Z</time>
</trkpt>
<trkpt lat="32.5272400" lon="35.3753400">
<ele>207.919998</ele>
<time>2023-05-10T16:58:23.709Z</time>
</trkpt>
<trkpt lat="32.5270800" lon="35.3754700">
<ele>207.789993</ele>
<time>2023-05-10T16:58:23.709Z</time>
</trkpt>
<trkpt lat="32.5270200" lon="35.3755400">
<ele>207.580002</ele>
<time>2023-05-10T16:58:23.709Z</time>
</trkpt>
<trkpt lat="32.5269400" lon="35.3757200">
<ele>208.040009</ele>
<time>2023-05-10T16:58:23.709Z</time>
</trkpt>
<trkpt lat="32.5267900" lon="35.3766700">
<ele>208.989990</ele>
<time>2023-05-10T16:58:23.709Z</time>
</trkpt>
<trkpt lat="32.5266700" lon="35.3775100">
<ele>206.809998</ele>
<time>2023-05-10T16:58:23.709Z</time>
</trkpt>
<trkpt lat="32.5266300" lon="35.3777200">
<ele>204.570007</ele>
<time>2023-05-10T16:58:23.709Z</time>
</trkpt>
<trkpt lat="32.5265100" lon="35.3780000">
<ele>202.979996</ele>
<time>2023-05-10T16:58:23.709Z</time>
</trkpt>
<trkpt lat="32.5261200" lon="35.3787700">
<ele>191.869995</ele>
<time>2023-05-10T16:58:23.709Z</time>
</trkpt>
<trkpt lat="32.5259600" lon="35.3790100">
<ele>190.789993</ele>
<time>2023-05-10T16:58:23.709Z</time>
</trkpt>
<trkpt lat="32.5258300" lon="35.3791300">
<ele>192.909988</ele>
<time>2023-05-10T16:58:23.710Z</time>
</trkpt>
<trkpt lat="32.5255700" lon="35.3795500">
<ele>199.070007</ele>
<time>2023-05-10T16:58:23.710Z</time>
</trkpt>
<trkpt lat="32.5252400" lon="35.3802900">
<ele>200.110001</ele>
<time>2023-05-10T16:58:23.710Z</time>
</trkpt>
<trkpt lat="32.5251100" lon="35.3809700">
<ele>202.380005</ele>
<time>2023-05-10T16:58:23.710Z</time>
</trkpt>
<trkpt lat="32.5250900" lon="35.3812000">
<ele>203.959991</ele>
<time>2023-05-10T16:58:23.710Z</time>
</trkpt>
<trkpt lat="32.5250000" lon="35.3816100">
<ele>206.589996</ele>
<time>2023-05-10T16:58:23.710Z</time>
</trkpt>
<trkpt lat="32.5246900" lon="35.3821000">
<ele>209.770004</ele>
<time>2023-05-10T16:58:23.710Z</time>
</trkpt>
<trkpt lat="32.5245700" lon="35.3825000">
<ele>207.549988</ele>
<time>2023-05-10T16:58:23.710Z</time>
</trkpt>
<trkpt lat="32.5244500" lon="35.3828100">
<ele>204.520004</ele>
<time>2023-05-10T16:58:23.710Z</time>
</trkpt>
<trkpt lat="32.5244000" lon="35.3830900">
<ele>200.829987</ele>
<time>2023-05-10T16:58:23.710Z</time>
</trkpt>
<trkpt lat="32.5242500" lon="35.3833200">
<ele>197.129990</ele>
<time>2023-05-10T16:58:23.710Z</time>
</trkpt>
<trkpt lat="32.5241100" lon="35.3836500">
<ele>197.220001</ele>
<time>2023-05-10T16:58:23.710Z</time>
</trkpt>
<trkpt lat="32.5238900" lon="35.3840500">
<ele>197.270004</ele>
<time>2023-05-10T16:58:23.710Z</time>
</trkpt>
<trkpt lat="32.5237600" lon="35.3843500">
<ele>194.290009</ele>
<time>2023-05-10T16:58:23.710Z</time>
</trkpt>
<trkpt lat="32.5236700" lon="35.3847000">
<ele>196.010010</ele>
<time>2023-05-10T16:58:23.710Z</time>
</trkpt>
<trkpt lat="32.5236700" lon="35.3847800">
<ele>196.789993</ele>
<time>2023-05-10T16:58:23.710Z</time>
</trkpt>
<trkpt lat="32.5236600" lon="35.3848800">
<ele>197.779999</ele>
<time>2023-05-10T16:58:23.710Z</time>
</trkpt>
<trkpt lat="32.5237000" lon="35.3850200">
<ele>199.150009</ele>
<time>2023-05-10T16:58:23.710Z</time>
</trkpt>
<trkpt lat="32.5241400" lon="35.3855300">
<ele>197.369995</ele>
<time>2023-05-10T16:58:23.710Z</time>
</trkpt>
<trkpt lat="32.5241900" lon="35.3856400">
<ele>197.830002</ele>
<time>2023-05-10T16:58:23.710Z</time>
</trkpt>
<trkpt lat="32.5246500" lon="35.3861800">
<ele>195.459991</ele>
<time>2023-05-10T16:58:23.710Z</time>
</trkpt>
<trkpt lat="32.5253100" lon="35.3868600">
<ele>190.769989</ele>
<time>2023-05-10T16:58:23.710Z</time>
</trkpt>
<trkpt lat="32.5256500" lon="35.3871500">
<ele>187.770004</ele>
<time>2023-05-10T16:58:23.710Z</time>
</trkpt>
<trkpt lat="32.5258900" lon="35.3871600">
<ele>184.199997</ele>
<time>2023-05-10T16:58:23.711Z</time>
</trkpt>
<trkpt lat="32.5263100" lon="35.3872700">
<ele>187.330002</ele>
<time>2023-05-10T16:58:23.711Z</time>
</trkpt>
<trkpt lat="32.5265600" lon="35.3873700">
<ele>187.340012</ele>
<time>2023-05-10T16:58:23.711Z</time>
</trkpt>
<trkpt lat="32.5267800" lon="35.3875100">
<ele>187.699997</ele>
<time>2023-05-10T16:58:23.711Z</time>
</trkpt>
<trkpt lat="32.5269100" lon="35.3876400">
<ele>188.639999</ele>
<time>2023-05-10T16:58:23.711Z</time>
</trkpt>
<trkpt lat="32.5269300" lon="35.3877400">
<ele>189.639999</ele>
<time>2023-05-10T16:58:23.711Z</time>
</trkpt>
<trkpt lat="32.5268900" lon="35.3879000">
<ele>190.009995</ele>
<time>2023-05-10T16:58:23.711Z</time>
</trkpt>
<trkpt lat="32.5267400" lon="35.3882900">
<ele>192.119995</ele>
<time>2023-05-10T16:58:23.711Z</time>
</trkpt>
<trkpt lat="32.5266100" lon="35.3886000">
<ele>196.190002</ele>
<time>2023-05-10T16:58:23.711Z</time>
</trkpt>
<trkpt lat="32.5262700" lon="35.3892500">
<ele>200.000000</ele>
<time>2023-05-10T16:58:23.711Z</time>
</trkpt>
<trkpt lat="32.5261500" lon="35.3895600">
<ele>200.669998</ele>
<time>2023-05-10T16:58:23.711Z</time>
</trkpt>
<trkpt lat="32.5258300" lon="35.3902300">
<ele>200.970001</ele>
<time>2023-05-10T16:58:23.711Z</time>
</trkpt>
<trkpt lat="32.5257300" lon="35.3903500">
<ele>196.869995</ele>
<time>2023-05-10T16:58:23.711Z</time>
</trkpt>
<trkpt lat="32.5254900" lon="35.3907200">
<ele>193.379990</ele>
<time>2023-05-10T16:58:23.711Z</time>
</trkpt>
<trkpt lat="32.5247700" lon="35.3918500">
<ele>198.470001</ele>
<time>2023-05-10T16:58:23.711Z</time>
</trkpt>
<trkpt lat="32.5244100" lon="35.3925300">
<ele>200.549988</ele>
<time>2023-05-10T16:58:23.711Z</time>
</trkpt>
<trkpt lat="32.5243200" lon="35.3926700">
<ele>202.450012</ele>
<time>2023-05-10T16:58:23.711Z</time>
</trkpt>
<trkpt lat="32.5241300" lon="35.3928700">
<ele>206.949997</ele>
<time>2023-05-10T16:58:23.711Z</time>
</trkpt>
<trkpt lat="32.5241000" lon="35.3929400">
<ele>207.070007</ele>
<time>2023-05-10T16:58:23.711Z</time>
</trkpt>
<trkpt lat="32.5240400" lon="35.3931000">
<ele>207.019989</ele>
<time>2023-05-10T16:58:23.711Z</time>
</trkpt>
<trkpt lat="32.5236600" lon="35.3946200">
<ele>202.569992</ele>
<time>2023-05-10T16:58:23.711Z</time>
</trkpt>
<trkpt lat="32.5234100" lon="35.3952300">
<ele>207.389999</ele>
<time>2023-05-10T16:58:23.711Z</time>
</trkpt>
<trkpt lat="32.5231300" lon="35.3962100">
<ele>203.930008</ele>
<time>2023-05-10T16:58:23.711Z</time>
</trkpt>
<trkpt lat="32.5230200" lon="35.3968300">
<ele>204.359985</ele>
<time>2023-05-10T16:58:23.711Z</time>
</trkpt>
<trkpt lat="32.5229600" lon="35.3975700">
<ele>205.539993</ele>
<time>2023-05-10T16:58:23.711Z</time>
</trkpt>
<trkpt lat="32.5229500" lon="35.3976400">
<ele>205.830002</ele>
<time>2023-05-10T16:58:23.712Z</time>
</trkpt>
<trkpt lat="32.5229500" lon="35.3981500">
<ele>204.930008</ele>
<time>2023-05-10T16:58:23.712Z</time>
</trkpt>
<trkpt lat="32.5229200" lon="35.3983200">
<ele>204.029999</ele>
<time>2023-05-10T16:58:23.712Z</time>
</trkpt>
<trkpt lat="32.5228500" lon="35.3984600">
<ele>202.300003</ele>
<time>2023-05-10T16:58:23.712Z</time>
</trkpt>
<trkpt lat="32.5223700" lon="35.3988500">
<ele>205.419998</ele>
<time>2023-05-10T16:58:23.712Z</time>
</trkpt>
<trkpt lat="32.5221100" lon="35.3989900">
<ele>204.059998</ele>
<time>2023-05-10T16:58:23.712Z</time>
</trkpt>
<trkpt lat="32.5219000" lon="35.3990500">
<ele>205.570007</ele>
<time>2023-05-10T16:58:23.712Z</time>
</trkpt>
<trkpt lat="32.5212600" lon="35.3989800">
<ele>215.180008</ele>
<time>2023-05-10T16:58:23.712Z</time>
</trkpt>
<trkpt lat="32.5208500" lon="35.3988400">
<ele>221.780014</ele>
<time>2023-05-10T16:58:23.712Z</time>
</trkpt>
<trkpt lat="32.5206700" lon="35.3988400">
<ele>225.630005</ele>
<time>2023-05-10T16:58:23.712Z</time>
</trkpt>
<trkpt lat="32.5197400" lon="35.3989900">
<ele>235.669998</ele>
<time>2023-05-10T16:58:23.712Z</time>
</trkpt>
<trkpt lat="32.5195200" lon="35.3991300">
<ele>234.839996</ele>
<time>2023-05-10T16:58:23.712Z</time>
</trkpt>
<trkpt lat="32.5192300" lon="35.3994600">
<ele>247.149994</ele>
<time>2023-05-10T16:58:23.712Z</time>
</trkpt>
<trkpt lat="32.5191000" lon="35.3995400">
<ele>252.300003</ele>
<time>2023-05-10T16:58:23.712Z</time>
</trkpt>
<trkpt lat="32.5189300" lon="35.3995400">
<ele>256.160004</ele>
<time>2023-05-10T16:58:23.712Z</time>
</trkpt>
<trkpt lat="32.5187900" lon="35.3996500">
<ele>260.690002</ele>
<time>2023-05-10T16:58:23.712Z</time>
</trkpt>
<trkpt lat="32.5183400" lon="35.4002900">
<ele>268.059998</ele>
<time>2023-05-10T16:58:23.712Z</time>
</trkpt>
<trkpt lat="32.5181100" lon="35.4012600">
<ele>283.389984</ele>
<time>2023-05-10T16:58:23.712Z</time>
</trkpt>
<trkpt lat="32.5177600" lon="35.4024100">
<ele>297.070007</ele>
<time>2023-05-10T16:58:23.712Z</time>
</trkpt>
<trkpt lat="32.5177900" lon="35.4027500">
<ele>296.860016</ele>
<time>2023-05-10T16:58:23.712Z</time>
</trkpt>
<trkpt lat="32.5177600" lon="35.4028700">
<ele>296.489990</ele>
<time>2023-05-10T16:58:23.712Z</time>
</trkpt>
<trkpt lat="32.5174800" lon="35.4031600">
<ele>298.279999</ele>
<time>2023-05-10T16:58:23.712Z</time>
</trkpt>
<trkpt lat="32.5174400" lon="35.4032300">
<ele>298.669983</ele>
<time>2023-05-10T16:58:23.713Z</time>
</trkpt>
<trkpt lat="32.5174300" lon="35.4033600">
<ele>298.239990</ele>
<time>2023-05-10T16:58:23.713Z</time>
</trkpt>
<trkpt lat="32.5175700" lon="35.4037200">
<ele>293.279999</ele>
<time>2023-05-10T16:58:23.713Z</time>
</trkpt>
<trkpt lat="32.5175800" lon="35.4038500">
<ele>291.519989</ele>
<time>2023-05-10T16:58:23.713Z</time>
</trkpt>
<trkpt lat="32.5175200" lon="35.4042300">
<ele>286.070007</ele>
<time>2023-05-10T16:58:23.713Z</time>
</trkpt>
<trkpt lat="32.5173900" lon="35.4046900">
<ele>284.049988</ele>
<time>2023-05-10T16:58:23.713Z</time>
</trkpt>
<trkpt lat="32.5174000" lon="35.4049100">
<ele>283.369995</ele>
<time>2023-05-10T16:58:23.713Z</time>
</trkpt>
<trkpt lat="32.5175400" lon="35.4052200">
<ele>280.839996</ele>
<time>2023-05-10T16:58:23.713Z</time>
</trkpt>
<trkpt lat="32.5181400" lon="35.4061500">
<ele>277.839996</ele>
<time>2023-05-10T16:58:23.713Z</time>
</trkpt>
<trkpt lat="32.5181900" lon="35.4064100">
<ele>278.440002</ele>
<time>2023-05-10T16:58:23.713Z</time>
</trkpt>
<trkpt lat="32.5181800" lon="35.4066100">
<ele>277.760010</ele>
<time>2023-05-10T16:58:23.713Z</time>
</trkpt>
<trkpt lat="32.5180000" lon="35.4069600">
<ele>273.220001</ele>
<time>2023-05-10T16:58:23.713Z</time>
</trkpt>
<trkpt lat="32.5173000" lon="35.4074500">
<ele>270.110016</ele>
<time>2023-05-10T16:58:23.713Z</time>
</trkpt>
<trkpt lat="32.5172100" lon="35.4076700">
<ele>274.829987</ele>
<time>2023-05-10T16:58:23.713Z</time>
</trkpt>
<trkpt lat="32.5172300" lon="35.4077700">
<ele>275.690002</ele>
<time>2023-05-10T16:58:23.713Z</time>
</trkpt>
<trkpt lat="32.5175000" lon="35.4081100">
<ele>269.199982</ele>
<time>2023-05-10T16:58:23.713Z</time>
</trkpt>
<trkpt lat="32.5176700" lon="35.4085300">
<ele>267.410004</ele>
<time>2023-05-10T16:58:23.713Z</time>
</trkpt>
<trkpt lat="32.5177000" lon="35.4088300">
<ele>267.019989</ele>
<time>2023-05-10T16:58:23.713Z</time>
</trkpt>
<trkpt lat="32.5176500" lon="35.4093000">
<ele>265.140015</ele>
<time>2023-05-10T16:58:23.713Z</time>
</trkpt>
<trkpt lat="32.5172200" lon="35.4099700">
<ele>263.240021</ele>
<time>2023-05-10T16:58:23.713Z</time>
</trkpt>
<trkpt lat="32.5170800" lon="35.4105100">
<ele>261.179993</ele>
<time>2023-05-10T16:58:23.713Z</time>
</trkpt>
<trkpt lat="32.5169300" lon="35.4107500">
<ele>261.929993</ele>
<time>2023-05-10T16:58:23.713Z</time>
</trkpt>
<trkpt lat="32.5167300" lon="35.4112500">
<ele>259.110016</ele>
<time>2023-05-10T16:58:23.713Z</time>
</trkpt>
<trkpt lat="32.5166300" lon="35.4113800">
<ele>258.329987</ele>
<time>2023-05-10T16:58:23.714Z</time>
</trkpt>
<trkpt lat="32.5163900" lon="35.4115700">
<ele>257.390015</ele>
<time>2023-05-10T16:58:23.714Z</time>
</trkpt>
<trkpt lat="32.5162800" lon="35.4119700">
<ele>251.199997</ele>
<time>2023-05-10T16:58:23.714Z</time>
</trkpt>
<trkpt lat="32.5161500" lon="35.4121700">
<ele>247.610001</ele>
<time>2023-05-10T16:58:23.714Z</time>
</trkpt>
<trkpt lat="32.5160700" lon="35.4123700">
<ele>242.240005</ele>
<time>2023-05-10T16:58:23.714Z</time>
</trkpt>
<trkpt lat="32.5159200" lon="35.4124800">
<ele>241.880005</ele>
<time>2023-05-10T16:58:23.714Z</time>
</trkpt>
<trkpt lat="32.5157400" lon="35.4125200">
<ele>244.129990</ele>
<time>2023-05-10T16:58:23.714Z</time>
</trkpt>
<trkpt lat="32.5154900" lon="35.4125100">
<ele>249.260010</ele>
<time>2023-05-10T16:58:23.714Z</time>
</trkpt>
<trkpt lat="32.5154500" lon="35.4125700">
<ele>249.309998</ele>
<time>2023-05-10T16:58:23.714Z</time>
</trkpt>
<trkpt lat="32.5153800" lon="35.4128200">
<ele>248.730011</ele>
<time>2023-05-10T16:58:23.714Z</time>
</trkpt>
<trkpt lat="32.5154000" lon="35.4131300">
<ele>247.559998</ele>
<time>2023-05-10T16:58:23.714Z</time>
</trkpt>
<trkpt lat="32.5154600" lon="35.4132400">
<ele>244.869995</ele>
<time>2023-05-10T16:58:23.714Z</time>
</trkpt>
<trkpt lat="32.5154900" lon="35.4135200">
<ele>243.330002</ele>
<time>2023-05-10T16:58:23.714Z</time>
</trkpt>
<trkpt lat="32.5154800" lon="35.4138500">
<ele>242.269989</ele>
<time>2023-05-10T16:58:23.714Z</time>
</trkpt>
<trkpt lat="32.5154300" lon="35.4141400">
<ele>241.000000</ele>
<time>2023-05-10T16:58:23.714Z</time>
</trkpt>
<trkpt lat="32.5153600" lon="35.4135600">
<ele>245.779999</ele>
<time>2023-05-10T16:58:23.714Z</time>
</trkpt>
<trkpt lat="32.5153100" lon="35.4134200">
<ele>247.639984</ele>
<time>2023-05-10T16:58:23.714Z</time>
</trkpt>
<trkpt lat="32.5152200" lon="35.4135900">
<ele>249.650009</ele>
<time>2023-05-10T16:58:23.714Z</time>
</trkpt>
<trkpt lat="32.5152300" lon="35.4138300">
<ele>247.489990</ele>
<time>2023-05-10T16:58:23.714Z</time>
</trkpt>
<trkpt lat="32.5150500" lon="35.4144000">
<ele>250.319992</ele>
<time>2023-05-10T16:58:23.714Z</time>
</trkpt>
<trkpt lat="32.5149000" lon="35.4146600">
<ele>253.780014</ele>
<time>2023-05-10T16:58:23.714Z</time>
</trkpt>
<trkpt lat="32.5144100" lon="35.4150700">
<ele>260.610016</ele>
<time>2023-05-10T16:58:23.714Z</time>
</trkpt>
<trkpt lat="32.5140900" lon="35.4154200">
<ele>262.220001</ele>
<time>2023-05-10T16:58:23.714Z</time>
</trkpt>
<trkpt lat="32.5140200" lon="35.4154300">
<ele>263.309998</ele>
<time>2023-05-10T16:58:23.714Z</time>
</trkpt>
<trkpt lat="32.5139900" lon="35.4153800">
<ele>264.040009</ele>
<time>2023-05-10T16:58:23.714Z</time>
</trkpt>
<trkpt lat="32.5140300" lon="35.4152900">
<ele>263.899994</ele>
<time>2023-05-10T16:58:23.715Z</time>
</trkpt>
<trkpt lat="32.5141400" lon="35.4152000">
<ele>263.500000</ele>
<time>2023-05-10T16:58:23.715Z</time>
</trkpt>
<trkpt lat="32.5146200" lon="35.4144900">
<ele>268.420013</ele>
<time>2023-05-10T16:58:23.715Z</time>
</trkpt>
<trkpt lat="32.5146800" lon="35.4142500">
<ele>268.550018</ele>
<time>2023-05-10T16:58:23.715Z</time>
</trkpt>
<trkpt lat="32.5147100" lon="35.4139100">
<ele>271.229980</ele>
<time>2023-05-10T16:58:23.715Z</time>
</trkpt>
<trkpt lat="32.5147300" lon="35.4134600">
<ele>274.220001</ele>
<time>2023-05-10T16:58:23.715Z</time>
</trkpt>
<trkpt lat="32.5146800" lon="35.4133900">
<ele>276.970001</ele>
<time>2023-05-10T16:58:23.715Z</time>
</trkpt>
<trkpt lat="32.5146100" lon="35.4134000">
<ele>279.510010</ele>
<time>2023-05-10T16:58:23.715Z</time>
</trkpt>
<trkpt lat="32.5145500" lon="35.4135300">
<ele>280.949982</ele>
<time>2023-05-10T16:58:23.715Z</time>
</trkpt>
<trkpt lat="32.5145100" lon="35.4138800">
<ele>280.230011</ele>
<time>2023-05-10T16:58:23.715Z</time>
</trkpt>
<trkpt lat="32.5140200" lon="35.4145400">
<ele>286.070007</ele>
<time>2023-05-10T16:58:23.715Z</time>
</trkpt>
<trkpt lat="32.5139300" lon="35.4145900">
<ele>286.399994</ele>
<time>2023-05-10T16:58:23.715Z</time>
</trkpt>
<trkpt lat="32.5139100" lon="35.4145300">
<ele>288.769989</ele>
<time>2023-05-10T16:58:23.715Z</time>
</trkpt>
<trkpt lat="32.5141100" lon="35.4138200">
<ele>297.449982</ele>
<time>2023-05-10T16:58:23.715Z</time>
</trkpt>
<trkpt lat="32.5141100" lon="35.4127600">
<ele>303.269989</ele>
<time>2023-05-10T16:58:23.715Z</time>
</trkpt>
<trkpt lat="32.5141400" lon="35.4124700">
<ele>305.420013</ele>
<time>2023-05-10T16:58:23.715Z</time>
</trkpt>
<trkpt lat="32.5142600" lon="35.4121000">
<ele>304.239990</ele>
<time>2023-05-10T16:58:23.715Z</time>
</trkpt>
<trkpt lat="32.5142400" lon="35.4119800">
<ele>305.070007</ele>
<time>2023-05-10T16:58:23.715Z</time>
</trkpt>
<trkpt lat="32.5141900" lon="35.4119200">
<ele>305.820007</ele>
<time>2023-05-10T16:58:23.715Z</time>
</trkpt>
<trkpt lat="32.5141300" lon="35.4119200">
<ele>307.119995</ele>
<time>2023-05-10T16:58:23.715Z</time>
</trkpt>
<trkpt lat="32.5140500" lon="35.4119900">
<ele>309.429993</ele>
<time>2023-05-10T16:58:23.716Z</time>
</trkpt>
<trkpt lat="32.5136800" lon="35.4132300">
<ele>315.380005</ele>
<time>2023-05-10T16:58:23.716Z</time>
</trkpt>
<trkpt lat="32.5134900" lon="35.4136900">
<ele>314.920013</ele>
<time>2023-05-10T16:58:23.716Z</time>
</trkpt>
<trkpt lat="32.5134000" lon="35.4137900">
<ele>315.780029</ele>
<time>2023-05-10T16:58:23.716Z</time>
</trkpt>
<trkpt lat="32.5133500" lon="35.4137800">
<ele>316.850006</ele>
<time>2023-05-10T16:58:23.716Z</time>
</trkpt>
<trkpt lat="32.5133500" lon="35.4136500">
<ele>318.229980</ele>
<time>2023-05-10T16:58:23.716Z</time>
</trkpt>
<trkpt lat="32.5134500" lon="35.4134600">
<ele>317.480011</ele>
<time>2023-05-10T16:58:23.716Z</time>
</trkpt>
<trkpt lat="32.5135100" lon="35.4121600">
<ele>331.830017</ele>
<time>2023-05-10T16:58:23.716Z</time>
</trkpt>
<trkpt lat="32.5136200" lon="35.4118300">
<ele>331.239990</ele>
<time>2023-05-10T16:58:23.716Z</time>
</trkpt>
<trkpt lat="32.5136000" lon="35.4117800">
<ele>332.649994</ele>
<time>2023-05-10T16:58:23.716Z</time>
</trkpt>
<trkpt lat="32.5135400" lon="35.4117800">
<ele>335.149994</ele>
<time>2023-05-10T16:58:23.716Z</time>
</trkpt>
<trkpt lat="32.5132800" lon="35.4124600">
<ele>335.440002</ele>
<time>2023-05-10T16:58:23.716Z</time>
</trkpt>
<trkpt lat="32.5128800" lon="35.4132400">
<ele>338.239990</ele>
<time>2023-05-10T16:58:23.716Z</time>
</trkpt>
<trkpt lat="32.5126900" lon="35.4134600">
<ele>341.779999</ele>
<time>2023-05-10T16:58:23.716Z</time>
</trkpt>
<trkpt lat="32.5126200" lon="35.4135000">
<ele>343.090027</ele>
<time>2023-05-10T16:58:23.716Z</time>
</trkpt>
<trkpt lat="32.5125800" lon="35.4134700">
<ele>343.909973</ele>
<time>2023-05-10T16:58:23.716Z</time>
</trkpt>
<trkpt lat="32.5125800" lon="35.4134200">
<ele>343.890015</ele>
<time>2023-05-10T16:58:23.716Z</time>
</trkpt>
<trkpt lat="32.5127200" lon="35.4132100">
<ele>342.539978</ele>
<time>2023-05-10T16:58:23.716Z</time>
</trkpt>
<trkpt lat="32.5128700" lon="35.4126800">
<ele>343.420013</ele>
<time>2023-05-10T16:58:23.716Z</time>
</trkpt>
<trkpt lat="32.5128700" lon="35.4121100">
<ele>351.500000</ele>
<time>2023-05-10T16:58:23.716Z</time>
</trkpt>
<trkpt lat="32.5131300" lon="35.4111800">
<ele>355.959991</ele>
<time>2023-05-10T16:58:23.716Z</time>
</trkpt>
<trkpt lat="32.5132800" lon="35.4103900">
<ele>370.879974</ele>
<time>2023-05-10T16:58:23.716Z</time>
</trkpt>
<trkpt lat="32.5132400" lon="35.4103200">
<ele>372.350006</ele>
<time>2023-05-10T16:58:23.716Z</time>
</trkpt>
<trkpt lat="32.5131200" lon="35.4104400">
<ele>371.519989</ele>
<time>2023-05-10T16:58:23.717Z</time>
</trkpt>
<trkpt lat="32.5130000" lon="35.4107500">
<ele>368.880005</ele>
<time>2023-05-10T16:58:23.717Z</time>
</trkpt>
<trkpt lat="32.5125200" lon="35.4115900">
<ele>378.529999</ele>
<time>2023-05-10T16:58:23.717Z</time>
</trkpt>
<trkpt lat="32.5123400" lon="35.4120800">
<ele>377.729980</ele>
<time>2023-05-10T16:58:23.717Z</time>
</trkpt>
<trkpt lat="32.5122900" lon="35.4121000">
<ele>379.160004</ele>
<time>2023-05-10T16:58:23.717Z</time>
</trkpt>
<trkpt lat="32.5122400" lon="35.4120700">
<ele>380.989990</ele>
<time>2023-05-10T16:58:23.717Z</time>
</trkpt>
<trkpt lat="32.5122500" lon="35.4118400">
<ele>382.529999</ele>
<time>2023-05-10T16:58:23.717Z</time>
</trkpt>
<trkpt lat="32.5127800" lon="35.4101400">
<ele>384.919983</ele>
<time>2023-05-10T16:58:23.717Z</time>
</trkpt>
<trkpt lat="32.5129300" lon="35.4093600">
<ele>398.789978</ele>
<time>2023-05-10T16:58:23.717Z</time>
</trkpt>
<trkpt lat="32.5130600" lon="35.4091100">
<ele>398.380005</ele>
<time>2023-05-10T16:58:23.717Z</time>
</trkpt>
<trkpt lat="32.5129400" lon="35.4090300">
<ele>401.050018</ele>
<time>2023-05-10T16:58:23.717Z</time>
</trkpt>
<trkpt lat="32.5120900" lon="35.4104700">
<ele>414.549988</ele>
<time>2023-05-10T16:58:23.717Z</time>
</trkpt>
<trkpt lat="32.5116900" lon="35.4113500">
<ele>415.300018</ele>
<time>2023-05-10T16:58:23.717Z</time>
</trkpt>
<trkpt lat="32.5116600" lon="35.4114000">
<ele>415.860016</ele>
<time>2023-05-10T16:58:23.717Z</time>
</trkpt>
<trkpt lat="32.5116000" lon="35.4114000">
<ele>417.440002</ele>
<time>2023-05-10T16:58:23.717Z</time>
</trkpt>
<trkpt lat="32.5115700" lon="35.4113500">
<ele>418.709991</ele>
<time>2023-05-10T16:58:23.717Z</time>
</trkpt>
<trkpt lat="32.5118600" lon="35.4105800">
<ele>418.940002</ele>
<time>2023-05-10T16:58:23.717Z</time>
</trkpt>
<trkpt lat="32.5119000" lon="35.4101100">
<ele>422.970001</ele>
<time>2023-05-10T16:58:23.717Z</time>
</trkpt>
<trkpt lat="32.5123400" lon="35.4081000">
<ele>437.630005</ele>
<time>2023-05-10T16:58:23.717Z</time>
</trkpt>
<trkpt lat="32.5123200" lon="35.4078400">
<ele>439.519989</ele>
<time>2023-05-10T16:58:23.717Z</time>
</trkpt>
<trkpt lat="32.5122300" lon="35.4075100">
<ele>442.769989</ele>
<time>2023-05-10T16:58:23.717Z</time>
</trkpt>
<trkpt lat="32.5119900" lon="35.4068800">
<ele>452.179993</ele>
<time>2023-05-10T16:58:23.718Z</time>
</trkpt>
<trkpt lat="32.5120300" lon="35.4064800">
<ele>449.859985</ele>
<time>2023-05-10T16:58:23.718Z</time>
</trkpt>
<trkpt lat="32.5119800" lon="35.4064600">
<ele>450.320007</ele>
<time>2023-05-10T16:58:23.718Z</time>
</trkpt>
<trkpt lat="32.5118800" lon="35.4068100">
<ele>453.119995</ele>
<time>2023-05-10T16:58:23.718Z</time>
</trkpt>
<trkpt lat="32.5117800" lon="35.4079200">
<ele>457.210022</ele>
<time>2023-05-10T16:58:23.718Z</time>
</trkpt>
<trkpt lat="32.5117000" lon="35.4082200">
<ele>459.830017</ele>
<time>2023-05-10T16:58:23.718Z</time>
</trkpt>
<trkpt lat="32.5114700" lon="35.4086800">
<ele>464.730011</ele>
<time>2023-05-10T16:58:23.718Z</time>
</trkpt>
<trkpt lat="32.5113000" lon="35.4085900">
<ele>471.949982</ele>
<time>2023-05-10T16:58:23.718Z</time>
</trkpt>
<trkpt lat="32.5111700" lon="35.4085900">
<ele>474.680023</ele>
<time>2023-05-10T16:58:23.718Z</time>
</trkpt>
<trkpt lat="32.5113000" lon="35.4085900">
<ele>471.949982</ele>
<time>2023-05-10T16:58:23.718Z</time>
</trkpt>
<trkpt lat="32.5108700" lon="35.4081000">
<ele>477.599976</ele>
<time>2023-05-10T16:58:23.718Z</time>
</trkpt>
<trkpt lat="32.5108300" lon="35.4080100">
<ele>478.000000</ele>
<time>2023-05-10T16:58:23.718Z</time>
</trkpt>
<trkpt lat="32.5107200" lon="35.4079500">
<ele>478.000000</ele>
<time>2023-05-10T16:58:23.718Z</time>
</trkpt>
<trkpt lat="32.5102300" lon="35.4085000">
<ele>484.440002</ele>
<time>2023-05-10T16:58:23.718Z</time>
</trkpt>
<trkpt lat="32.5102300" lon="35.4083200">
<ele>483.290009</ele>
<time>2023-05-10T16:58:23.718Z</time>
</trkpt>
<trkpt lat="32.5101400" lon="35.4083600">
<ele>484.140015</ele>
<time>2023-05-10T16:58:23.718Z</time>
</trkpt>
<trkpt lat="32.5102300" lon="35.4083200">
<ele>483.290009</ele>
<time>2023-05-10T16:58:23.718Z</time>
</trkpt>
<trkpt lat="32.5102300" lon="35.4085000">
<ele>484.440002</ele>
<time>2023-05-10T16:58:23.718Z</time>
</trkpt>
<trkpt lat="32.5107200" lon="35.4079500">
<ele>478.000000</ele>
<time>2023-05-10T16:58:23.718Z</time>
</trkpt>
<trkpt lat="32.5108300" lon="35.4080100">
<ele>478.000000</ele>
<time>2023-05-10T16:58:23.718Z</time>
</trkpt>
<trkpt lat="32.5108700" lon="35.4081000">
<ele>477.599976</ele>
<time>2023-05-10T16:58:23.718Z</time>
</trkpt>
<trkpt lat="32.5113000" lon="35.4085900">
<ele>471.949982</ele>
<time>2023-05-10T16:58:23.719Z</time>
</trkpt>
<trkpt lat="32.5114700" lon="35.4086800">
<ele>464.730011</ele>
<time>2023-05-10T16:58:23.719Z</time>
</trkpt>
<trkpt lat="32.5117000" lon="35.4082200">
<ele>459.830017</ele>
<time>2023-05-10T16:58:23.719Z</time>
</trkpt>
<trkpt lat="32.5117800" lon="35.4079200">
<ele>457.210022</ele>
<time>2023-05-10T16:58:23.719Z</time>
</trkpt>
<trkpt lat="32.5119000" lon="35.4067000">
<ele>453.020020</ele>
<time>2023-05-10T16:58:23.719Z</time>
</trkpt>
<trkpt lat="32.5119800" lon="35.4064600">
<ele>450.320007</ele>
<time>2023-05-10T16:58:23.719Z</time>
</trkpt>
<trkpt lat="32.5123500" lon="35.4056800">
<ele>438.630005</ele>
<time>2023-05-10T16:58:23.719Z</time>
</trkpt>
<trkpt lat="32.5126300" lon="35.4048600">
<ele>434.720001</ele>
<time>2023-05-10T16:58:23.719Z</time>
</trkpt>
<trkpt lat="32.5128100" lon="35.4040100">
<ele>433.790009</ele>
<time>2023-05-10T16:58:23.719Z</time>
</trkpt>
<trkpt lat="32.5130600" lon="35.4033500">
<ele>429.010010</ele>
<time>2023-05-10T16:58:23.719Z</time>
</trkpt>
<trkpt lat="32.5135300" lon="35.4025000">
<ele>424.170013</ele>
<time>2023-05-10T16:58:23.719Z</time>
</trkpt>
<trkpt lat="32.5137400" lon="35.4019700">
<ele>416.800018</ele>
<time>2023-05-10T16:58:23.719Z</time>
</trkpt>
<trkpt lat="32.5142300" lon="35.4003500">
<ele>413.340027</ele>
<time>2023-05-10T16:58:23.719Z</time>
</trkpt>
<trkpt lat="32.5143600" lon="35.3998300">
<ele>412.910004</ele>
<time>2023-05-10T16:58:23.719Z</time>
</trkpt>
<trkpt lat="32.5144900" lon="35.3975900">
<ele>404.890015</ele>
<time>2023-05-10T16:58:23.719Z</time>
</trkpt>
<trkpt lat="32.5141400" lon="35.3975600">
<ele>402.340027</ele>
<time>2023-05-10T16:58:23.719Z</time>
</trkpt>
<trkpt lat="32.5139800" lon="35.3976000">
<ele>402.049988</ele>
<time>2023-05-10T16:58:23.719Z</time>
</trkpt>
<trkpt lat="32.5139800" lon="35.3976000">
<ele>402.049988</ele>
<time>2023-05-10T16:58:23.719Z</time>
</trkpt>
<trkpt lat="32.5139800" lon="35.3976100">
<ele>402.120026</ele>
<time>2023-05-10T16:58:23.719Z</time>
</trkpt>
<trkpt lat="32.5139600" lon="35.3976100">
<ele>402.049988</ele>
<time>2023-05-10T16:58:23.720Z</time>
</trkpt>
<trkpt lat="32.5138300" lon="35.3977100">
<ele>402.670013</ele>
<time>2023-05-10T16:58:23.720Z</time>
</trkpt>
<trkpt lat="32.5136600" lon="35.3978700">
<ele>404.600006</ele>
<time>2023-05-10T16:58:23.720Z</time>
</trkpt>
<trkpt lat="32.5132900" lon="35.3981900">
<ele>404.250000</ele>
<time>2023-05-10T16:58:23.720Z</time>
</trkpt>
<trkpt lat="32.5129500" lon="35.3984300">
<ele>405.039978</ele>
<time>2023-05-10T16:58:23.720Z</time>
</trkpt>
<trkpt lat="32.5127400" lon="35.3986300">
<ele>407.190002</ele>
<time>2023-05-10T16:58:23.720Z</time>
</trkpt>
<trkpt lat="32.5123800" lon="35.3990600">
<ele>407.919983</ele>
<time>2023-05-10T16:58:23.720Z</time>
</trkpt>
<trkpt lat="32.5118400" lon="35.3996200">
<ele>405.039978</ele>
<time>2023-05-10T16:58:23.720Z</time>
</trkpt>
<trkpt lat="32.5108500" lon="35.4008400">
<ele>395.390015</ele>
<time>2023-05-10T16:58:23.720Z</time>
</trkpt>
<trkpt lat="32.5104400" lon="35.4013600">
<ele>391.240021</ele>
<time>2023-05-10T16:58:23.720Z</time>
</trkpt>
<trkpt lat="32.5098200" lon="35.4020600">
<ele>383.269989</ele>
<time>2023-05-10T16:58:23.720Z</time>
</trkpt>
<trkpt lat="32.5097800" lon="35.4019500">
<ele>382.439972</ele>
<time>2023-05-10T16:58:23.720Z</time>
</trkpt>
<trkpt lat="32.5097400" lon="35.4017900">
<ele>382.160004</ele>
<time>2023-05-10T16:58:23.720Z</time>
</trkpt>
<trkpt lat="32.5097200" lon="35.4016200">
<ele>381.980011</ele>
<time>2023-05-10T16:58:23.720Z</time>
</trkpt>
<trkpt lat="32.5097300" lon="35.4013700">
<ele>382.040009</ele>
<time>2023-05-10T16:58:23.720Z</time>
</trkpt>
<trkpt lat="32.5097700" lon="35.4010300">
<ele>381.400024</ele>
<time>2023-05-10T16:58:23.720Z</time>
</trkpt>
<trkpt lat="32.5097600" lon="35.4009700">
<ele>381.040009</ele>
<time>2023-05-10T16:58:23.720Z</time>
</trkpt>
<trkpt lat="32.5097300" lon="35.4008700">
<ele>380.240021</ele>
<time>2023-05-10T16:58:23.720Z</time>
</trkpt>
<trkpt lat="32.5094200" lon="35.4003500">
<ele>381.170013</ele>
<time>2023-05-10T16:58:23.720Z</time>
</trkpt>
<trkpt lat="32.5092300" lon="35.3998800">
<ele>377.920013</ele>
<time>2023-05-10T16:58:23.720Z</time>
</trkpt>
<trkpt lat="32.5090600" lon="35.3995600">
<ele>377.519989</ele>
<time>2023-05-10T16:58:23.720Z</time>
</trkpt>
<trkpt lat="32.5089100" lon="35.3991700">
<ele>378.079987</ele>
<time>2023-05-10T16:58:23.721Z</time>
</trkpt>
<trkpt lat="32.5088500" lon="35.3990700">
<ele>378.140015</ele>
<time>2023-05-10T16:58:23.721Z</time>
</trkpt>
<trkpt lat="32.5087900" lon="35.3990200">
<ele>377.630005</ele>
<time>2023-05-10T16:58:23.721Z</time>
</trkpt>
<trkpt lat="32.5087100" lon="35.3988800">
<ele>377.420013</ele>
<time>2023-05-10T16:58:23.721Z</time>
</trkpt>
<trkpt lat="32.5086200" lon="35.3988100">
<ele>376.380005</ele>
<time>2023-05-10T16:58:23.721Z</time>
</trkpt>
<trkpt lat="32.5085600" lon="35.3987800">
<ele>375.910004</ele>
<time>2023-05-10T16:58:23.721Z</time>
</trkpt>
<trkpt lat="32.5085000" lon="35.3987200">
<ele>375.649994</ele>
<time>2023-05-10T16:58:23.721Z</time>
</trkpt>
<trkpt lat="32.5084000" lon="35.3986900">
<ele>374.980011</ele>
<time>2023-05-10T16:58:23.721Z</time>
</trkpt>
<trkpt lat="32.5082800" lon="35.3986100">
<ele>374.029999</ele>
<time>2023-05-10T16:58:23.721Z</time>
</trkpt>
<trkpt lat="32.5080800" lon="35.3983700">
<ele>370.289978</ele>
<time>2023-05-10T16:58:23.721Z</time>
</trkpt>
<trkpt lat="32.5080500" lon="35.3983500">
<ele>369.959991</ele>
<time>2023-05-10T16:58:23.721Z</time>
</trkpt>
<trkpt lat="32.5080000" lon="35.3982900">
<ele>370.040009</ele>
<time>2023-05-10T16:58:23.721Z</time>
</trkpt>
<trkpt lat="32.5079300" lon="35.3982600">
<ele>369.769989</ele>
<time>2023-05-10T16:58:23.721Z</time>
</trkpt>
<trkpt lat="32.5078600" lon="35.3981700">
<ele>369.939972</ele>
<time>2023-05-10T16:58:23.721Z</time>
</trkpt>
<trkpt lat="32.5077800" lon="35.3980300">
<ele>369.839996</ele>
<time>2023-05-10T16:58:23.721Z</time>
</trkpt>
<trkpt lat="32.5077100" lon="35.3979300">
<ele>368.670013</ele>
<time>2023-05-10T16:58:23.721Z</time>
</trkpt>
<trkpt lat="32.5075500" lon="35.3977700">
<ele>368.839996</ele>
<time>2023-05-10T16:58:23.721Z</time>
</trkpt>
<trkpt lat="32.5074900" lon="35.3976600">
<ele>369.399994</ele>
<time>2023-05-10T16:58:23.721Z</time>
</trkpt>
<trkpt lat="32.5074600" lon="35.3975400">
<ele>369.839996</ele>
<time>2023-05-10T16:58:23.721Z</time>
</trkpt>
<trkpt lat="32.5074600" lon="35.3974100">
<ele>369.910004</ele>
<time>2023-05-10T16:58:23.721Z</time>
</trkpt>
<trkpt lat="32.5075200" lon="35.3970800">
<ele>369.519989</ele>
<time>2023-05-10T16:58:23.721Z</time>
</trkpt>
<trkpt lat="32.5075200" lon="35.3969900">
<ele>369.220001</ele>
<time>2023-05-10T16:58:23.721Z</time>
</trkpt>
<trkpt lat="32.5073200" lon="35.3966400">
<ele>366.410004</ele>
<time>2023-05-10T16:58:23.721Z</time>
</trkpt>
<trkpt lat="32.5072900" lon="35.3964300">
<ele>365.980011</ele>
<time>2023-05-10T16:58:23.722Z</time>
</trkpt>
<trkpt lat="32.5072900" lon="35.3962200">
<ele>365.070007</ele>
<time>2023-05-10T16:58:23.722Z</time>
</trkpt>
<trkpt lat="32.5072600" lon="35.3960500">
<ele>363.800018</ele>
<time>2023-05-10T16:58:23.722Z</time>
</trkpt>
<trkpt lat="32.5072700" lon="35.3959400">
<ele>363.009979</ele>
<time>2023-05-10T16:58:23.722Z</time>
</trkpt>
<trkpt lat="32.5073200" lon="35.3956400">
<ele>360.059998</ele>
<time>2023-05-10T16:58:23.722Z</time>
</trkpt>
<trkpt lat="32.5070800" lon="35.3957800">
<ele>359.069977</ele>
<time>2023-05-10T16:58:23.722Z</time>
</trkpt>
<trkpt lat="32.5069400" lon="35.3957700">
<ele>356.929993</ele>
<time>2023-05-10T16:58:23.722Z</time>
</trkpt>
<trkpt lat="32.5068200" lon="35.3956800">
<ele>355.250031</ele>
<time>2023-05-10T16:58:23.722Z</time>
</trkpt>
<trkpt lat="32.5067300" lon="35.3955500">
<ele>354.709991</ele>
<time>2023-05-10T16:58:23.722Z</time>
</trkpt>
<trkpt lat="32.5066200" lon="35.3954300">
<ele>354.399994</ele>
<time>2023-05-10T16:58:23.722Z</time>
</trkpt>
<trkpt lat="32.5065300" lon="35.3953700">
<ele>353.860016</ele>
<time>2023-05-10T16:58:23.722Z</time>
</trkpt>
<trkpt lat="32.5063500" lon="35.3953400">
<ele>352.019989</ele>
<time>2023-05-10T16:58:23.722Z</time>
</trkpt>
<trkpt lat="32.5063000" lon="35.3952800">
<ele>351.709991</ele>
<time>2023-05-10T16:58:23.722Z</time>
</trkpt>
<trkpt lat="32.5062000" lon="35.3951100">
<ele>351.899994</ele>
<time>2023-05-10T16:58:23.722Z</time>
</trkpt>
<trkpt lat="32.5061000" lon="35.3947800">
<ele>352.700012</ele>
<time>2023-05-10T16:58:23.722Z</time>
</trkpt>
<trkpt lat="32.5060600" lon="35.3947200">
<ele>352.639984</ele>
<time>2023-05-10T16:58:23.722Z</time>
</trkpt>
<trkpt lat="32.5059900" lon="35.3945700">
<ele>352.910004</ele>
<time>2023-05-10T16:58:23.722Z</time>
</trkpt>
<trkpt lat="32.5058400" lon="35.3940900">
<ele>353.010010</ele>
<time>2023-05-10T16:58:23.722Z</time>
</trkpt>
<trkpt lat="32.5058200" lon="35.3939600">
<ele>352.750000</ele>
<time>2023-05-10T16:58:23.722Z</time>
</trkpt>
<trkpt lat="32.5058300" lon="35.3938800">
<ele>352.939972</ele>
<time>2023-05-10T16:58:23.722Z</time>
</trkpt>
<trkpt lat="32.5058700" lon="35.3936700">
<ele>353.339996</ele>
<time>2023-05-10T16:58:23.722Z</time>
</trkpt>
<trkpt lat="32.5058800" lon="35.3934600">
<ele>352.690002</ele>
<time>2023-05-10T16:58:23.722Z</time>
</trkpt>
<trkpt lat="32.5059000" lon="35.3933300">
<ele>352.429993</ele>
<time>2023-05-10T16:58:23.723Z</time>
</trkpt>
<trkpt lat="32.5059900" lon="35.3932100">
<ele>353.629974</ele>
<time>2023-05-10T16:58:23.723Z</time>
</trkpt>
<trkpt lat="32.5060000" lon="35.3931200">
<ele>353.220001</ele>
<time>2023-05-10T16:58:23.723Z</time>
</trkpt>
<trkpt lat="32.5059800" lon="35.3929500">
<ele>352.559998</ele>
<time>2023-05-10T16:58:23.723Z</time>
</trkpt>
<trkpt lat="32.5060100" lon="35.3928700">
<ele>352.729980</ele>
<time>2023-05-10T16:58:23.723Z</time>
</trkpt>
<trkpt lat="32.5061900" lon="35.3928400">
<ele>353.380005</ele>
<time>2023-05-10T16:58:23.723Z</time>
</trkpt>
<trkpt lat="32.5062300" lon="35.3927800">
<ele>353.429993</ele>
<time>2023-05-10T16:58:23.723Z</time>
</trkpt>
<trkpt lat="32.5062600" lon="35.3926600">
<ele>354.380005</ele>
<time>2023-05-10T16:58:23.723Z</time>
</trkpt>
<trkpt lat="32.5062500" lon="35.3924900">
<ele>355.609985</ele>
<time>2023-05-10T16:58:23.723Z</time>
</trkpt>
<trkpt lat="32.5063000" lon="35.3923800">
<ele>356.980011</ele>
<time>2023-05-10T16:58:23.723Z</time>
</trkpt>
<trkpt lat="32.5063200" lon="35.3923500">
<ele>357.369995</ele>
<time>2023-05-10T16:58:23.723Z</time>
</trkpt>
<trkpt lat="32.5063600" lon="35.3923500">
<ele>357.519989</ele>
<time>2023-05-10T16:58:23.723Z</time>
</trkpt>
<trkpt lat="32.5066800" lon="35.3923300">
<ele>356.929993</ele>
<time>2023-05-10T16:58:23.723Z</time>
</trkpt>
<trkpt lat="32.5068000" lon="35.3922400">
<ele>357.269989</ele>
<time>2023-05-10T16:58:23.723Z</time>
</trkpt>
<trkpt lat="32.5069600" lon="35.3920100">
<ele>359.079987</ele>
<time>2023-05-10T16:58:23.723Z</time>
</trkpt>
<trkpt lat="32.5070300" lon="35.3919900">
<ele>359.449982</ele>
<time>2023-05-10T16:58:23.723Z</time>
</trkpt>
<trkpt lat="32.5070800" lon="35.3919300">
<ele>360.229980</ele>
<time>2023-05-10T16:58:23.723Z</time>
</trkpt>
<trkpt lat="32.5071100" lon="35.3919100">
<ele>360.550018</ele>
<time>2023-05-10T16:58:23.723Z</time>
</trkpt>
<trkpt lat="32.5072000" lon="35.3917900">
<ele>362.270020</ele>
<time>2023-05-10T16:58:23.723Z</time>
</trkpt>
<trkpt lat="32.5072300" lon="35.3916200">
<ele>364.069977</ele>
<time>2023-05-10T16:58:23.723Z</time>
</trkpt>
<trkpt lat="32.5073000" lon="35.3913800">
<ele>363.320007</ele>
<time>2023-05-10T16:58:23.723Z</time>
</trkpt>
<trkpt lat="32.5073200" lon="35.3912600">
<ele>362.699982</ele>
<time>2023-05-10T16:58:23.723Z</time>
</trkpt>
<trkpt lat="32.5074000" lon="35.3911200">
<ele>359.650024</ele>
<time>2023-05-10T16:58:23.723Z</time>
</trkpt>
<trkpt lat="32.5074700" lon="35.3909200">
<ele>356.390015</ele>
<time>2023-05-10T16:58:23.723Z</time>
</trkpt>
<trkpt lat="32.5074800" lon="35.3907500">
<ele>355.700012</ele>
<time>2023-05-10T16:58:23.723Z</time>
</trkpt>
<trkpt lat="32.5074600" lon="35.3905400">
<ele>356.339996</ele>
<time>2023-05-10T16:58:23.723Z</time>
</trkpt>
<trkpt lat="32.5074700" lon="35.3902000">
<ele>356.830017</ele>
<time>2023-05-10T16:58:23.724Z</time>
</trkpt>
<trkpt lat="32.5074900" lon="35.3900700">
<ele>356.260010</ele>
<time>2023-05-10T16:58:23.724Z</time>
</trkpt>
<trkpt lat="32.5076700" lon="35.3894700">
<ele>351.420013</ele>
<time>2023-05-10T16:58:23.724Z</time>
</trkpt>
<trkpt lat="32.5077000" lon="35.3894000">
<ele>350.199982</ele>
<time>2023-05-10T16:58:23.724Z</time>
</trkpt>
<trkpt lat="32.5078200" lon="35.3889500">
<ele>344.480011</ele>
<time>2023-05-10T16:58:23.724Z</time>
</trkpt>
<trkpt lat="32.5078200" lon="35.3887800">
<ele>343.820007</ele>
<time>2023-05-10T16:58:23.724Z</time>
</trkpt>
<trkpt lat="32.5078000" lon="35.3886500">
<ele>343.619995</ele>
<time>2023-05-10T16:58:23.724Z</time>
</trkpt>
<trkpt lat="32.5076500" lon="35.3882700">
<ele>344.489990</ele>
<time>2023-05-10T16:58:23.724Z</time>
</trkpt>
<trkpt lat="32.5075400" lon="35.3880500">
<ele>344.070007</ele>
<time>2023-05-10T16:58:23.724Z</time>
</trkpt>
<trkpt lat="32.5074200" lon="35.3879000">
<ele>344.920013</ele>
<time>2023-05-10T16:58:23.724Z</time>
</trkpt>
<trkpt lat="32.5073600" lon="35.3878600">
<ele>345.759979</ele>
<time>2023-05-10T16:58:23.724Z</time>
</trkpt>
<trkpt lat="32.5073200" lon="35.3878000">
<ele>346.080017</ele>
<time>2023-05-10T16:58:23.724Z</time>
</trkpt>
<trkpt lat="32.5072900" lon="35.3877800">
<ele>346.550018</ele>
<time>2023-05-10T16:58:23.724Z</time>
</trkpt>
<trkpt lat="32.5072300" lon="35.3876800">
<ele>347.100006</ele>
<time>2023-05-10T16:58:23.724Z</time>
</trkpt>
<trkpt lat="32.5071500" lon="35.3874400">
<ele>346.450012</ele>
<time>2023-05-10T16:58:23.724Z</time>
</trkpt>
<trkpt lat="32.5071200" lon="35.3872700">
<ele>345.290009</ele>
<time>2023-05-10T16:58:23.724Z</time>
</trkpt>
<trkpt lat="32.5071100" lon="35.3871000">
<ele>344.139984</ele>
<time>2023-05-10T16:58:23.724Z</time>
</trkpt>
<trkpt lat="32.5071200" lon="35.3868500">
<ele>342.409973</ele>
<time>2023-05-10T16:58:23.724Z</time>
</trkpt>
<trkpt lat="32.5072100" lon="35.3863500">
<ele>340.630005</ele>
<time>2023-05-10T16:58:23.724Z</time>
</trkpt>
<trkpt lat="32.5073000" lon="35.3861200">
<ele>338.869995</ele>
<time>2023-05-10T16:58:23.724Z</time>
</trkpt>
<trkpt lat="32.5075300" lon="35.3856300">
<ele>332.660004</ele>
<time>2023-05-10T16:58:23.724Z</time>
</trkpt>
<trkpt lat="32.5076700" lon="35.3852400">
<ele>326.350006</ele>
<time>2023-05-10T16:58:23.724Z</time>
</trkpt>
<trkpt lat="32.5078400" lon="35.3849200">
<ele>317.589996</ele>
<time>2023-05-10T16:58:23.724Z</time>
</trkpt>
<trkpt lat="32.5079700" lon="35.3845700">
<ele>319.039978</ele>
<time>2023-05-10T16:58:23.724Z</time>
</trkpt>
<trkpt lat="32.5080600" lon="35.3843900">
<ele>319.590027</ele>
<time>2023-05-10T16:58:23.724Z</time>
</trkpt>
<trkpt lat="32.5081500" lon="35.3841500">
<ele>319.899994</ele>
<time>2023-05-10T16:58:23.725Z</time>
</trkpt>
<trkpt lat="32.5082300" lon="35.3837800">
<ele>323.100006</ele>
<time>2023-05-10T16:58:23.725Z</time>
</trkpt>
<trkpt lat="32.5082700" lon="35.3835300">
<ele>322.910004</ele>
<time>2023-05-10T16:58:23.725Z</time>
</trkpt>
<trkpt lat="32.5083800" lon="35.3829900">
<ele>314.199982</ele>
<time>2023-05-10T16:58:23.725Z</time>
</trkpt>
<trkpt lat="32.5083800" lon="35.3828700">
<ele>313.989990</ele>
<time>2023-05-10T16:58:23.725Z</time>
</trkpt>
<trkpt lat="32.5083600" lon="35.3827800">
<ele>314.329987</ele>
<time>2023-05-10T16:58:23.725Z</time>
</trkpt>
<trkpt lat="32.5082200" lon="35.3823400">
<ele>319.179993</ele>
<time>2023-05-10T16:58:23.725Z</time>
</trkpt>
<trkpt lat="32.5080900" lon="35.3821500">
<ele>321.779999</ele>
<time>2023-05-10T16:58:23.725Z</time>
</trkpt>
<trkpt lat="32.5080100" lon="35.3818700">
<ele>319.519989</ele>
<time>2023-05-10T16:58:23.725Z</time>
</trkpt>
<trkpt lat="32.5078800" lon="35.3816100">
<ele>318.260010</ele>
<time>2023-05-10T16:58:23.725Z</time>
</trkpt>
<trkpt lat="32.5077700" lon="35.3814500">
<ele>318.890015</ele>
<time>2023-05-10T16:58:23.725Z</time>
</trkpt>
<trkpt lat="32.5077400" lon="35.3814300">
<ele>319.549988</ele>
<time>2023-05-10T16:58:23.725Z</time>
</trkpt>
<trkpt lat="32.5076700" lon="35.3812800">
<ele>319.779999</ele>
<time>2023-05-10T16:58:23.725Z</time>
</trkpt>
<trkpt lat="32.5075300" lon="35.3810800">
<ele>320.709991</ele>
<time>2023-05-10T16:58:23.725Z</time>
</trkpt>
<trkpt lat="32.5074900" lon="35.3809600">
<ele>319.440002</ele>
<time>2023-05-10T16:58:23.725Z</time>
</trkpt>
<trkpt lat="32.5074900" lon="35.3809600">
<ele>319.440002</ele>
<time>2023-05-10T16:58:23.725Z</time>
</trkpt>
<trkpt lat="32.5074900" lon="35.3809600">
<ele>319.440002</ele>
<time>2023-05-10T16:58:23.725Z</time>
</trkpt>
<trkpt lat="32.5074600" lon="35.3808400">
<ele>317.839996</ele>
<time>2023-05-10T16:58:23.725Z</time>
</trkpt>
<trkpt lat="32.5073800" lon="35.3805700">
<ele>316.979980</ele>
<time>2023-05-10T16:58:23.725Z</time>
</trkpt>
<trkpt lat="32.5072900" lon="35.3804400">
<ele>316.679993</ele>
<time>2023-05-10T16:58:23.725Z</time>
</trkpt>
<trkpt lat="32.5072700" lon="35.3803100">
<ele>315.890015</ele>
<time>2023-05-10T16:58:23.725Z</time>
</trkpt>
<trkpt lat="32.5073500" lon="35.3801300">
<ele>314.790009</ele>
<time>2023-05-10T16:58:23.725Z</time>
</trkpt>
<trkpt lat="32.5074300" lon="35.3799400">
<ele>314.309998</ele>
<time>2023-05-10T16:58:23.725Z</time>
</trkpt>
<trkpt lat="32.5074400" lon="35.3797200">
<ele>314.440002</ele>
<time>2023-05-10T16:58:23.725Z</time>
</trkpt>
<trkpt lat="32.5074100" lon="35.3795100">
<ele>315.679993</ele>
<time>2023-05-10T16:58:23.725Z</time>
</trkpt>
<trkpt lat="32.5073500" lon="35.3793600">
<ele>316.440002</ele>
<time>2023-05-10T16:58:23.725Z</time>
</trkpt>
<trkpt lat="32.5073500" lon="35.3792800">
<ele>316.859985</ele>
<time>2023-05-10T16:58:23.726Z</time>
</trkpt>
<trkpt lat="32.5073900" lon="35.3792100">
<ele>317.350006</ele>
<time>2023-05-10T16:58:23.726Z</time>
</trkpt>
<trkpt lat="32.5075100" lon="35.3791200">
<ele>318.250000</ele>
<time>2023-05-10T16:58:23.726Z</time>
</trkpt>
<trkpt lat="32.5076500" lon="35.3790900">
<ele>319.509979</ele>
<time>2023-05-10T16:58:23.726Z</time>
</trkpt>
<trkpt lat="32.5077400" lon="35.3789600">
<ele>321.109985</ele>
<time>2023-05-10T16:58:23.726Z</time>
</trkpt>
<trkpt lat="32.5078200" lon="35.3788800">
<ele>322.419983</ele>
<time>2023-05-10T16:58:23.726Z</time>
</trkpt>
<trkpt lat="32.5078500" lon="35.3788600">
<ele>322.679993</ele>
<time>2023-05-10T16:58:23.726Z</time>
</trkpt>
<trkpt lat="32.5079500" lon="35.3788300">
<ele>323.650024</ele>
<time>2023-05-10T16:58:23.726Z</time>
</trkpt>
<trkpt lat="32.5080100" lon="35.3787800">
<ele>324.120026</ele>
<time>2023-05-10T16:58:23.726Z</time>
</trkpt>
<trkpt lat="32.5080400" lon="35.3787700">
<ele>324.399994</ele>
<time>2023-05-10T16:58:23.726Z</time>
</trkpt>
<trkpt lat="32.5080900" lon="35.3787000">
<ele>324.489990</ele>
<time>2023-05-10T16:58:23.726Z</time>
</trkpt>
<trkpt lat="32.5081100" lon="35.3786300">
<ele>324.429993</ele>
<time>2023-05-10T16:58:23.726Z</time>
</trkpt>
<trkpt lat="32.5080900" lon="35.3784600">
<ele>322.619995</ele>
<time>2023-05-10T16:58:23.726Z</time>
</trkpt>
<trkpt lat="32.5080900" lon="35.3784600">
<ele>322.619995</ele>
<time>2023-05-10T16:58:23.726Z</time>
</trkpt>
<trkpt lat="32.5079900" lon="35.3781900">
<ele>320.610016</ele>
<time>2023-05-10T16:58:23.726Z</time>
</trkpt>
<trkpt lat="32.5080000" lon="35.3781000">
<ele>320.459991</ele>
<time>2023-05-10T16:58:23.726Z</time>
</trkpt>
<trkpt lat="32.5080500" lon="35.3779000">
<ele>321.139984</ele>
<time>2023-05-10T16:58:23.726Z</time>
</trkpt>
<trkpt lat="32.5080200" lon="35.3776100">
<ele>320.789978</ele>
<time>2023-05-10T16:58:23.726Z</time>
</trkpt>
<trkpt lat="32.5080700" lon="35.3774900">
<ele>319.809998</ele>
<time>2023-05-10T16:58:23.726Z</time>
</trkpt>
<trkpt lat="32.5081500" lon="35.3774100">
<ele>318.990021</ele>
<time>2023-05-10T16:58:23.726Z</time>
</trkpt>
<trkpt lat="32.5082500" lon="35.3773700">
<ele>318.410004</ele>
<time>2023-05-10T16:58:23.726Z</time>
</trkpt>
<trkpt lat="32.5083100" lon="35.3772600">
<ele>318.760010</ele>
<time>2023-05-10T16:58:23.726Z</time>
</trkpt>
<trkpt lat="32.5083300" lon="35.3771800">
<ele>319.299988</ele>
<time>2023-05-10T16:58:23.726Z</time>
</trkpt>
<trkpt lat="32.5083100" lon="35.3771000">
<ele>319.880005</ele>
<time>2023-05-10T16:58:23.726Z</time>
</trkpt>
<trkpt lat="32.5081700" lon="35.3768000">
<ele>321.829987</ele>
<time>2023-05-10T16:58:23.727Z</time>
</trkpt>
<trkpt lat="32.5080500" lon="35.3764000">
<ele>323.919983</ele>
<time>2023-05-10T16:58:23.727Z</time>
</trkpt>
<trkpt lat="32.5080700" lon="35.3761900">
<ele>324.699982</ele>
<time>2023-05-10T16:58:23.727Z</time>
</trkpt>
<trkpt lat="32.5081100" lon="35.3759800">
<ele>324.239990</ele>
<time>2023-05-10T16:58:23.727Z</time>
</trkpt>
<trkpt lat="32.5081200" lon="35.3757700">
<ele>323.239990</ele>
<time>2023-05-10T16:58:23.727Z</time>
</trkpt>
<trkpt lat="32.5081400" lon="35.3756000">
<ele>322.769989</ele>
<time>2023-05-10T16:58:23.727Z</time>
</trkpt>
<trkpt lat="32.5081200" lon="35.3752600">
<ele>322.220001</ele>
<time>2023-05-10T16:58:23.727Z</time>
</trkpt>
<trkpt lat="32.5080800" lon="35.3750500">
<ele>322.020020</ele>
<time>2023-05-10T16:58:23.727Z</time>
</trkpt>
<trkpt lat="32.5081400" lon="35.3747200">
<ele>322.360016</ele>
<time>2023-05-10T16:58:23.727Z</time>
</trkpt>
<trkpt lat="32.5081800" lon="35.3746500">
<ele>321.179993</ele>
<time>2023-05-10T16:58:23.727Z</time>
</trkpt>
<trkpt lat="32.5082500" lon="35.3746500">
<ele>320.740021</ele>
<time>2023-05-10T16:58:23.727Z</time>
</trkpt>
<trkpt lat="32.5082500" lon="35.3746800">
<ele>321.100006</ele>
<time>2023-05-10T16:58:23.727Z</time>
</trkpt>
<trkpt lat="32.5082500" lon="35.3746800">
<ele>321.100006</ele>
<time>2023-05-10T16:58:23.727Z</time>
</trkpt>
<trkpt lat="32.5082500" lon="35.3746500">
<ele>320.740021</ele>
<time>2023-05-10T16:58:23.727Z</time>
</trkpt>
<trkpt lat="32.5082900" lon="35.3746600">
<ele>320.610016</ele>
<time>2023-05-10T16:58:23.727Z</time>
</trkpt>
<trkpt lat="32.5084100" lon="35.3748100">
<ele>320.489990</ele>
<time>2023-05-10T16:58:23.727Z</time>
</trkpt>
<trkpt lat="32.5085500" lon="35.3750600">
<ele>320.380005</ele>
<time>2023-05-10T16:58:23.727Z</time>
</trkpt>
<trkpt lat="32.5085800" lon="35.3750800">
<ele>320.390015</ele>
<time>2023-05-10T16:58:23.727Z</time>
</trkpt>
<trkpt lat="32.5086200" lon="35.3751500">
<ele>321.049988</ele>
<time>2023-05-10T16:58:23.727Z</time>
</trkpt>
<trkpt lat="32.5086700" lon="35.3752100">
<ele>321.340027</ele>
<time>2023-05-10T16:58:23.727Z</time>
</trkpt>
<trkpt lat="32.5087600" lon="35.3753400">
<ele>321.839996</ele>
<time>2023-05-10T16:58:23.727Z</time>
</trkpt>
<trkpt lat="32.5088100" lon="35.3754600">
<ele>322.159973</ele>
<time>2023-05-10T16:58:23.727Z</time>
</trkpt>
<trkpt lat="32.5089500" lon="35.3756400">
<ele>320.530029</ele>
<time>2023-05-10T16:58:23.727Z</time>
</trkpt>
<trkpt lat="32.5086200" lon="35.3755500">
<ele>324.859985</ele>
<time>2023-05-10T16:58:23.727Z</time>
</trkpt>
<trkpt lat="32.5084900" lon="35.3757900">
<ele>324.930023</ele>
<time>2023-05-10T16:58:23.727Z</time>
</trkpt>
<trkpt lat="32.5088200" lon="35.3757800">
<ele>322.739990</ele>
<time>2023-05-10T16:58:23.727Z</time>
</trkpt>
<trkpt lat="32.5088600" lon="35.3758500">
<ele>322.260010</ele>
<time>2023-05-10T16:58:23.728Z</time>
</trkpt>
<trkpt lat="32.5088900" lon="35.3760100">
<ele>321.340027</ele>
<time>2023-05-10T16:58:23.728Z</time>
</trkpt>
<trkpt lat="32.5088400" lon="35.3762600">
<ele>321.070007</ele>
<time>2023-05-10T16:58:23.728Z</time>
</trkpt>
<trkpt lat="32.5088300" lon="35.3763900">
<ele>320.630005</ele>
<time>2023-05-10T16:58:23.728Z</time>
</trkpt>
<trkpt lat="32.5087200" lon="35.3767500">
<ele>320.220001</ele>
<time>2023-05-10T16:58:23.728Z</time>
</trkpt>
<trkpt lat="32.5087100" lon="35.3768300">
<ele>319.760010</ele>
<time>2023-05-10T16:58:23.728Z</time>
</trkpt>
<trkpt lat="32.5087700" lon="35.3769400">
<ele>318.320007</ele>
<time>2023-05-10T16:58:23.728Z</time>
</trkpt>
<trkpt lat="32.5088200" lon="35.3770000">
<ele>317.390015</ele>
<time>2023-05-10T16:58:23.728Z</time>
</trkpt>
<trkpt lat="32.5088500" lon="35.3771200">
<ele>316.240021</ele>
<time>2023-05-10T16:58:23.728Z</time>
</trkpt>
<trkpt lat="32.5087700" lon="35.3774000">
<ele>316.440002</ele>
<time>2023-05-10T16:58:23.728Z</time>
</trkpt>
<trkpt lat="32.5087200" lon="35.3777000">
<ele>317.419983</ele>
<time>2023-05-10T16:58:23.728Z</time>
</trkpt>
<trkpt lat="32.5087200" lon="35.3777200">
<ele>317.480011</ele>
<time>2023-05-10T16:58:23.728Z</time>
</trkpt>
<trkpt lat="32.5087200" lon="35.3777200">
<ele>317.480011</ele>
<time>2023-05-10T16:58:23.728Z</time>
</trkpt>
<trkpt lat="32.5086300" lon="35.3779800">
<ele>318.959991</ele>
<time>2023-05-10T16:58:23.728Z</time>
</trkpt>
<trkpt lat="32.5086300" lon="35.3783600">
<ele>320.929993</ele>
<time>2023-05-10T16:58:23.728Z</time>
</trkpt>
<trkpt lat="32.5086500" lon="35.3784800">
<ele>321.739990</ele>
<time>2023-05-10T16:58:23.728Z</time>
</trkpt>
<trkpt lat="32.5086800" lon="35.3785600">
<ele>321.800018</ele>
<time>2023-05-10T16:58:23.728Z</time>
</trkpt>
<trkpt lat="32.5087000" lon="35.3785900">
<ele>321.579987</ele>
<time>2023-05-10T16:58:23.728Z</time>
</trkpt>
<trkpt lat="32.5087400" lon="35.3786400">
<ele>320.539978</ele>
<time>2023-05-10T16:58:23.728Z</time>
</trkpt>
<trkpt lat="32.5088300" lon="35.3786500">
<ele>318.279999</ele>
<time>2023-05-10T16:58:23.728Z</time>
</trkpt>
<trkpt lat="32.5088600" lon="35.3785300">
<ele>317.380005</ele>
<time>2023-05-10T16:58:23.728Z</time>
</trkpt>
<trkpt lat="32.5088900" lon="35.3784500">
<ele>316.379974</ele>
<time>2023-05-10T16:58:23.728Z</time>
</trkpt>
<trkpt lat="32.5089600" lon="35.3784600">
<ele>313.920013</ele>
<time>2023-05-10T16:58:23.728Z</time>
</trkpt>
<trkpt lat="32.5090100" lon="35.3785600">
<ele>312.180023</ele>
<time>2023-05-10T16:58:23.729Z</time>
</trkpt>
<trkpt lat="32.5089700" lon="35.3789000">
<ele>313.949982</ele>
<time>2023-05-10T16:58:23.729Z</time>
</trkpt>
<trkpt lat="32.5089900" lon="35.3789800">
<ele>313.510010</ele>
<time>2023-05-10T16:58:23.729Z</time>
</trkpt>
<trkpt lat="32.5089500" lon="35.3791000">
<ele>313.939972</ele>
<time>2023-05-10T16:58:23.729Z</time>
</trkpt>
<trkpt lat="32.5087900" lon="35.3791900">
<ele>314.260010</ele>
<time>2023-05-10T16:58:23.729Z</time>
</trkpt>
<trkpt lat="32.5085700" lon="35.3792000">
<ele>315.579987</ele>
<time>2023-05-10T16:58:23.729Z</time>
</trkpt>
<trkpt lat="32.5085100" lon="35.3792200">
<ele>315.579987</ele>
<time>2023-05-10T16:58:23.729Z</time>
</trkpt>
<trkpt lat="32.5084500" lon="35.3792700">
<ele>314.929993</ele>
<time>2023-05-10T16:58:23.729Z</time>
</trkpt>
<trkpt lat="32.5083800" lon="35.3793000">
<ele>314.779999</ele>
<time>2023-05-10T16:58:23.729Z</time>
</trkpt>
<trkpt lat="32.5083300" lon="35.3793600">
<ele>313.859985</ele>
<time>2023-05-10T16:58:23.729Z</time>
</trkpt>
<trkpt lat="32.5082300" lon="35.3793800">
<ele>314.589996</ele>
<time>2023-05-10T16:58:23.729Z</time>
</trkpt>
<trkpt lat="32.5081400" lon="35.3794500">
<ele>314.040009</ele>
<time>2023-05-10T16:58:23.729Z</time>
</trkpt>
<trkpt lat="32.5080700" lon="35.3794800">
<ele>314.580017</ele>
<time>2023-05-10T16:58:23.729Z</time>
</trkpt>
<trkpt lat="32.5079000" lon="35.3796900">
<ele>313.299988</ele>
<time>2023-05-10T16:58:23.729Z</time>
</trkpt>
<trkpt lat="32.5078000" lon="35.3797400">
<ele>312.929993</ele>
<time>2023-05-10T16:58:23.729Z</time>
</trkpt>
<trkpt lat="32.5077400" lon="35.3797900">
<ele>312.929993</ele>
<time>2023-05-10T16:58:23.729Z</time>
</trkpt>
<trkpt lat="32.5076700" lon="35.3798100">
<ele>313.190002</ele>
<time>2023-05-10T16:58:23.729Z</time>
</trkpt>
<trkpt lat="32.5074900" lon="35.3800700">
<ele>314.049988</ele>
<time>2023-05-10T16:58:23.729Z</time>
</trkpt>
<trkpt lat="32.5073900" lon="35.3804200">
<ele>315.820007</ele>
<time>2023-05-10T16:58:23.729Z</time>
</trkpt>
<trkpt lat="32.5074300" lon="35.3804900">
<ele>316.029999</ele>
<time>2023-05-10T16:58:23.729Z</time>
</trkpt>
<trkpt lat="32.5074900" lon="35.3805500">
<ele>316.029999</ele>
<time>2023-05-10T16:58:23.729Z</time>
</trkpt>
<trkpt lat="32.5075900" lon="35.3807200">
<ele>314.969971</ele>
<time>2023-05-10T16:58:23.729Z</time>
</trkpt>
<trkpt lat="32.5076600" lon="35.3807500">
<ele>313.819977</ele>
<time>2023-05-10T16:58:23.729Z</time>
</trkpt>
<trkpt lat="32.5077100" lon="35.3808000">
<ele>313.100006</ele>
<time>2023-05-10T16:58:23.729Z</time>
</trkpt>
<trkpt lat="32.5077800" lon="35.3808400">
<ele>312.020020</ele>
<time>2023-05-10T16:58:23.729Z</time>
</trkpt>
<trkpt lat="32.5078500" lon="35.3809300">
<ele>311.299988</ele>
<time>2023-05-10T16:58:23.730Z</time>
</trkpt>
<trkpt lat="32.5078700" lon="35.3810000">
<ele>311.410004</ele>
<time>2023-05-10T16:58:23.730Z</time>
</trkpt>
<trkpt lat="32.5078700" lon="35.3809900">
<ele>311.329987</ele>
<time>2023-05-10T16:58:23.730Z</time>
</trkpt>
<trkpt lat="32.5078700" lon="35.3809900">
<ele>311.329987</ele>
<time>2023-05-10T16:58:23.730Z</time>
</trkpt>
<trkpt lat="32.5079600" lon="35.3812400">
<ele>312.059998</ele>
<time>2023-05-10T16:58:23.730Z</time>
</trkpt>
<trkpt lat="32.5079900" lon="35.3812700">
<ele>311.919983</ele>
<time>2023-05-10T16:58:23.730Z</time>
</trkpt>
<trkpt lat="32.5080300" lon="35.3813400">
<ele>312.449982</ele>
<time>2023-05-10T16:58:23.730Z</time>
</trkpt>
<trkpt lat="32.5080600" lon="35.3813600">
<ele>312.250000</ele>
<time>2023-05-10T16:58:23.730Z</time>
</trkpt>
<trkpt lat="32.5081200" lon="35.3814700">
<ele>311.660004</ele>
<time>2023-05-10T16:58:23.730Z</time>
</trkpt>
<trkpt lat="32.5081700" lon="35.3816300">
<ele>311.080017</ele>
<time>2023-05-10T16:58:23.730Z</time>
</trkpt>
<trkpt lat="32.5082000" lon="35.3818400">
<ele>313.760010</ele>
<time>2023-05-10T16:58:23.730Z</time>
</trkpt>
<trkpt lat="32.5082200" lon="35.3819200">
<ele>314.769989</ele>
<time>2023-05-10T16:58:23.730Z</time>
</trkpt>
<trkpt lat="32.5083800" lon="35.3822000">
<ele>312.310028</ele>
<time>2023-05-10T16:58:23.730Z</time>
</trkpt>
<trkpt lat="32.5084300" lon="35.3822600">
<ele>311.130005</ele>
<time>2023-05-10T16:58:23.730Z</time>
</trkpt>
<trkpt lat="32.5085200" lon="35.3823300">
<ele>308.329987</ele>
<time>2023-05-10T16:58:23.730Z</time>
</trkpt>
<trkpt lat="32.5086000" lon="35.3825200">
<ele>305.679993</ele>
<time>2023-05-10T16:58:23.730Z</time>
</trkpt>
<trkpt lat="32.5087000" lon="35.3824500">
<ele>301.950012</ele>
<time>2023-05-10T16:58:23.730Z</time>
</trkpt>
<trkpt lat="32.5085900" lon="35.3821700">
<ele>305.130005</ele>
<time>2023-05-10T16:58:23.730Z</time>
</trkpt>
<trkpt lat="32.5084600" lon="35.3809500">
<ele>296.619995</ele>
<time>2023-05-10T16:58:23.730Z</time>
</trkpt>
<trkpt lat="32.5083000" lon="35.3807800">
<ele>300.550018</ele>
<time>2023-05-10T16:58:23.730Z</time>
</trkpt>
<trkpt lat="32.5083200" lon="35.3807000">
<ele>299.829987</ele>
<time>2023-05-10T16:58:23.730Z</time>
</trkpt>
<trkpt lat="32.5084600" lon="35.3808100">
<ele>296.420013</ele>
<time>2023-05-10T16:58:23.730Z</time>
</trkpt>
<trkpt lat="32.5085600" lon="35.3808400">
<ele>293.459991</ele>
<time>2023-05-10T16:58:23.730Z</time>
</trkpt>
<trkpt lat="32.5087700" lon="35.3810100">
<ele>286.320007</ele>
<time>2023-05-10T16:58:23.730Z</time>
</trkpt>
<trkpt lat="32.5089200" lon="35.3812000">
<ele>284.419983</ele>
<time>2023-05-10T16:58:23.731Z</time>
</trkpt>
<trkpt lat="32.5090300" lon="35.3814100">
<ele>284.160004</ele>
<time>2023-05-10T16:58:23.731Z</time>
</trkpt>
<trkpt lat="32.5090800" lon="35.3814600">
<ele>283.839996</ele>
<time>2023-05-10T16:58:23.731Z</time>
</trkpt>
<trkpt lat="32.5091200" lon="35.3816300">
<ele>284.549988</ele>
<time>2023-05-10T16:58:23.731Z</time>
</trkpt>
<trkpt lat="32.5092500" lon="35.3815700">
<ele>280.619995</ele>
<time>2023-05-10T16:58:23.731Z</time>
</trkpt>
<trkpt lat="32.5092000" lon="35.3814400">
<ele>281.459991</ele>
<time>2023-05-10T16:58:23.731Z</time>
</trkpt>
<trkpt lat="32.5092000" lon="35.3814400">
<ele>281.459991</ele>
<time>2023-05-10T16:58:23.731Z</time>
</trkpt>
<trkpt lat="32.5091700" lon="35.3813400">
<ele>282.089996</ele>
<time>2023-05-10T16:58:23.731Z</time>
</trkpt>
<trkpt lat="32.5091200" lon="35.3810500">
<ele>282.649994</ele>
<time>2023-05-10T16:58:23.731Z</time>
</trkpt>
<trkpt lat="32.5091700" lon="35.3808900">
<ele>281.390015</ele>
<time>2023-05-10T16:58:23.731Z</time>
</trkpt>
<trkpt lat="32.5092900" lon="35.3808000">
<ele>280.809998</ele>
<time>2023-05-10T16:58:23.731Z</time>
</trkpt>
<trkpt lat="32.5094300" lon="35.3807500">
<ele>280.679993</ele>
<time>2023-05-10T16:58:23.731Z</time>
</trkpt>
<trkpt lat="32.5097500" lon="35.3807300">
<ele>275.550018</ele>
<time>2023-05-10T16:58:23.731Z</time>
</trkpt>
<trkpt lat="32.5098500" lon="35.3806700">
<ele>275.209991</ele>
<time>2023-05-10T16:58:23.731Z</time>
</trkpt>
<trkpt lat="32.5099100" lon="35.3806500">
<ele>274.609985</ele>
<time>2023-05-10T16:58:23.731Z</time>
</trkpt>
<trkpt lat="32.5100000" lon="35.3805800">
<ele>273.820007</ele>
<time>2023-05-10T16:58:23.731Z</time>
</trkpt>
<trkpt lat="32.5100300" lon="35.3805600">
<ele>273.649994</ele>
<time>2023-05-10T16:58:23.731Z</time>
</trkpt>
<trkpt lat="32.5102300" lon="35.3803200">
<ele>275.200012</ele>
<time>2023-05-10T16:58:23.731Z</time>
</trkpt>
<trkpt lat="32.5103800" lon="35.3802200">
<ele>274.730011</ele>
<time>2023-05-10T16:58:23.731Z</time>
</trkpt>
<trkpt lat="32.5104300" lon="35.3801500">
<ele>275.200012</ele>
<time>2023-05-10T16:58:23.731Z</time>
</trkpt>
<trkpt lat="32.5104900" lon="35.3801100">
<ele>275.119995</ele>
<time>2023-05-10T16:58:23.732Z</time>
</trkpt>
<trkpt lat="32.5106900" lon="35.3798800">
<ele>275.140015</ele>
<time>2023-05-10T16:58:23.732Z</time>
</trkpt>
<trkpt lat="32.5107900" lon="35.3797000">
<ele>275.369995</ele>
<time>2023-05-10T16:58:23.732Z</time>
</trkpt>
<trkpt lat="32.5109600" lon="35.3793300">
<ele>273.609985</ele>
<time>2023-05-10T16:58:23.732Z</time>
</trkpt>
<trkpt lat="32.5111000" lon="35.3789300">
<ele>269.490021</ele>
<time>2023-05-10T16:58:23.732Z</time>
</trkpt>
<trkpt lat="32.5111500" lon="35.3786800">
<ele>265.399994</ele>
<time>2023-05-10T16:58:23.732Z</time>
</trkpt>
<trkpt lat="32.5111700" lon="35.3785200">
<ele>263.500000</ele>
<time>2023-05-10T16:58:23.732Z</time>
</trkpt>
<trkpt lat="32.5111800" lon="35.3780900">
<ele>260.699982</ele>
<time>2023-05-10T16:58:23.732Z</time>
</trkpt>
<trkpt lat="32.5111200" lon="35.3778400">
<ele>257.279999</ele>
<time>2023-05-10T16:58:23.732Z</time>
</trkpt>
<trkpt lat="32.5110600" lon="35.3776900">
<ele>259.980011</ele>
<time>2023-05-10T16:58:23.732Z</time>
</trkpt>
<trkpt lat="32.5110700" lon="35.3776500">
<ele>259.940002</ele>
<time>2023-05-10T16:58:23.732Z</time>
</trkpt>
<trkpt lat="32.5109800" lon="35.3775500">
<ele>265.279999</ele>
<time>2023-05-10T16:58:23.732Z</time>
</trkpt>
<trkpt lat="32.5110200" lon="35.3774700">
<ele>263.970001</ele>
<time>2023-05-10T16:58:23.732Z</time>
</trkpt>
<trkpt lat="32.5111900" lon="35.3775600">
<ele>258.179993</ele>
<time>2023-05-10T16:58:23.732Z</time>
</trkpt>
<trkpt lat="32.5112600" lon="35.3775600">
<ele>257.339996</ele>
<time>2023-05-10T16:58:23.732Z</time>
</trkpt>
<trkpt lat="32.5112900" lon="35.3775400">
<ele>257.130005</ele>
<time>2023-05-10T16:58:23.732Z</time>
</trkpt>
<trkpt lat="32.5114300" lon="35.3772400">
<ele>257.709991</ele>
<time>2023-05-10T16:58:23.732Z</time>
</trkpt>
<trkpt lat="32.5114900" lon="35.3771400">
<ele>257.610016</ele>
<time>2023-05-10T16:58:23.732Z</time>
</trkpt>
<trkpt lat="32.5116500" lon="35.3769600">
<ele>255.340012</ele>
<time>2023-05-10T16:58:23.732Z</time>
</trkpt>
<trkpt lat="32.5117500" lon="35.3767900">
<ele>254.199997</ele>
<time>2023-05-10T16:58:23.732Z</time>
</trkpt>
<trkpt lat="32.5118700" lon="35.3767000">
<ele>252.339996</ele>
<time>2023-05-10T16:58:23.733Z</time>
</trkpt>
<trkpt lat="32.5120400" lon="35.3766400">
<ele>250.460007</ele>
<time>2023-05-10T16:58:23.733Z</time>
</trkpt>
<trkpt lat="32.5121800" lon="35.3767000">
<ele>250.509995</ele>
<time>2023-05-10T16:58:23.733Z</time>
</trkpt>
<trkpt lat="32.5122900" lon="35.3767100">
<ele>250.429993</ele>
<time>2023-05-10T16:58:23.733Z</time>
</trkpt>
<trkpt lat="32.5123700" lon="35.3767900">
<ele>251.100006</ele>
<time>2023-05-10T16:58:23.733Z</time>
</trkpt>
<trkpt lat="32.5124500" lon="35.3768000">
<ele>251.050003</ele>
<time>2023-05-10T16:58:23.733Z</time>
</trkpt>
<trkpt lat="32.5125700" lon="35.3768700">
<ele>251.409988</ele>
<time>2023-05-10T16:58:23.733Z</time>
</trkpt>
<trkpt lat="32.5128000" lon="35.3768800">
<ele>251.449997</ele>
<time>2023-05-10T16:58:23.733Z</time>
</trkpt>
<trkpt lat="32.5128900" lon="35.3768600">
<ele>252.390015</ele>
<time>2023-05-10T16:58:23.733Z</time>
</trkpt>
<trkpt lat="32.5129400" lon="35.3768100">
<ele>252.949997</ele>
<time>2023-05-10T16:58:23.733Z</time>
</trkpt>
<trkpt lat="32.5130200" lon="35.3768100">
<ele>253.679993</ele>
<time>2023-05-10T16:58:23.733Z</time>
</trkpt>
<trkpt lat="32.5132100" lon="35.3770500">
<ele>258.610016</ele>
<time>2023-05-10T16:58:23.733Z</time>
</trkpt>
<trkpt lat="32.5133000" lon="35.3771900">
<ele>261.260010</ele>
<time>2023-05-10T16:58:23.733Z</time>
</trkpt>
<trkpt lat="32.5133300" lon="35.3772100">
<ele>261.890015</ele>
<time>2023-05-10T16:58:23.733Z</time>
</trkpt>
<trkpt lat="32.5134100" lon="35.3773400">
<ele>265.750000</ele>
<time>2023-05-10T16:58:23.733Z</time>
</trkpt>
<trkpt lat="32.5134300" lon="35.3771700">
<ele>265.360016</ele>
<time>2023-05-10T16:58:23.733Z</time>
</trkpt>
<trkpt lat="32.5136800" lon="35.3775600">
<ele>271.109985</ele>
<time>2023-05-10T16:58:23.733Z</time>
</trkpt>
<trkpt lat="32.5137100" lon="35.3775700">
<ele>271.510010</ele>
<time>2023-05-10T16:58:23.733Z</time>
</trkpt>
<trkpt lat="32.5138200" lon="35.3777400">
<ele>269.959991</ele>
<time>2023-05-10T16:58:23.733Z</time>
</trkpt>
<trkpt lat="32.5139900" lon="35.3779000">
<ele>269.429993</ele>
<time>2023-05-10T16:58:23.733Z</time>
</trkpt>
<trkpt lat="32.5140500" lon="35.3779200">
<ele>270.040009</ele>
<time>2023-05-10T16:58:23.734Z</time>
</trkpt>
<trkpt lat="32.5141000" lon="35.3778800">
<ele>271.820007</ele>
<time>2023-05-10T16:58:23.734Z</time>
</trkpt>
<trkpt lat="32.5140200" lon="35.3777300">
<ele>273.429993</ele>
<time>2023-05-10T16:58:23.734Z</time>
</trkpt>
<trkpt lat="32.5141100" lon="35.3777300">
<ele>275.639984</ele>
<time>2023-05-10T16:58:23.734Z</time>
</trkpt>
<trkpt lat="32.5141500" lon="35.3776500">
<ele>278.369995</ele>
<time>2023-05-10T16:58:23.734Z</time>
</trkpt>
<trkpt lat="32.5142200" lon="35.3777300">
<ele>278.149994</ele>
<time>2023-05-10T16:58:23.734Z</time>
</trkpt>
<trkpt lat="32.5143800" lon="35.3778200">
<ele>279.630005</ele>
<time>2023-05-10T16:58:23.734Z</time>
</trkpt>
<trkpt lat="32.5145300" lon="35.3778100">
<ele>282.339996</ele>
<time>2023-05-10T16:58:23.734Z</time>
</trkpt>
<trkpt lat="32.5145800" lon="35.3777600">
<ele>283.750000</ele>
<time>2023-05-10T16:58:23.734Z</time>
</trkpt>
<trkpt lat="32.5146000" lon="35.3777900">
<ele>283.490021</ele>
<time>2023-05-10T16:58:23.734Z</time>
</trkpt>
<trkpt lat="32.5145900" lon="35.3777500">
<ele>284.019989</ele>
<time>2023-05-10T16:58:23.734Z</time>
</trkpt>
<trkpt lat="32.5143300" lon="35.3773900">
<ele>285.500000</ele>
<time>2023-05-10T16:58:23.734Z</time>
</trkpt>
<trkpt lat="32.5142200" lon="35.3771600">
<ele>284.500000</ele>
<time>2023-05-10T16:58:23.734Z</time>
</trkpt>
<trkpt lat="32.5143100" lon="35.3771800">
<ele>285.829987</ele>
<time>2023-05-10T16:58:23.734Z</time>
</trkpt>
<trkpt lat="32.5143800" lon="35.3772300">
<ele>287.040009</ele>
<time>2023-05-10T16:58:23.734Z</time>
</trkpt>
<trkpt lat="32.5144700" lon="35.3772900">
<ele>287.940002</ele>
<time>2023-05-10T16:58:23.734Z</time>
</trkpt>
<trkpt lat="32.5145400" lon="35.3773200">
<ele>288.339996</ele>
<time>2023-05-10T16:58:23.734Z</time>
</trkpt>
<trkpt lat="32.5145900" lon="35.3773800">
<ele>288.479980</ele>
<time>2023-05-10T16:58:23.734Z</time>
</trkpt>
<trkpt lat="32.5147000" lon="35.3774700">
<ele>288.949982</ele>
<time>2023-05-10T16:58:23.734Z</time>
</trkpt>
<trkpt lat="32.5147300" lon="35.3774900">
<ele>289.149994</ele>
<time>2023-05-10T16:58:23.735Z</time>
</trkpt>
<trkpt lat="32.5149000" lon="35.3776500">
<ele>289.050018</ele>
<time>2023-05-10T16:58:23.735Z</time>
</trkpt>
<trkpt lat="32.5149900" lon="35.3777200">
<ele>288.920013</ele>
<time>2023-05-10T16:58:23.735Z</time>
</trkpt>
<trkpt lat="32.5150200" lon="35.3777300">
<ele>289.040009</ele>
<time>2023-05-10T16:58:23.735Z</time>
</trkpt>
<trkpt lat="32.5150700" lon="35.3777900">
<ele>288.359985</ele>
<time>2023-05-10T16:58:23.735Z</time>
</trkpt>
<trkpt lat="32.5151700" lon="35.3778500">
<ele>288.279999</ele>
<time>2023-05-10T16:58:23.735Z</time>
</trkpt>
<trkpt lat="32.5152400" lon="35.3778700">
<ele>288.450012</ele>
<time>2023-05-10T16:58:23.735Z</time>
</trkpt>
<trkpt lat="32.5152700" lon="35.3778200">
<ele>289.339996</ele>
<time>2023-05-10T16:58:23.735Z</time>
</trkpt>
<trkpt lat="32.5151200" lon="35.3776600">
<ele>291.529999</ele>
<time>2023-05-10T16:58:23.735Z</time>
</trkpt>
<trkpt lat="32.5150300" lon="35.3775700">
<ele>292.200012</ele>
<time>2023-05-10T16:58:23.735Z</time>
</trkpt>
<trkpt lat="32.5149800" lon="35.3775100">
<ele>292.529999</ele>
<time>2023-05-10T16:58:23.735Z</time>
</trkpt>
<trkpt lat="32.5150600" lon="35.3774600">
<ele>294.640015</ele>
<time>2023-05-10T16:58:23.735Z</time>
</trkpt>
<trkpt lat="32.5151400" lon="35.3774900">
<ele>295.700012</ele>
<time>2023-05-10T16:58:23.735Z</time>
</trkpt>
<trkpt lat="32.5152000" lon="35.3775400">
<ele>295.570007</ele>
<time>2023-05-10T16:58:23.735Z</time>
</trkpt>
<trkpt lat="32.5152700" lon="35.3775800">
<ele>295.580017</ele>
<time>2023-05-10T16:58:23.735Z</time>
</trkpt>
<trkpt lat="32.5154300" lon="35.3776700">
<ele>297.239990</ele>
<time>2023-05-10T16:58:23.735Z</time>
</trkpt>
<trkpt lat="32.5156900" lon="35.3778900">
<ele>298.010010</ele>
<time>2023-05-10T16:58:23.735Z</time>
</trkpt>
<trkpt lat="32.5157600" lon="35.3779200">
<ele>299.779999</ele>
<time>2023-05-10T16:58:23.735Z</time>
</trkpt>
<trkpt lat="32.5158500" lon="35.3779900">
<ele>301.010010</ele>
<time>2023-05-10T16:58:23.735Z</time>
</trkpt>
<trkpt lat="32.5159500" lon="35.3780100">
<ele>302.670013</ele>
<time>2023-05-10T16:58:23.735Z</time>
</trkpt>
<trkpt lat="32.5160400" lon="35.3780700">
<ele>303.220001</ele>
<time>2023-05-10T16:58:23.735Z</time>
</trkpt>
<trkpt lat="32.5161500" lon="35.3780900">
<ele>304.660004</ele>
<time>2023-05-10T16:58:23.735Z</time>
</trkpt>
<trkpt lat="32.5161800" lon="35.3781000">
<ele>304.700012</ele>
<time>2023-05-10T16:58:23.735Z</time>
</trkpt>
<trkpt lat="32.5163200" lon="35.3782300">
<ele>303.359985</ele>
<time>2023-05-10T16:58:23.735Z</time>
</trkpt>
<trkpt lat="32.5163600" lon="35.3783100">
<ele>302.209991</ele>
<time>2023-05-10T16:58:23.735Z</time>
</trkpt>
<trkpt lat="32.5164700" lon="35.3785300">
<ele>302.630005</ele>
<time>2023-05-10T16:58:23.736Z</time>
</trkpt>
<trkpt lat="32.5165200" lon="35.3785900">
<ele>303.460022</ele>
<time>2023-05-10T16:58:23.736Z</time>
</trkpt>
<trkpt lat="32.5165900" lon="35.3785900">
<ele>305.220001</ele>
<time>2023-05-10T16:58:23.736Z</time>
</trkpt>
<trkpt lat="32.5167000" lon="35.3784900">
<ele>308.709991</ele>
<time>2023-05-10T16:58:23.736Z</time>
</trkpt>
<trkpt lat="32.5167800" lon="35.3783500">
<ele>311.739990</ele>
<time>2023-05-10T16:58:23.736Z</time>
</trkpt>
<trkpt lat="32.5168100" lon="35.3782300">
<ele>313.899994</ele>
<time>2023-05-10T16:58:23.736Z</time>
</trkpt>
<trkpt lat="32.5167600" lon="35.3780400">
<ele>315.420013</ele>
<time>2023-05-10T16:58:23.736Z</time>
</trkpt>
<trkpt lat="32.5165800" lon="35.3778400">
<ele>313.080017</ele>
<time>2023-05-10T16:58:23.736Z</time>
</trkpt>
<trkpt lat="32.5165100" lon="35.3778100">
<ele>311.929993</ele>
<time>2023-05-10T16:58:23.736Z</time>
</trkpt>
<trkpt lat="32.5164600" lon="35.3777500">
<ele>311.700012</ele>
<time>2023-05-10T16:58:23.736Z</time>
</trkpt>
<trkpt lat="32.5163900" lon="35.3777300">
<ele>310.880005</ele>
<time>2023-05-10T16:58:23.736Z</time>
</trkpt>
<trkpt lat="32.5163000" lon="35.3776600">
<ele>313.029999</ele>
<time>2023-05-10T16:58:23.736Z</time>
</trkpt>
<trkpt lat="32.5162300" lon="35.3776400">
<ele>314.190002</ele>
<time>2023-05-10T16:58:23.736Z</time>
</trkpt>
<trkpt lat="32.5161800" lon="35.3775800">
<ele>316.129974</ele>
<time>2023-05-10T16:58:23.736Z</time>
</trkpt>
<trkpt lat="32.5161100" lon="35.3775600">
<ele>317.470001</ele>
<time>2023-05-10T16:58:23.736Z</time>
</trkpt>
<trkpt lat="32.5160600" lon="35.3774900">
<ele>318.390015</ele>
<time>2023-05-10T16:58:23.736Z</time>
</trkpt>
<trkpt lat="32.5160300" lon="35.3774800">
<ele>318.090027</ele>
<time>2023-05-10T16:58:23.736Z</time>
</trkpt>
<trkpt lat="32.5159300" lon="35.3773600">
<ele>318.560028</ele>
<time>2023-05-10T16:58:23.736Z</time>
</trkpt>
<trkpt lat="32.5158700" lon="35.3772600">
<ele>319.619995</ele>
<time>2023-05-10T16:58:23.736Z</time>
</trkpt>
<trkpt lat="32.5158200" lon="35.3771900">
<ele>319.890015</ele>
<time>2023-05-10T16:58:23.736Z</time>
</trkpt>
<trkpt lat="32.5158200" lon="35.3771900">
<ele>319.890015</ele>
<time>2023-05-10T16:58:23.736Z</time>
</trkpt>
<trkpt lat="32.5158200" lon="35.3771900">
<ele>319.890015</ele>
<time>2023-05-10T16:58:23.736Z</time>
</trkpt>
<trkpt lat="32.5158200" lon="35.3771900">
<ele>319.890015</ele>
<time>2023-05-10T16:58:23.736Z</time>
</trkpt>
<trkpt lat="32.5157000" lon="35.3770400">
<ele>318.890015</ele>
<time>2023-05-10T16:58:23.736Z</time>
</trkpt>
<trkpt lat="32.5154800" lon="35.3767200">
<ele>317.069977</ele>
<time>2023-05-10T16:58:23.736Z</time>
</trkpt>
<trkpt lat="32.5154400" lon="35.3767000">
<ele>316.279999</ele>
<time>2023-05-10T16:58:23.737Z</time>
</trkpt>
<trkpt lat="32.5153200" lon="35.3765500">
<ele>315.820007</ele>
<time>2023-05-10T16:58:23.737Z</time>
</trkpt>
<trkpt lat="32.5152600" lon="35.3765100">
<ele>315.459991</ele>
<time>2023-05-10T16:58:23.737Z</time>
</trkpt>
<trkpt lat="32.5151700" lon="35.3763800">
<ele>315.750000</ele>
<time>2023-05-10T16:58:23.737Z</time>
</trkpt>
<trkpt lat="32.5151400" lon="35.3763600">
<ele>315.279999</ele>
<time>2023-05-10T16:58:23.737Z</time>
</trkpt>
<trkpt lat="32.5150400" lon="35.3761300">
<ele>315.529999</ele>
<time>2023-05-10T16:58:23.737Z</time>
</trkpt>
<trkpt lat="32.5149900" lon="35.3760800">
<ele>314.940002</ele>
<time>2023-05-10T16:58:23.737Z</time>
</trkpt>
<trkpt lat="32.5149500" lon="35.3760000">
<ele>314.570007</ele>
<time>2023-05-10T16:58:23.737Z</time>
</trkpt>
<trkpt lat="32.5148300" lon="35.3756900">
<ele>313.869995</ele>
<time>2023-05-10T16:58:23.737Z</time>
</trkpt>
<trkpt lat="32.5147100" lon="35.3749800">
<ele>311.850006</ele>
<time>2023-05-10T16:58:23.737Z</time>
</trkpt>
<trkpt lat="32.5146700" lon="35.3748200">
<ele>311.589996</ele>
<time>2023-05-10T16:58:23.737Z</time>
</trkpt>
<trkpt lat="32.5145800" lon="35.3743600">
<ele>313.959991</ele>
<time>2023-05-10T16:58:23.737Z</time>
</trkpt>
<trkpt lat="32.5145500" lon="35.3741500">
<ele>315.420013</ele>
<time>2023-05-10T16:58:23.737Z</time>
</trkpt>
<trkpt lat="32.5145500" lon="35.3739800">
<ele>315.420013</ele>
<time>2023-05-10T16:58:23.737Z</time>
</trkpt>
<trkpt lat="32.5145900" lon="35.3735600">
<ele>314.600006</ele>
<time>2023-05-10T16:58:23.737Z</time>
</trkpt>
<trkpt lat="32.5146400" lon="35.3733100">
<ele>313.320007</ele>
<time>2023-05-10T16:58:23.737Z</time>
</trkpt>
<trkpt lat="32.5146900" lon="35.3732000">
<ele>313.320007</ele>
<time>2023-05-10T16:58:23.737Z</time>
</trkpt>
<trkpt lat="32.5147300" lon="35.3731800">
<ele>314.620026</ele>
<time>2023-05-10T16:58:23.737Z</time>
</trkpt>
<trkpt lat="32.5147700" lon="35.3731100">
<ele>315.250000</ele>
<time>2023-05-10T16:58:23.737Z</time>
</trkpt>
<trkpt lat="32.5148300" lon="35.3730700">
<ele>317.320007</ele>
<time>2023-05-10T16:58:23.737Z</time>
</trkpt>
<trkpt lat="32.5150000" lon="35.3728600">
<ele>320.069977</ele>
<time>2023-05-10T16:58:23.737Z</time>
</trkpt>
<trkpt lat="32.5150600" lon="35.3728200">
<ele>320.980011</ele>
<time>2023-05-10T16:58:23.737Z</time>
</trkpt>
<trkpt lat="32.5151400" lon="35.3727300">
<ele>321.850006</ele>
<time>2023-05-10T16:58:23.737Z</time>
</trkpt>
<trkpt lat="32.5152400" lon="35.3725500">
<ele>323.089996</ele>
<time>2023-05-10T16:58:23.738Z</time>
</trkpt>
<trkpt lat="32.5152800" lon="35.3723900">
<ele>322.899994</ele>
<time>2023-05-10T16:58:23.738Z</time>
</trkpt>
<trkpt lat="32.5152800" lon="35.3722200">
<ele>321.080017</ele>
<time>2023-05-10T16:58:23.738Z</time>
</trkpt>
<trkpt lat="32.5152700" lon="35.3717900">
<ele>317.119995</ele>
<time>2023-05-10T16:58:23.738Z</time>
</trkpt>
<trkpt lat="32.5152100" lon="35.3715500">
<ele>314.740021</ele>
<time>2023-05-10T16:58:23.738Z</time>
</trkpt>
<trkpt lat="32.5151600" lon="35.3713700">
<ele>313.359985</ele>
<time>2023-05-10T16:58:23.738Z</time>
</trkpt>
<trkpt lat="32.5151200" lon="35.3712700">
<ele>312.000000</ele>
<time>2023-05-10T16:58:23.738Z</time>
</trkpt>
<trkpt lat="32.5150900" lon="35.3711000">
<ele>311.270020</ele>
<time>2023-05-10T16:58:23.738Z</time>
</trkpt>
<trkpt lat="32.5150800" lon="35.3709300">
<ele>311.429993</ele>
<time>2023-05-10T16:58:23.738Z</time>
</trkpt>
<trkpt lat="32.5151300" lon="35.3705900">
<ele>312.399994</ele>
<time>2023-05-10T16:58:23.738Z</time>
</trkpt>
<trkpt lat="32.5151700" lon="35.3703400">
<ele>312.109985</ele>
<time>2023-05-10T16:58:23.738Z</time>
</trkpt>
<trkpt lat="32.5152200" lon="35.3702000">
<ele>312.319977</ele>
<time>2023-05-10T16:58:23.738Z</time>
</trkpt>
<trkpt lat="32.5153300" lon="35.3698900">
<ele>313.089996</ele>
<time>2023-05-10T16:58:23.738Z</time>
</trkpt>
<trkpt lat="32.5153800" lon="35.3696500">
<ele>312.310028</ele>
<time>2023-05-10T16:58:23.738Z</time>
</trkpt>
<trkpt lat="32.5154400" lon="35.3695700">
<ele>312.390015</ele>
<time>2023-05-10T16:58:23.738Z</time>
</trkpt>
<trkpt lat="32.5155400" lon="35.3695600">
<ele>313.269989</ele>
<time>2023-05-10T16:58:23.738Z</time>
</trkpt>
<trkpt lat="32.5156400" lon="35.3695000">
<ele>313.139984</ele>
<time>2023-05-10T16:58:23.738Z</time>
</trkpt>
<trkpt lat="32.5158200" lon="35.3694800">
<ele>312.659973</ele>
<time>2023-05-10T16:58:23.738Z</time>
</trkpt>
<trkpt lat="32.5159400" lon="35.3694100">
<ele>310.690002</ele>
<time>2023-05-10T16:58:23.738Z</time>
</trkpt>
<trkpt lat="32.5160900" lon="35.3694000">
<ele>309.360016</ele>
<time>2023-05-10T16:58:23.738Z</time>
</trkpt>
<trkpt lat="32.5162600" lon="35.3694100">
<ele>308.779999</ele>
<time>2023-05-10T16:58:23.739Z</time>
</trkpt>
<trkpt lat="32.5164400" lon="35.3695600">
<ele>311.360016</ele>
<time>2023-05-10T16:58:23.739Z</time>
</trkpt>
<trkpt lat="32.5165100" lon="35.3695900">
<ele>311.360016</ele>
<time>2023-05-10T16:58:23.739Z</time>
</trkpt>
<trkpt lat="32.5166000" lon="35.3696700">
<ele>312.399994</ele>
<time>2023-05-10T16:58:23.739Z</time>
</trkpt>
<trkpt lat="32.5166000" lon="35.3696700">
<ele>312.399994</ele>
<time>2023-05-10T16:58:23.739Z</time>
</trkpt>
<trkpt lat="32.5166000" lon="35.3696700">
<ele>312.399994</ele>
<time>2023-05-10T16:58:23.739Z</time>
</trkpt>
<trkpt lat="32.5166800" lon="35.3697400">
<ele>313.519989</ele>
<time>2023-05-10T16:58:23.739Z</time>
</trkpt>
<trkpt lat="32.5167900" lon="35.3697600">
<ele>313.660004</ele>
<time>2023-05-10T16:58:23.739Z</time>
</trkpt>
<trkpt lat="32.5168700" lon="35.3698300">
<ele>315.190002</ele>
<time>2023-05-10T16:58:23.739Z</time>
</trkpt>
<trkpt lat="32.5170500" lon="35.3698500">
<ele>314.600006</ele>
<time>2023-05-10T16:58:23.739Z</time>
</trkpt>
<trkpt lat="32.5171100" lon="35.3699100">
<ele>316.149994</ele>
<time>2023-05-10T16:58:23.739Z</time>
</trkpt>
<trkpt lat="32.5172100" lon="35.3699400">
<ele>316.869995</ele>
<time>2023-05-10T16:58:23.739Z</time>
</trkpt>
<trkpt lat="32.5172600" lon="35.3699900">
<ele>317.440002</ele>
<time>2023-05-10T16:58:23.739Z</time>
</trkpt>
<trkpt lat="32.5175900" lon="35.3700200">
<ele>308.750000</ele>
<time>2023-05-10T16:58:23.739Z</time>
</trkpt>
<trkpt lat="32.5176800" lon="35.3700800">
<ele>309.079987</ele>
<time>2023-05-10T16:58:23.739Z</time>
</trkpt>
<trkpt lat="32.5177400" lon="35.3701100">
<ele>309.059998</ele>
<time>2023-05-10T16:58:23.739Z</time>
</trkpt>
<trkpt lat="32.5178000" lon="35.3701700">
<ele>310.299988</ele>
<time>2023-05-10T16:58:23.739Z</time>
</trkpt>
<trkpt lat="32.5178600" lon="35.3701900">
<ele>309.949982</ele>
<time>2023-05-10T16:58:23.739Z</time>
</trkpt>
<trkpt lat="32.5179200" lon="35.3702500">
<ele>311.290009</ele>
<time>2023-05-10T16:58:23.739Z</time>
</trkpt>
<trkpt lat="32.5182000" lon="35.3702700">
<ele>308.729980</ele>
<time>2023-05-10T16:58:23.739Z</time>
</trkpt>
<trkpt lat="32.5182600" lon="35.3703200">
<ele>309.559998</ele>
<time>2023-05-10T16:58:23.739Z</time>
</trkpt>
<trkpt lat="32.5183600" lon="35.3703600">
<ele>309.640015</ele>
<time>2023-05-10T16:58:23.739Z</time>
</trkpt>
<trkpt lat="32.5184200" lon="35.3704100">
<ele>310.529999</ele>
<time>2023-05-10T16:58:23.739Z</time>
</trkpt>
<trkpt lat="32.5184800" lon="35.3704400">
<ele>311.059998</ele>
<time>2023-05-10T16:58:23.739Z</time>
</trkpt>
<trkpt lat="32.5186800" lon="35.3706700">
<ele>312.839996</ele>
<time>2023-05-10T16:58:23.740Z</time>
</trkpt>
<trkpt lat="32.5188300" lon="35.3707900">
<ele>309.380005</ele>
<time>2023-05-10T16:58:23.740Z</time>
</trkpt>
<trkpt lat="32.5189300" lon="35.3709000">
<ele>308.519989</ele>
<time>2023-05-10T16:58:23.740Z</time>
</trkpt>
<trkpt lat="32.5190200" lon="35.3710400">
<ele>309.279999</ele>
<time>2023-05-10T16:58:23.740Z</time>
</trkpt>
<trkpt lat="32.5192000" lon="35.3714500">
<ele>313.729980</ele>
<time>2023-05-10T16:58:23.740Z</time>
</trkpt>
<trkpt lat="32.5192900" lon="35.3715800">
<ele>315.000000</ele>
<time>2023-05-10T16:58:23.740Z</time>
</trkpt>
<trkpt lat="32.5193600" lon="35.3717300">
<ele>316.269989</ele>
<time>2023-05-10T16:58:23.740Z</time>
</trkpt>
<trkpt lat="32.5193600" lon="35.3718600">
<ele>317.629974</ele>
<time>2023-05-10T16:58:23.740Z</time>
</trkpt>
<trkpt lat="32.5193000" lon="35.3719600">
<ele>319.739990</ele>
<time>2023-05-10T16:58:23.740Z</time>
</trkpt>
<trkpt lat="32.5192400" lon="35.3720100">
<ele>321.210022</ele>
<time>2023-05-10T16:58:23.740Z</time>
</trkpt>
<trkpt lat="32.5192200" lon="35.3720900">
<ele>322.190002</ele>
<time>2023-05-10T16:58:23.740Z</time>
</trkpt>
<trkpt lat="32.5192400" lon="35.3721700">
<ele>322.519989</ele>
<time>2023-05-10T16:58:23.740Z</time>
</trkpt>
<trkpt lat="32.5192900" lon="35.3722800">
<ele>322.849976</ele>
<time>2023-05-10T16:58:23.740Z</time>
</trkpt>
<trkpt lat="32.5193000" lon="35.3724000">
<ele>323.999969</ele>
<time>2023-05-10T16:58:23.740Z</time>
</trkpt>
<trkpt lat="32.5192600" lon="35.3724800">
<ele>325.440002</ele>
<time>2023-05-10T16:58:23.740Z</time>
</trkpt>
<trkpt lat="32.5192300" lon="35.3724900">
<ele>325.979980</ele>
<time>2023-05-10T16:58:23.740Z</time>
</trkpt>
<trkpt lat="32.5190900" lon="35.3725100">
<ele>328.169983</ele>
<time>2023-05-10T16:58:23.740Z</time>
</trkpt>
<trkpt lat="32.5190600" lon="35.3725900">
<ele>329.229980</ele>
<time>2023-05-10T16:58:23.740Z</time>
</trkpt>
<trkpt lat="32.5190700" lon="35.3726700">
<ele>329.640015</ele>
<time>2023-05-10T16:58:23.740Z</time>
</trkpt>
<trkpt lat="32.5190900" lon="35.3727000">
<ele>329.420013</ele>
<time>2023-05-10T16:58:23.740Z</time>
</trkpt>
<trkpt lat="32.5190900" lon="35.3727000">
<ele>329.420013</ele>
<time>2023-05-10T16:58:23.740Z</time>
</trkpt>
<trkpt lat="32.5191300" lon="35.3727700">
<ele>328.880005</ele>
<time>2023-05-10T16:58:23.740Z</time>
</trkpt>
<trkpt lat="32.5193100" lon="35.3729900">
<ele>327.729980</ele>
<time>2023-05-10T16:58:23.740Z</time>
</trkpt>
<trkpt lat="32.5195000" lon="35.3732500">
<ele>327.839996</ele>
<time>2023-05-10T16:58:23.740Z</time>
</trkpt>
<trkpt lat="32.5195900" lon="35.3733000">
<ele>328.339996</ele>
<time>2023-05-10T16:58:23.740Z</time>
</trkpt>
<trkpt lat="32.5196500" lon="35.3733400">
<ele>328.820007</ele>
<time>2023-05-10T16:58:23.740Z</time>
</trkpt>
<trkpt lat="32.5197700" lon="35.3733700">
<ele>329.959991</ele>
<time>2023-05-10T16:58:23.740Z</time>
</trkpt>
<trkpt lat="32.5198100" lon="35.3734600">
<ele>331.600006</ele>
<time>2023-05-10T16:58:23.741Z</time>
</trkpt>
<trkpt lat="32.5197900" lon="35.3735400">
<ele>332.330017</ele>
<time>2023-05-10T16:58:23.741Z</time>
</trkpt>
<trkpt lat="32.5196800" lon="35.3736400">
<ele>332.609985</ele>
<time>2023-05-10T16:58:23.741Z</time>
</trkpt>
<trkpt lat="32.5196600" lon="35.3737100">
<ele>334.059967</ele>
<time>2023-05-10T16:58:23.741Z</time>
</trkpt>
<trkpt lat="32.5197600" lon="35.3736900">
<ele>334.350006</ele>
<time>2023-05-10T16:58:23.741Z</time>
</trkpt>
<trkpt lat="32.5198600" lon="35.3736200">
<ele>334.659973</ele>
<time>2023-05-10T16:58:23.741Z</time>
</trkpt>
<trkpt lat="32.5199700" lon="35.3736000">
<ele>336.270020</ele>
<time>2023-05-10T16:58:23.741Z</time>
</trkpt>
<trkpt lat="32.5201100" lon="35.3734700">
<ele>335.859985</ele>
<time>2023-05-10T16:58:23.741Z</time>
</trkpt>
<trkpt lat="32.5202300" lon="35.3733100">
<ele>336.039978</ele>
<time>2023-05-10T16:58:23.741Z</time>
</trkpt>
<trkpt lat="32.5205800" lon="35.3726200">
<ele>332.529999</ele>
<time>2023-05-10T16:58:23.741Z</time>
</trkpt>
<trkpt lat="32.5206600" lon="35.3723800">
<ele>332.430023</ele>
<time>2023-05-10T16:58:23.741Z</time>
</trkpt>
<trkpt lat="32.5206900" lon="35.3721700">
<ele>332.359985</ele>
<time>2023-05-10T16:58:23.741Z</time>
</trkpt>
<trkpt lat="32.5207500" lon="35.3718800">
<ele>336.130005</ele>
<time>2023-05-10T16:58:23.741Z</time>
</trkpt>
<trkpt lat="32.5207600" lon="35.3717900">
<ele>337.640015</ele>
<time>2023-05-10T16:58:23.741Z</time>
</trkpt>
<trkpt lat="32.5207300" lon="35.3714100">
<ele>339.459991</ele>
<time>2023-05-10T16:58:23.741Z</time>
</trkpt>
<trkpt lat="32.5206300" lon="35.3710500">
<ele>337.260010</ele>
<time>2023-05-10T16:58:23.741Z</time>
</trkpt>
<trkpt lat="32.5206300" lon="35.3705900">
<ele>335.810028</ele>
<time>2023-05-10T16:58:23.741Z</time>
</trkpt>
<trkpt lat="32.5206300" lon="35.3705900">
<ele>335.810028</ele>
<time>2023-05-10T16:58:23.741Z</time>
</trkpt>
<trkpt lat="32.5206300" lon="35.3705900">
<ele>335.810028</ele>
<time>2023-05-10T16:58:23.741Z</time>
</trkpt>
<trkpt lat="32.5206300" lon="35.3705300">
<ele>336.130005</ele>
<time>2023-05-10T16:58:23.741Z</time>
</trkpt>
<trkpt lat="32.5206000" lon="35.3703300">
<ele>337.430023</ele>
<time>2023-05-10T16:58:23.741Z</time>
</trkpt>
<trkpt lat="32.5205900" lon="35.3700300">
<ele>338.640015</ele>
<time>2023-05-10T16:58:23.741Z</time>
</trkpt>
<trkpt lat="32.5206000" lon="35.3697700">
<ele>339.660004</ele>
<time>2023-05-10T16:58:23.742Z</time>
</trkpt>
<trkpt lat="32.5205700" lon="35.3696100">
<ele>338.829987</ele>
<time>2023-05-10T16:58:23.742Z</time>
</trkpt>
<trkpt lat="32.5205400" lon="35.3693100">
<ele>336.809998</ele>
<time>2023-05-10T16:58:23.742Z</time>
</trkpt>
<trkpt lat="32.5206200" lon="35.3686300">
<ele>334.679993</ele>
<time>2023-05-10T16:58:23.742Z</time>
</trkpt>
<trkpt lat="32.5206300" lon="35.3683800">
<ele>335.250000</ele>
<time>2023-05-10T16:58:23.742Z</time>
</trkpt>
<trkpt lat="32.5206000" lon="35.3681300">
<ele>333.339996</ele>
<time>2023-05-10T16:58:23.742Z</time>
</trkpt>
<trkpt lat="32.5205200" lon="35.3678900">
<ele>330.500000</ele>
<time>2023-05-10T16:58:23.742Z</time>
</trkpt>
<trkpt lat="32.5205100" lon="35.3677600">
<ele>329.959991</ele>
<time>2023-05-10T16:58:23.742Z</time>
</trkpt>
<trkpt lat="32.5205300" lon="35.3674600">
<ele>329.050018</ele>
<time>2023-05-10T16:58:23.742Z</time>
</trkpt>
<trkpt lat="32.5205900" lon="35.3673100">
<ele>328.600006</ele>
<time>2023-05-10T16:58:23.742Z</time>
</trkpt>
<trkpt lat="32.5206500" lon="35.3672100">
<ele>328.610016</ele>
<time>2023-05-10T16:58:23.742Z</time>
</trkpt>
<trkpt lat="32.5207100" lon="35.3671600">
<ele>328.639984</ele>
<time>2023-05-10T16:58:23.742Z</time>
</trkpt>
<trkpt lat="32.5208300" lon="35.3670700">
<ele>328.350006</ele>
<time>2023-05-10T16:58:23.742Z</time>
</trkpt>
<trkpt lat="32.5209000" lon="35.3670400">
<ele>328.109985</ele>
<time>2023-05-10T16:58:23.742Z</time>
</trkpt>
<trkpt lat="32.5209500" lon="35.3670200">
<ele>327.930023</ele>
<time>2023-05-10T16:58:23.742Z</time>
</trkpt>
<trkpt lat="32.5210000" lon="35.3669800">
<ele>327.460022</ele>
<time>2023-05-10T16:58:23.742Z</time>
</trkpt>
<trkpt lat="32.5210800" lon="35.3669600">
<ele>327.220001</ele>
<time>2023-05-10T16:58:23.742Z</time>
</trkpt>
<trkpt lat="32.5211500" lon="35.3668200">
<ele>325.519989</ele>
<time>2023-05-10T16:58:23.742Z</time>
</trkpt>
<trkpt lat="32.5212300" lon="35.3667600">
<ele>324.920013</ele>
<time>2023-05-10T16:58:23.742Z</time>
</trkpt>
<trkpt lat="32.5213400" lon="35.3667300">
<ele>324.660004</ele>
<time>2023-05-10T16:58:23.742Z</time>
</trkpt>
<trkpt lat="32.5213900" lon="35.3666800">
<ele>323.410004</ele>
<time>2023-05-10T16:58:23.742Z</time>
</trkpt>
<trkpt lat="32.5215700" lon="35.3666300">
<ele>326.209991</ele>
<time>2023-05-10T16:58:23.742Z</time>
</trkpt>
<trkpt lat="32.5216200" lon="35.3665800">
<ele>326.220001</ele>
<time>2023-05-10T16:58:23.742Z</time>
</trkpt>
<trkpt lat="32.5216900" lon="35.3665600">
<ele>327.139984</ele>
<time>2023-05-10T16:58:23.742Z</time>
</trkpt>
<trkpt lat="32.5219400" lon="35.3663200">
<ele>325.690002</ele>
<time>2023-05-10T16:58:23.742Z</time>
</trkpt>
<trkpt lat="32.5220800" lon="35.3663000">
<ele>327.019989</ele>
<time>2023-05-10T16:58:23.742Z</time>
</trkpt>
<trkpt lat="32.5222100" lon="35.3662400">
<ele>327.700012</ele>
<time>2023-05-10T16:58:23.743Z</time>
</trkpt>
<trkpt lat="32.5223600" lon="35.3662200">
<ele>329.250000</ele>
<time>2023-05-10T16:58:23.743Z</time>
</trkpt>
<trkpt lat="32.5224400" lon="35.3661500">
<ele>329.019989</ele>
<time>2023-05-10T16:58:23.743Z</time>
</trkpt>
<trkpt lat="32.5224800" lon="35.3661400">
<ele>329.300018</ele>
<time>2023-05-10T16:58:23.743Z</time>
</trkpt>
<trkpt lat="32.5225900" lon="35.3661500">
<ele>330.720032</ele>
<time>2023-05-10T16:58:23.743Z</time>
</trkpt>
<trkpt lat="32.5226800" lon="35.3662100">
<ele>332.949982</ele>
<time>2023-05-10T16:58:23.743Z</time>
</trkpt>
<trkpt lat="32.5227100" lon="35.3662000">
<ele>333.110016</ele>
<time>2023-05-10T16:58:23.743Z</time>
</trkpt>
<trkpt lat="32.5228800" lon="35.3661200">
<ele>333.279999</ele>
<time>2023-05-10T16:58:23.743Z</time>
</trkpt>
<trkpt lat="32.5229300" lon="35.3660700">
<ele>332.900024</ele>
<time>2023-05-10T16:58:23.743Z</time>
</trkpt>
<trkpt lat="32.5230000" lon="35.3660400">
<ele>333.119995</ele>
<time>2023-05-10T16:58:23.743Z</time>
</trkpt>
<trkpt lat="32.5230600" lon="35.3659900">
<ele>332.860016</ele>
<time>2023-05-10T16:58:23.743Z</time>
</trkpt>
<trkpt lat="32.5232000" lon="35.3659600">
<ele>333.559998</ele>
<time>2023-05-10T16:58:23.743Z</time>
</trkpt>
<trkpt lat="32.5232500" lon="35.3659000">
<ele>332.770020</ele>
<time>2023-05-10T16:58:23.743Z</time>
</trkpt>
<trkpt lat="32.5233100" lon="35.3658700">
<ele>332.609985</ele>
<time>2023-05-10T16:58:23.743Z</time>
</trkpt>
<trkpt lat="32.5235300" lon="35.3656400">
<ele>329.660004</ele>
<time>2023-05-10T16:58:23.743Z</time>
</trkpt>
<trkpt lat="32.5237400" lon="35.3656100">
<ele>330.209991</ele>
<time>2023-05-10T16:58:23.743Z</time>
</trkpt>
<trkpt lat="32.5239300" lon="35.3654700">
<ele>329.179993</ele>
<time>2023-05-10T16:58:23.743Z</time>
</trkpt>
<trkpt lat="32.5240300" lon="35.3654700">
<ele>329.430023</ele>
<time>2023-05-10T16:58:23.743Z</time>
</trkpt>
<trkpt lat="32.5240500" lon="35.3655800">
<ele>331.209991</ele>
<time>2023-05-10T16:58:23.743Z</time>
</trkpt>
<trkpt lat="32.5241100" lon="35.3656900">
<ele>334.470001</ele>
<time>2023-05-10T16:58:23.743Z</time>
</trkpt>
<trkpt lat="32.5242500" lon="35.3657200">
<ele>335.929993</ele>
<time>2023-05-10T16:58:23.743Z</time>
</trkpt>
<trkpt lat="32.5243400" lon="35.3657800">
<ele>337.319977</ele>
<time>2023-05-10T16:58:23.743Z</time>
</trkpt>
<trkpt lat="32.5244100" lon="35.3657800">
<ele>337.260010</ele>
<time>2023-05-10T16:58:23.743Z</time>
</trkpt>
<trkpt lat="32.5244600" lon="35.3657200">
<ele>336.410004</ele>
<time>2023-05-10T16:58:23.743Z</time>
</trkpt>
<trkpt lat="32.5245300" lon="35.3656900">
<ele>336.250000</ele>
<time>2023-05-10T16:58:23.743Z</time>
</trkpt>
<trkpt lat="32.5245700" lon="35.3656300">
<ele>335.729980</ele>
<time>2023-05-10T16:58:23.743Z</time>
</trkpt>
<trkpt lat="32.5247900" lon="35.3654000">
<ele>333.509979</ele>
<time>2023-05-10T16:58:23.743Z</time>
</trkpt>
<trkpt lat="32.5249300" lon="35.3652100">
<ele>331.630005</ele>
<time>2023-05-10T16:58:23.744Z</time>
</trkpt>
<trkpt lat="32.5249200" lon="35.3652300">
<ele>331.649994</ele>
<time>2023-05-10T16:58:23.744Z</time>
</trkpt>
<trkpt lat="32.5249200" lon="35.3652300">
<ele>331.649994</ele>
<time>2023-05-10T16:58:23.744Z</time>
</trkpt>
<trkpt lat="32.5249300" lon="35.3652100">
<ele>331.630005</ele>
<time>2023-05-10T16:58:23.744Z</time>
</trkpt>
<trkpt lat="32.5249700" lon="35.3650100">
<ele>331.970001</ele>
<time>2023-05-10T16:58:23.744Z</time>
</trkpt>
<trkpt lat="32.5253400" lon="35.3640600">
<ele>334.860016</ele>
<time>2023-05-10T16:58:23.744Z</time>
</trkpt>
<trkpt lat="32.5251500" lon="35.3631500">
<ele>335.100006</ele>
<time>2023-05-10T16:58:23.744Z</time>
</trkpt>
<trkpt lat="32.5246700" lon="35.3627200">
<ele>338.129974</ele>
<time>2023-05-10T16:58:23.744Z</time>
</trkpt>
<trkpt lat="32.5243300" lon="35.3622700">
<ele>346.219971</ele>
<time>2023-05-10T16:58:23.744Z</time>
</trkpt>
<trkpt lat="32.5240900" lon="35.3615000">
<ele>344.259979</ele>
<time>2023-05-10T16:58:23.744Z</time>
</trkpt>
<trkpt lat="32.5240100" lon="35.3604800">
<ele>346.929993</ele>
<time>2023-05-10T16:58:23.744Z</time>
</trkpt>
<trkpt lat="32.5237300" lon="35.3598100">
<ele>342.279968</ele>
<time>2023-05-10T16:58:23.744Z</time>
</trkpt>
<trkpt lat="32.5232600" lon="35.3596200">
<ele>339.350006</ele>
<time>2023-05-10T16:58:23.744Z</time>
</trkpt>
<trkpt lat="32.5229600" lon="35.3595100">
<ele>335.910004</ele>
<time>2023-05-10T16:58:23.744Z</time>
</trkpt>
<trkpt lat="32.5226400" lon="35.3591900">
<ele>332.690033</ele>
<time>2023-05-10T16:58:23.744Z</time>
</trkpt>
<trkpt lat="32.5227800" lon="35.3589400">
<ele>337.650024</ele>
<time>2023-05-10T16:58:23.744Z</time>
</trkpt>
<trkpt lat="32.5226000" lon="35.3589100">
<ele>335.779999</ele>
<time>2023-05-10T16:58:23.744Z</time>
</trkpt>
<trkpt lat="32.5225100" lon="35.3588700">
<ele>335.309998</ele>
<time>2023-05-10T16:58:23.744Z</time>
</trkpt>
<trkpt lat="32.5224100" lon="35.3585800">
<ele>337.310028</ele>
<time>2023-05-10T16:58:23.744Z</time>
</trkpt>
<trkpt lat="32.5224100" lon="35.3585700">
<ele>337.300018</ele>
<time>2023-05-10T16:58:23.744Z</time>
</trkpt>
<trkpt lat="32.5223300" lon="35.3584200">
<ele>336.929993</ele>
<time>2023-05-10T16:58:23.744Z</time>
</trkpt>
<trkpt lat="32.5223000" lon="35.3582500">
<ele>336.480011</ele>
<time>2023-05-10T16:58:23.744Z</time>
</trkpt>
<trkpt lat="32.5222700" lon="35.3581300">
<ele>335.660004</ele>
<time>2023-05-10T16:58:23.744Z</time>
</trkpt>
<trkpt lat="32.5222800" lon="35.3579600">
<ele>334.940002</ele>
<time>2023-05-10T16:58:23.744Z</time>
</trkpt>
<trkpt lat="32.5222500" lon="35.3578400">
<ele>334.400024</ele>
<time>2023-05-10T16:58:23.745Z</time>
</trkpt>
<trkpt lat="32.5222600" lon="35.3577000">
<ele>333.710022</ele>
<time>2023-05-10T16:58:23.745Z</time>
</trkpt>
<trkpt lat="32.5222300" lon="35.3576800">
<ele>333.350006</ele>
<time>2023-05-10T16:58:23.745Z</time>
</trkpt>
<trkpt lat="32.5220500" lon="35.3578100">
<ele>335.829987</ele>
<time>2023-05-10T16:58:23.745Z</time>
</trkpt>
<trkpt lat="32.5219500" lon="35.3578500">
<ele>336.690002</ele>
<time>2023-05-10T16:58:23.745Z</time>
</trkpt>
<trkpt lat="32.5218700" lon="35.3578600">
<ele>337.959991</ele>
<time>2023-05-10T16:58:23.745Z</time>
</trkpt>
<trkpt lat="32.5218000" lon="35.3578600">
<ele>339.150024</ele>
<time>2023-05-10T16:58:23.745Z</time>
</trkpt>
<trkpt lat="32.5216000" lon="35.3579400">
<ele>340.789978</ele>
<time>2023-05-10T16:58:23.745Z</time>
</trkpt>
<trkpt lat="32.5213400" lon="35.3579500">
<ele>339.069977</ele>
<time>2023-05-10T16:58:23.745Z</time>
</trkpt>
<trkpt lat="32.5211400" lon="35.3578700">
<ele>334.809998</ele>
<time>2023-05-10T16:58:23.745Z</time>
</trkpt>
<trkpt lat="32.5209900" lon="35.3576800">
<ele>333.700012</ele>
<time>2023-05-10T16:58:23.745Z</time>
</trkpt>
<trkpt lat="32.5209800" lon="35.3576200">
<ele>333.859985</ele>
<time>2023-05-10T16:58:23.745Z</time>
</trkpt>
<trkpt lat="32.5209800" lon="35.3576200">
<ele>333.859985</ele>
<time>2023-05-10T16:58:23.745Z</time>
</trkpt>
<trkpt lat="32.5209700" lon="35.3575600">
<ele>334.000000</ele>
<time>2023-05-10T16:58:23.745Z</time>
</trkpt>
<trkpt lat="32.5210000" lon="35.3572600">
<ele>335.569977</ele>
<time>2023-05-10T16:58:23.745Z</time>
</trkpt>
<trkpt lat="32.5210900" lon="35.3570400">
<ele>339.820007</ele>
<time>2023-05-10T16:58:23.745Z</time>
</trkpt>
<trkpt lat="32.5211400" lon="35.3567900">
<ele>340.780029</ele>
<time>2023-05-10T16:58:23.745Z</time>
</trkpt>
<trkpt lat="32.5212300" lon="35.3565500">
<ele>337.799988</ele>
<time>2023-05-10T16:58:23.745Z</time>
</trkpt>
<trkpt lat="32.5212900" lon="35.3562600">
<ele>333.320007</ele>
<time>2023-05-10T16:58:23.745Z</time>
</trkpt>
<trkpt lat="32.5214200" lon="35.3560000">
<ele>329.860016</ele>
<time>2023-05-10T16:58:23.745Z</time>
</trkpt>
<trkpt lat="32.5215000" lon="35.3558100">
<ele>327.049988</ele>
<time>2023-05-10T16:58:23.745Z</time>
</trkpt>
<trkpt lat="32.5214900" lon="35.3556500">
<ele>325.020020</ele>
<time>2023-05-10T16:58:23.746Z</time>
</trkpt>
<trkpt lat="32.5219000" lon="35.3547600">
<ele>316.309998</ele>
<time>2023-05-10T16:58:23.746Z</time>
</trkpt>
<trkpt lat="32.5220600" lon="35.3542800">
<ele>317.720001</ele>
<time>2023-05-10T16:58:23.746Z</time>
</trkpt>
<trkpt lat="32.5220800" lon="35.3541200">
<ele>318.809998</ele>
<time>2023-05-10T16:58:23.746Z</time>
</trkpt>
<trkpt lat="32.5221200" lon="35.3540500">
<ele>318.320007</ele>
<time>2023-05-10T16:58:23.746Z</time>
</trkpt>
<trkpt lat="32.5222000" lon="35.3538600">
<ele>318.640015</ele>
<time>2023-05-10T16:58:23.746Z</time>
</trkpt>
<trkpt lat="32.5223400" lon="35.3534200">
<ele>309.470001</ele>
<time>2023-05-10T16:58:23.746Z</time>
</trkpt>
<trkpt lat="32.5223700" lon="35.3532500">
<ele>305.160004</ele>
<time>2023-05-10T16:58:23.746Z</time>
</trkpt>
<trkpt lat="32.5223700" lon="35.3531400">
<ele>302.630005</ele>
<time>2023-05-10T16:58:23.746Z</time>
</trkpt>
<trkpt lat="32.5223700" lon="35.3531400">
<ele>302.630005</ele>
<time>2023-05-10T16:58:23.746Z</time>
</trkpt>
<trkpt lat="32.5223700" lon="35.3531400">
<ele>302.630005</ele>
<time>2023-05-10T16:58:23.746Z</time>
</trkpt>
<trkpt lat="32.5223700" lon="35.3531400">
<ele>302.630005</ele>
<time>2023-05-10T16:58:23.746Z</time>
</trkpt>
<trkpt lat="32.5223700" lon="35.3529100">
<ele>298.339996</ele>
<time>2023-05-10T16:58:23.746Z</time>
</trkpt>
<trkpt lat="32.5223400" lon="35.3527000">
<ele>296.229980</ele>
<time>2023-05-10T16:58:23.746Z</time>
</trkpt>
<trkpt lat="32.5221800" lon="35.3522200">
<ele>298.029999</ele>
<time>2023-05-10T16:58:23.746Z</time>
</trkpt>
<trkpt lat="32.5220400" lon="35.3518800">
<ele>298.369995</ele>
<time>2023-05-10T16:58:23.746Z</time>
</trkpt>
<trkpt lat="32.5220300" lon="35.3518000">
<ele>297.690002</ele>
<time>2023-05-10T16:58:23.746Z</time>
</trkpt>
<trkpt lat="32.5219700" lon="35.3512000">
<ele>287.700012</ele>
<time>2023-05-10T16:58:23.746Z</time>
</trkpt>
<trkpt lat="32.5219300" lon="35.3509500">
<ele>287.539978</ele>
<time>2023-05-10T16:58:23.746Z</time>
</trkpt>
<trkpt lat="32.5219400" lon="35.3507800">
<ele>286.970001</ele>
<time>2023-05-10T16:58:23.746Z</time>
</trkpt>
<trkpt lat="32.5219400" lon="35.3502700">
<ele>284.179993</ele>
<time>2023-05-10T16:58:23.747Z</time>
</trkpt>
<trkpt lat="32.5218900" lon="35.3497600">
<ele>280.070007</ele>
<time>2023-05-10T16:58:23.747Z</time>
</trkpt>
<trkpt lat="32.5218300" lon="35.3494700">
<ele>281.510010</ele>
<time>2023-05-10T16:58:23.747Z</time>
</trkpt>
<trkpt lat="32.5216600" lon="35.3489500">
<ele>285.520020</ele>
<time>2023-05-10T16:58:23.747Z</time>
</trkpt>
<trkpt lat="32.5216200" lon="35.3487000">
<ele>285.660004</ele>
<time>2023-05-10T16:58:23.747Z</time>
</trkpt>
<trkpt lat="32.5216000" lon="35.3484400">
<ele>285.119995</ele>
<time>2023-05-10T16:58:23.747Z</time>
</trkpt>
<trkpt lat="32.5216100" lon="35.3482700">
<ele>283.830017</ele>
<time>2023-05-10T16:58:23.747Z</time>
</trkpt>
<trkpt lat="32.5216900" lon="35.3479900">
<ele>278.480011</ele>
<time>2023-05-10T16:58:23.747Z</time>
</trkpt>
<trkpt lat="32.5218800" lon="35.3475700">
<ele>268.209991</ele>
<time>2023-05-10T16:58:23.747Z</time>
</trkpt>
<trkpt lat="32.5220000" lon="35.3471200">
<ele>265.570007</ele>
<time>2023-05-10T16:58:23.747Z</time>
</trkpt>
<trkpt lat="32.5221200" lon="35.3468600">
<ele>262.420013</ele>
<time>2023-05-10T16:58:23.747Z</time>
</trkpt>
<trkpt lat="32.5222200" lon="35.3465900">
<ele>259.079987</ele>
<time>2023-05-10T16:58:23.747Z</time>
</trkpt>
<trkpt lat="32.5224400" lon="35.3455500">
<ele>258.059998</ele>
<time>2023-05-10T16:58:23.747Z</time>
</trkpt>
<trkpt lat="32.5224700" lon="35.3451700">
<ele>255.759995</ele>
<time>2023-05-10T16:58:23.747Z</time>
</trkpt>
<trkpt lat="32.5225300" lon="35.3448800">
<ele>251.559998</ele>
<time>2023-05-10T16:58:23.747Z</time>
</trkpt>
<trkpt lat="32.5225300" lon="35.3448000">
<ele>250.729996</ele>
<time>2023-05-10T16:58:23.747Z</time>
</trkpt>
<trkpt lat="32.5224100" lon="35.3445800">
<ele>250.110001</ele>
<time>2023-05-10T16:58:23.747Z</time>
</trkpt>
<trkpt lat="32.5221900" lon="35.3443100">
<ele>248.219986</ele>
<time>2023-05-10T16:58:23.747Z</time>
</trkpt>
<trkpt lat="32.5220800" lon="35.3441900">
<ele>247.599991</ele>
<time>2023-05-10T16:58:23.747Z</time>
</trkpt>
<trkpt lat="32.5217600" lon="35.3439200">
<ele>245.960007</ele>
<time>2023-05-10T16:58:23.747Z</time>
</trkpt>
<trkpt lat="32.5216600" lon="35.3438100">
<ele>244.500000</ele>
<time>2023-05-10T16:58:23.748Z</time>
</trkpt>
<trkpt lat="32.5214500" lon="35.3434100">
<ele>244.179993</ele>
<time>2023-05-10T16:58:23.748Z</time>
</trkpt>
<trkpt lat="32.5214300" lon="35.3432200">
<ele>241.479996</ele>
<time>2023-05-10T16:58:23.748Z</time>
</trkpt>
<trkpt lat="32.5214000" lon="35.3431200">
<ele>240.759995</ele>
<time>2023-05-10T16:58:23.748Z</time>
</trkpt>
<trkpt lat="32.5215100" lon="35.3429400">
<ele>233.919998</ele>
<time>2023-05-10T16:58:23.748Z</time>
</trkpt>
<trkpt lat="32.5216100" lon="35.3427300">
<ele>228.630005</ele>
<time>2023-05-10T16:58:23.748Z</time>
</trkpt>
<trkpt lat="32.5216200" lon="35.3425200">
<ele>228.489990</ele>
<time>2023-05-10T16:58:23.748Z</time>
</trkpt>
<trkpt lat="32.5217000" lon="35.3423800">
<ele>227.159988</ele>
<time>2023-05-10T16:58:23.748Z</time>
</trkpt>
<trkpt lat="32.5217700" lon="35.3422700">
<ele>225.400009</ele>
<time>2023-05-10T16:58:23.748Z</time>
</trkpt>
<trkpt lat="32.5218700" lon="35.3421500">
<ele>223.309998</ele>
<time>2023-05-10T16:58:23.748Z</time>
</trkpt>
<trkpt lat="32.5220100" lon="35.3419000">
<ele>221.839996</ele>
<time>2023-05-10T16:58:23.748Z</time>
</trkpt>
<trkpt lat="32.5221900" lon="35.3416900">
<ele>215.230011</ele>
<time>2023-05-10T16:58:23.748Z</time>
</trkpt>
<trkpt lat="32.5222900" lon="35.3415200">
<ele>210.899994</ele>
<time>2023-05-10T16:58:23.748Z</time>
</trkpt>
<trkpt lat="32.5224900" lon="35.3412200">
<ele>203.589996</ele>
<time>2023-05-10T16:58:23.748Z</time>
</trkpt>
<trkpt lat="32.5225600" lon="35.3410200">
<ele>204.059998</ele>
<time>2023-05-10T16:58:23.748Z</time>
</trkpt>
<trkpt lat="32.5226700" lon="35.3408000">
<ele>204.489990</ele>
<time>2023-05-10T16:58:23.748Z</time>
</trkpt>
<trkpt lat="32.5227200" lon="35.3406000">
<ele>205.669998</ele>
<time>2023-05-10T16:58:23.748Z</time>
</trkpt>
<trkpt lat="32.5228100" lon="35.3404700">
<ele>204.420013</ele>
<time>2023-05-10T16:58:23.748Z</time>
</trkpt>
<trkpt lat="32.5229500" lon="35.3401200">
<ele>200.959991</ele>
<time>2023-05-10T16:58:23.748Z</time>
</trkpt>
<trkpt lat="32.5230200" lon="35.3399800">
<ele>198.139999</ele>
<time>2023-05-10T16:58:23.748Z</time>
</trkpt>
<trkpt lat="32.5231000" lon="35.3396900">
<ele>195.029999</ele>
<time>2023-05-10T16:58:23.748Z</time>
</trkpt>
<trkpt lat="32.5231500" lon="35.3393100">
<ele>189.489990</ele>
<time>2023-05-10T16:58:23.748Z</time>
</trkpt>
<trkpt lat="32.5232400" lon="35.3389900">
<ele>181.210007</ele>
<time>2023-05-10T16:58:23.749Z</time>
</trkpt>
<trkpt lat="32.5232200" lon="35.3389100">
<ele>181.279999</ele>
<time>2023-05-10T16:58:23.749Z</time>
</trkpt>
<trkpt lat="32.5232300" lon="35.3388400">
<ele>180.699997</ele>
<time>2023-05-10T16:58:23.749Z</time>
</trkpt>
<trkpt lat="32.5232200" lon="35.3387600">
<ele>180.980011</ele>
<time>2023-05-10T16:58:23.749Z</time>
</trkpt>
<trkpt lat="32.5232200" lon="35.3385800">
<ele>180.630005</ele>
<time>2023-05-10T16:58:23.749Z</time>
</trkpt>
<trkpt lat="32.5233700" lon="35.3389700">
<ele>176.649994</ele>
<time>2023-05-10T16:58:23.749Z</time>
</trkpt>
<trkpt lat="32.5234600" lon="35.3397300">
<ele>182.839996</ele>
<time>2023-05-10T16:58:23.749Z</time>
</trkpt>
<trkpt lat="32.5234500" lon="35.3399400">
<ele>183.839996</ele>
<time>2023-05-10T16:58:23.749Z</time>
</trkpt>
<trkpt lat="32.5233600" lon="35.3403100">
<ele>189.690002</ele>
<time>2023-05-10T16:58:23.749Z</time>
</trkpt>
<trkpt lat="32.5233800" lon="35.3406500">
<ele>187.519989</ele>
<time>2023-05-10T16:58:23.749Z</time>
</trkpt>
<trkpt lat="32.5233300" lon="35.3412400">
<ele>184.989990</ele>
<time>2023-05-10T16:58:23.749Z</time>
</trkpt>
<trkpt lat="32.5233100" lon="35.3413700">
<ele>186.139999</ele>
<time>2023-05-10T16:58:23.749Z</time>
</trkpt>
<trkpt lat="32.5232400" lon="35.3416600">
<ele>190.259995</ele>
<time>2023-05-10T16:58:23.749Z</time>
</trkpt>
<trkpt lat="32.5232300" lon="35.3418300">
<ele>193.750000</ele>
<time>2023-05-10T16:58:23.749Z</time>
</trkpt>
<trkpt lat="32.5233000" lon="35.3419700">
<ele>195.639999</ele>
<time>2023-05-10T16:58:23.749Z</time>
</trkpt>
<trkpt lat="32.5234300" lon="35.3420400">
<ele>193.959991</ele>
<time>2023-05-10T16:58:23.749Z</time>
</trkpt>
<trkpt lat="32.5238600" lon="35.3420400">
<ele>191.210007</ele>
<time>2023-05-10T16:58:23.749Z</time>
</trkpt>
<trkpt lat="32.5239300" lon="35.3420400">
<ele>190.750000</ele>
<time>2023-05-10T16:58:23.749Z</time>
</trkpt>
<trkpt lat="32.5240400" lon="35.3420000">
<ele>189.020004</ele>
<time>2023-05-10T16:58:23.749Z</time>
</trkpt>
<trkpt lat="32.5242500" lon="35.3420000">
<ele>187.080002</ele>
<time>2023-05-10T16:58:23.749Z</time>
</trkpt>
<trkpt lat="32.5243200" lon="35.3420200">
<ele>186.970001</ele>
<time>2023-05-10T16:58:23.749Z</time>
</trkpt>
<trkpt lat="32.5244400" lon="35.3421100">
<ele>186.420013</ele>
<time>2023-05-10T16:58:23.749Z</time>
</trkpt>
<trkpt lat="32.5245900" lon="35.3422900">
<ele>184.589996</ele>
<time>2023-05-10T16:58:23.749Z</time>
</trkpt>
<trkpt lat="32.5246700" lon="35.3424400">
<ele>183.440002</ele>
<time>2023-05-10T16:58:23.749Z</time>
</trkpt>
<trkpt lat="32.5247500" lon="35.3426700">
<ele>183.299988</ele>
<time>2023-05-10T16:58:23.749Z</time>
</trkpt>
<trkpt lat="32.5248300" lon="35.3430000">
<ele>186.250015</ele>
<time>2023-05-10T16:58:23.750Z</time>
</trkpt>
<trkpt lat="32.5249200" lon="35.3432300">
<ele>185.900009</ele>
<time>2023-05-10T16:58:23.750Z</time>
</trkpt>
<trkpt lat="32.5249900" lon="35.3434400">
<ele>183.879990</ele>
<time>2023-05-10T16:58:23.750Z</time>
</trkpt>
<trkpt lat="32.5250100" lon="35.3436100">
<ele>182.120010</ele>
<time>2023-05-10T16:58:23.750Z</time>
</trkpt>
<trkpt lat="32.5250100" lon="35.3436200">
<ele>182.199997</ele>
<time>2023-05-10T16:58:23.750Z</time>
</trkpt>
<trkpt lat="32.5250200" lon="35.3436400">
<ele>182.520004</ele>
<time>2023-05-10T16:58:23.750Z</time>
</trkpt>
<trkpt lat="32.5250300" lon="35.3437800">
<ele>184.080002</ele>
<time>2023-05-10T16:58:23.750Z</time>
</trkpt>
<trkpt lat="32.5250400" lon="35.3438100">
<ele>184.479996</ele>
<time>2023-05-10T16:58:23.750Z</time>
</trkpt>
<trkpt lat="32.5250700" lon="35.3438400">
<ele>185.020004</ele>
<time>2023-05-10T16:58:23.750Z</time>
</trkpt>
<trkpt lat="32.5251400" lon="35.3438300">
<ele>185.480011</ele>
<time>2023-05-10T16:58:23.750Z</time>
</trkpt>
<trkpt lat="32.5253300" lon="35.3437200">
<ele>186.309998</ele>
<time>2023-05-10T16:58:23.750Z</time>
</trkpt>
<trkpt lat="32.5253800" lon="35.3436500">
<ele>186.120010</ele>
<time>2023-05-10T16:58:23.750Z</time>
</trkpt>
<trkpt lat="32.5254700" lon="35.3433700">
<ele>184.250000</ele>
<time>2023-05-10T16:58:23.750Z</time>
</trkpt>
<trkpt lat="32.5257200" lon="35.3427600">
<ele>180.029999</ele>
<time>2023-05-10T16:58:23.750Z</time>
</trkpt>
<trkpt lat="32.5257500" lon="35.3427400">
<ele>180.089996</ele>
<time>2023-05-10T16:58:23.750Z</time>
</trkpt>
<trkpt lat="32.5257700" lon="35.3427700">
<ele>180.479996</ele>
<time>2023-05-10T16:58:23.750Z</time>
</trkpt>
<trkpt lat="32.5257800" lon="35.3428100">
<ele>181.110001</ele>
<time>2023-05-10T16:58:23.750Z</time>
</trkpt>
<trkpt lat="32.5257800" lon="35.3428500">
<ele>181.720001</ele>
<time>2023-05-10T16:58:23.750Z</time>
</trkpt>
<trkpt lat="32.5257500" lon="35.3430200">
<ele>183.709991</ele>
<time>2023-05-10T16:58:23.750Z</time>
</trkpt>
<trkpt lat="32.5257600" lon="35.3431900">
<ele>186.220001</ele>
<time>2023-05-10T16:58:23.750Z</time>
</trkpt>
<trkpt lat="32.5257800" lon="35.3432200">
<ele>187.100006</ele>
<time>2023-05-10T16:58:23.750Z</time>
</trkpt>
<trkpt lat="32.5258200" lon="35.3432200">
<ele>188.049988</ele>
<time>2023-05-10T16:58:23.751Z</time>
</trkpt>
<trkpt lat="32.5258700" lon="35.3431800">
<ele>188.759995</ele>
<time>2023-05-10T16:58:23.751Z</time>
</trkpt>
<trkpt lat="32.5259600" lon="35.3429900">
<ele>187.559998</ele>
<time>2023-05-10T16:58:23.751Z</time>
</trkpt>
<trkpt lat="32.5260400" lon="35.3427500">
<ele>185.190002</ele>
<time>2023-05-10T16:58:23.751Z</time>
</trkpt>
<trkpt lat="32.5262400" lon="35.3424000">
<ele>187.860001</ele>
<time>2023-05-10T16:58:23.751Z</time>
</trkpt>
<trkpt lat="32.5264000" lon="35.3420200">
<ele>188.600006</ele>
<time>2023-05-10T16:58:23.751Z</time>
</trkpt>
<trkpt lat="32.5264700" lon="35.3418200">
<ele>191.559998</ele>
<time>2023-05-10T16:58:23.751Z</time>
</trkpt>
<trkpt lat="32.5265400" lon="35.3417200">
<ele>195.250000</ele>
<time>2023-05-10T16:58:23.751Z</time>
</trkpt>
<trkpt lat="32.5265700" lon="35.3417100">
<ele>196.610016</ele>
<time>2023-05-10T16:58:23.751Z</time>
</trkpt>
<trkpt lat="32.5266000" lon="35.3417400">
<ele>197.789993</ele>
<time>2023-05-10T16:58:23.751Z</time>
</trkpt>
<trkpt lat="32.5266000" lon="35.3417800">
<ele>197.610001</ele>
<time>2023-05-10T16:58:23.751Z</time>
</trkpt>
<trkpt lat="32.5266000" lon="35.3418700">
<ele>197.210007</ele>
<time>2023-05-10T16:58:23.751Z</time>
</trkpt>
<trkpt lat="32.5265500" lon="35.3423300">
<ele>199.059998</ele>
<time>2023-05-10T16:58:23.751Z</time>
</trkpt>
<trkpt lat="32.5265100" lon="35.3424500">
<ele>198.800003</ele>
<time>2023-05-10T16:58:23.751Z</time>
</trkpt>
<trkpt lat="32.5264100" lon="35.3429500">
<ele>201.819992</ele>
<time>2023-05-10T16:58:23.751Z</time>
</trkpt>
<trkpt lat="32.5264200" lon="35.3431100">
<ele>203.289993</ele>
<time>2023-05-10T16:58:23.751Z</time>
</trkpt>
<trkpt lat="32.5265200" lon="35.3428800">
<ele>204.209991</ele>
<time>2023-05-10T16:58:23.751Z</time>
</trkpt>
<trkpt lat="32.5266100" lon="35.3427500">
<ele>205.309998</ele>
<time>2023-05-10T16:58:23.751Z</time>
</trkpt>
<trkpt lat="32.5268700" lon="35.3421900">
<ele>208.850006</ele>
<time>2023-05-10T16:58:23.751Z</time>
</trkpt>
<trkpt lat="32.5269600" lon="35.3419600">
<ele>212.289993</ele>
<time>2023-05-10T16:58:23.751Z</time>
</trkpt>
<trkpt lat="32.5270100" lon="35.3419000">
<ele>213.260010</ele>
<time>2023-05-10T16:58:23.752Z</time>
</trkpt>
<trkpt lat="32.5270200" lon="35.3418700">
<ele>213.360001</ele>
<time>2023-05-10T16:58:23.752Z</time>
</trkpt>
<trkpt lat="32.5270400" lon="35.3419500">
<ele>214.059998</ele>
<time>2023-05-10T16:58:23.752Z</time>
</trkpt>
<trkpt lat="32.5270300" lon="35.3420300">
<ele>213.730011</ele>
<time>2023-05-10T16:58:23.752Z</time>
</trkpt>
<trkpt lat="32.5269000" lon="35.3427000">
<ele>212.080002</ele>
<time>2023-05-10T16:58:23.752Z</time>
</trkpt>
<trkpt lat="32.5268800" lon="35.3431600">
<ele>215.360001</ele>
<time>2023-05-10T16:58:23.752Z</time>
</trkpt>
<trkpt lat="32.5268600" lon="35.3432400">
<ele>215.500000</ele>
<time>2023-05-10T16:58:23.752Z</time>
</trkpt>
<trkpt lat="32.5266300" lon="35.3437300">
<ele>215.160004</ele>
<time>2023-05-10T16:58:23.752Z</time>
</trkpt>
<trkpt lat="32.5265600" lon="35.3439700">
<ele>217.670013</ele>
<time>2023-05-10T16:58:23.752Z</time>
</trkpt>
<trkpt lat="32.5264500" lon="35.3441900">
<ele>220.470001</ele>
<time>2023-05-10T16:58:23.752Z</time>
</trkpt>
<trkpt lat="32.5264200" lon="35.3443100">
<ele>221.739990</ele>
<time>2023-05-10T16:58:23.752Z</time>
</trkpt>
<trkpt lat="32.5264400" lon="35.3444400">
<ele>224.220001</ele>
<time>2023-05-10T16:58:23.752Z</time>
</trkpt>
<trkpt lat="32.5264600" lon="35.3443600">
<ele>223.419998</ele>
<time>2023-05-10T16:58:23.752Z</time>
</trkpt>
<trkpt lat="32.5265400" lon="35.3441800">
<ele>221.959991</ele>
<time>2023-05-10T16:58:23.752Z</time>
</trkpt>
<trkpt lat="32.5267600" lon="35.3439000">
<ele>218.959991</ele>
<time>2023-05-10T16:58:23.752Z</time>
</trkpt>
<trkpt lat="32.5268800" lon="35.3438100">
<ele>219.839996</ele>
<time>2023-05-10T16:58:23.752Z</time>
</trkpt>
<trkpt lat="32.5272500" lon="35.3434000">
<ele>224.050003</ele>
<time>2023-05-10T16:58:23.752Z</time>
</trkpt>
<trkpt lat="32.5273600" lon="35.3432200">
<ele>225.480011</ele>
<time>2023-05-10T16:58:23.752Z</time>
</trkpt>
<trkpt lat="32.5276000" lon="35.3428600">
<ele>226.299988</ele>
<time>2023-05-10T16:58:23.752Z</time>
</trkpt>
<trkpt lat="32.5277000" lon="35.3428600">
<ele>226.299988</ele>
<time>2023-05-10T16:58:23.752Z</time>
</trkpt>
<trkpt lat="32.5277000" lon="35.3429500">
<ele>226.620010</ele>
<time>2023-05-10T16:58:23.753Z</time>
</trkpt>
<trkpt lat="32.5277000" lon="35.3430600">
<ele>227.040009</ele>
<time>2023-05-10T16:58:23.753Z</time>
</trkpt>
<trkpt lat="32.5277200" lon="35.3432800">
<ele>229.089996</ele>
<time>2023-05-10T16:58:23.753Z</time>
</trkpt>
<trkpt lat="32.5277300" lon="35.3439400">
<ele>241.539993</ele>
<time>2023-05-10T16:58:23.753Z</time>
</trkpt>
<trkpt lat="32.5277300" lon="35.3440500">
<ele>242.399994</ele>
<time>2023-05-10T16:58:23.753Z</time>
</trkpt>
<trkpt lat="32.5276300" lon="35.3441400">
<ele>241.629990</ele>
<time>2023-05-10T16:58:23.753Z</time>
</trkpt>
<trkpt lat="32.5275400" lon="35.3442000">
<ele>241.160004</ele>
<time>2023-05-10T16:58:23.753Z</time>
</trkpt>
<trkpt lat="32.5274900" lon="35.3443200">
<ele>242.540009</ele>
<time>2023-05-10T16:58:23.753Z</time>
</trkpt>
<trkpt lat="32.5274400" lon="35.3446500">
<ele>246.979996</ele>
<time>2023-05-10T16:58:23.753Z</time>
</trkpt>
<trkpt lat="32.5274700" lon="35.3448500">
<ele>248.720001</ele>
<time>2023-05-10T16:58:23.753Z</time>
</trkpt>
<trkpt lat="32.5274700" lon="35.3448500">
<ele>248.720001</ele>
<time>2023-05-10T16:58:23.753Z</time>
</trkpt>
<trkpt lat="32.5274700" lon="35.3449000">
<ele>248.779999</ele>
<time>2023-05-10T16:58:23.753Z</time>
</trkpt>
<trkpt lat="32.5274200" lon="35.3450100">
<ele>248.680008</ele>
<time>2023-05-10T16:58:23.753Z</time>
</trkpt>
<trkpt lat="32.5274000" lon="35.3451400">
<ele>248.360001</ele>
<time>2023-05-10T16:58:23.753Z</time>
</trkpt>
<trkpt lat="32.5273700" lon="35.3452100">
<ele>248.440002</ele>
<time>2023-05-10T16:58:23.753Z</time>
</trkpt>
<trkpt lat="32.5273100" lon="35.3452600">
<ele>249.000000</ele>
<time>2023-05-10T16:58:23.753Z</time>
</trkpt>
<trkpt lat="32.5272100" lon="35.3453000">
<ele>250.130005</ele>
<time>2023-05-10T16:58:23.753Z</time>
</trkpt>
<trkpt lat="32.5271700" lon="35.3453700">
<ele>250.729996</ele>
<time>2023-05-10T16:58:23.753Z</time>
</trkpt>
<trkpt lat="32.5271600" lon="35.3454500">
<ele>251.570007</ele>
<time>2023-05-10T16:58:23.753Z</time>
</trkpt>
<trkpt lat="32.5272000" lon="35.3455700">
<ele>252.349991</ele>
<time>2023-05-10T16:58:23.753Z</time>
</trkpt>
<trkpt lat="32.5271900" lon="35.3456500">
<ele>253.070007</ele>
<time>2023-05-10T16:58:23.753Z</time>
</trkpt>
<trkpt lat="32.5271400" lon="35.3457000">
<ele>254.080002</ele>
<time>2023-05-10T16:58:23.753Z</time>
</trkpt>
<trkpt lat="32.5270500" lon="35.3458300">
<ele>256.450012</ele>
<time>2023-05-10T16:58:23.753Z</time>
</trkpt>
<trkpt lat="32.5270300" lon="35.3460000">
<ele>255.839996</ele>
<time>2023-05-10T16:58:23.753Z</time>
</trkpt>
<trkpt lat="32.5269800" lon="35.3461600">
<ele>256.580017</ele>
<time>2023-05-10T16:58:23.753Z</time>
</trkpt>
<trkpt lat="32.5269300" lon="35.3462200">
<ele>257.660004</ele>
<time>2023-05-10T16:58:23.754Z</time>
</trkpt>
<trkpt lat="32.5268300" lon="35.3462400">
<ele>258.080017</ele>
<time>2023-05-10T16:58:23.754Z</time>
</trkpt>
<trkpt lat="32.5267700" lon="35.3462900">
<ele>258.750000</ele>
<time>2023-05-10T16:58:23.754Z</time>
</trkpt>
<trkpt lat="32.5267600" lon="35.3463700">
<ele>259.500000</ele>
<time>2023-05-10T16:58:23.754Z</time>
</trkpt>
<trkpt lat="32.5268600" lon="35.3464900">
<ele>257.679993</ele>
<time>2023-05-10T16:58:23.754Z</time>
</trkpt>
<trkpt lat="32.5268800" lon="35.3465300">
<ele>256.990021</ele>
<time>2023-05-10T16:58:23.754Z</time>
</trkpt>
<trkpt lat="32.5268700" lon="35.3465700">
<ele>256.990021</ele>
<time>2023-05-10T16:58:23.754Z</time>
</trkpt>
<trkpt lat="32.5268100" lon="35.3466300">
<ele>258.429993</ele>
<time>2023-05-10T16:58:23.754Z</time>
</trkpt>
<trkpt lat="32.5267300" lon="35.3467700">
<ele>260.520020</ele>
<time>2023-05-10T16:58:23.754Z</time>
</trkpt>
<trkpt lat="32.5265500" lon="35.3469000">
<ele>263.990021</ele>
<time>2023-05-10T16:58:23.754Z</time>
</trkpt>
<trkpt lat="32.5264800" lon="35.3469900">
<ele>264.910004</ele>
<time>2023-05-10T16:58:23.754Z</time>
</trkpt>
<trkpt lat="32.5264400" lon="35.3471600">
<ele>265.160004</ele>
<time>2023-05-10T16:58:23.754Z</time>
</trkpt>
<trkpt lat="32.5263700" lon="35.3472600">
<ele>265.550018</ele>
<time>2023-05-10T16:58:23.754Z</time>
</trkpt>
<trkpt lat="32.5263700" lon="35.3473000">
<ele>265.440002</ele>
<time>2023-05-10T16:58:23.754Z</time>
</trkpt>
<trkpt lat="32.5263600" lon="35.3474700">
<ele>264.869995</ele>
<time>2023-05-10T16:58:23.754Z</time>
</trkpt>
<trkpt lat="32.5264000" lon="35.3476800">
<ele>265.339996</ele>
<time>2023-05-10T16:58:23.754Z</time>
</trkpt>
<trkpt lat="32.5263900" lon="35.3477600">
<ele>265.899994</ele>
<time>2023-05-10T16:58:23.754Z</time>
</trkpt>
<trkpt lat="32.5261600" lon="35.3480900">
<ele>265.350006</ele>
<time>2023-05-10T16:58:23.754Z</time>
</trkpt>
<trkpt lat="32.5260100" lon="35.3485700">
<ele>267.500000</ele>
<time>2023-05-10T16:58:23.754Z</time>
</trkpt>
<trkpt lat="32.5260200" lon="35.3487000">
<ele>267.529999</ele>
<time>2023-05-10T16:58:23.754Z</time>
</trkpt>
<trkpt lat="32.5260600" lon="35.3488100">
<ele>266.470001</ele>
<time>2023-05-10T16:58:23.754Z</time>
</trkpt>
<trkpt lat="32.5260500" lon="35.3489800">
<ele>266.679993</ele>
<time>2023-05-10T16:58:23.754Z</time>
</trkpt>
<trkpt lat="32.5260700" lon="35.3491500">
<ele>266.309998</ele>
<time>2023-05-10T16:58:23.754Z</time>
</trkpt>
<trkpt lat="32.5261900" lon="35.3493600">
<ele>268.080017</ele>
<time>2023-05-10T16:58:23.754Z</time>
</trkpt>
<trkpt lat="32.5262100" lon="35.3489900">
<ele>262.059998</ele>
<time>2023-05-10T16:58:23.754Z</time>
</trkpt>
<trkpt lat="32.5262900" lon="35.3488100">
<ele>259.669983</ele>
<time>2023-05-10T16:58:23.755Z</time>
</trkpt>
<trkpt lat="32.5264800" lon="35.3492300">
<ele>259.929993</ele>
<time>2023-05-10T16:58:23.755Z</time>
</trkpt>
<trkpt lat="32.5265100" lon="35.3492600">
<ele>260.679993</ele>
<time>2023-05-10T16:58:23.755Z</time>
</trkpt>
<trkpt lat="32.5267100" lon="35.3493600">
<ele>261.839996</ele>
<time>2023-05-10T16:58:23.755Z</time>
</trkpt>
<trkpt lat="32.5268200" lon="35.3493700">
<ele>260.339996</ele>
<time>2023-05-10T16:58:23.755Z</time>
</trkpt>
<trkpt lat="32.5268500" lon="35.3493400">
<ele>259.559998</ele>
<time>2023-05-10T16:58:23.755Z</time>
</trkpt>
<trkpt lat="32.5268500" lon="35.3493100">
<ele>259.240021</ele>
<time>2023-05-10T16:58:23.755Z</time>
</trkpt>
<trkpt lat="32.5268500" lon="35.3492700">
<ele>258.799988</ele>
<time>2023-05-10T16:58:23.755Z</time>
</trkpt>
<trkpt lat="32.5266600" lon="35.3490100">
<ele>256.200012</ele>
<time>2023-05-10T16:58:23.755Z</time>
</trkpt>
<trkpt lat="32.5266300" lon="35.3489300">
<ele>254.949997</ele>
<time>2023-05-10T16:58:23.755Z</time>
</trkpt>
<trkpt lat="32.5266600" lon="35.3489100">
<ele>254.419998</ele>
<time>2023-05-10T16:58:23.755Z</time>
</trkpt>
<trkpt lat="32.5267300" lon="35.3489200">
<ele>254.510010</ele>
<time>2023-05-10T16:58:23.755Z</time>
</trkpt>
<trkpt lat="32.5270100" lon="35.3490100">
<ele>254.729996</ele>
<time>2023-05-10T16:58:23.755Z</time>
</trkpt>
<trkpt lat="32.5271100" lon="35.3490200">
<ele>253.940002</ele>
<time>2023-05-10T16:58:23.755Z</time>
</trkpt>
<trkpt lat="32.5271400" lon="35.3490000">
<ele>253.509995</ele>
<time>2023-05-10T16:58:23.755Z</time>
</trkpt>
<trkpt lat="32.5271600" lon="35.3488800">
<ele>252.270004</ele>
<time>2023-05-10T16:58:23.755Z</time>
</trkpt>
<trkpt lat="32.5270700" lon="35.3487000">
<ele>248.580002</ele>
<time>2023-05-10T16:58:23.755Z</time>
</trkpt>
<trkpt lat="32.5270300" lon="35.3486200">
<ele>246.529999</ele>
<time>2023-05-10T16:58:23.755Z</time>
</trkpt>
<trkpt lat="32.5270300" lon="35.3485800">
<ele>245.600006</ele>
<time>2023-05-10T16:58:23.755Z</time>
</trkpt>
<trkpt lat="32.5271000" lon="35.3485700">
<ele>245.589996</ele>
<time>2023-05-10T16:58:23.755Z</time>
</trkpt>
<trkpt lat="32.5273900" lon="35.3487300">
<ele>245.770004</ele>
<time>2023-05-10T16:58:23.755Z</time>
</trkpt>
<trkpt lat="32.5273400" lon="35.3485800">
<ele>243.860001</ele>
<time>2023-05-10T16:58:23.755Z</time>
</trkpt>
<trkpt lat="32.5272700" lon="35.3485400">
<ele>244.349991</ele>
<time>2023-05-10T16:58:23.755Z</time>
</trkpt>
<trkpt lat="32.5272400" lon="35.3484700">
<ele>243.189987</ele>
<time>2023-05-10T16:58:23.755Z</time>
</trkpt>
<trkpt lat="32.5272400" lon="35.3484300">
<ele>242.220001</ele>
<time>2023-05-10T16:58:23.755Z</time>
</trkpt>
<trkpt lat="32.5272600" lon="35.3484000">
<ele>241.280014</ele>
<time>2023-05-10T16:58:23.755Z</time>
</trkpt>
<trkpt lat="32.5273000" lon="35.3484000">
<ele>240.850006</ele>
<time>2023-05-10T16:58:23.756Z</time>
</trkpt>
<trkpt lat="32.5274600" lon="35.3484800">
<ele>240.179993</ele>
<time>2023-05-10T16:58:23.756Z</time>
</trkpt>
<trkpt lat="32.5275700" lon="35.3485000">
<ele>238.190002</ele>
<time>2023-05-10T16:58:23.756Z</time>
</trkpt>
<trkpt lat="32.5276000" lon="35.3484900">
<ele>237.309998</ele>
<time>2023-05-10T16:58:23.756Z</time>
</trkpt>
<trkpt lat="32.5276400" lon="35.3484200">
<ele>234.839996</ele>
<time>2023-05-10T16:58:23.756Z</time>
</trkpt>
<trkpt lat="32.5276300" lon="35.3483300">
<ele>233.250000</ele>
<time>2023-05-10T16:58:23.756Z</time>
</trkpt>
<trkpt lat="32.5275600" lon="35.3481900">
<ele>232.270004</ele>
<time>2023-05-10T16:58:23.756Z</time>
</trkpt>
<trkpt lat="32.5275500" lon="35.3480600">
<ele>229.210007</ele>
<time>2023-05-10T16:58:23.756Z</time>
</trkpt>
<trkpt lat="32.5275700" lon="35.3480300">
<ele>228.399994</ele>
<time>2023-05-10T16:58:23.756Z</time>
</trkpt>
<trkpt lat="32.5276000" lon="35.3480300">
<ele>227.909988</ele>
<time>2023-05-10T16:58:23.756Z</time>
</trkpt>
<trkpt lat="32.5277500" lon="35.3481400">
<ele>226.559998</ele>
<time>2023-05-10T16:58:23.756Z</time>
</trkpt>
<trkpt lat="32.5278200" lon="35.3481200">
<ele>225.310013</ele>
<time>2023-05-10T16:58:23.756Z</time>
</trkpt>
<trkpt lat="32.5278600" lon="35.3480500">
<ele>224.090012</ele>
<time>2023-05-10T16:58:23.756Z</time>
</trkpt>
<trkpt lat="32.5278600" lon="35.3480100">
<ele>223.970001</ele>
<time>2023-05-10T16:58:23.756Z</time>
</trkpt>
<trkpt lat="32.5278400" lon="35.3477600">
<ele>223.380005</ele>
<time>2023-05-10T16:58:23.756Z</time>
</trkpt>
<trkpt lat="32.5278500" lon="35.3476300">
<ele>221.190002</ele>
<time>2023-05-10T16:58:23.756Z</time>
</trkpt>
<trkpt lat="32.5278800" lon="35.3476000">
<ele>220.300003</ele>
<time>2023-05-10T16:58:23.756Z</time>
</trkpt>
<trkpt lat="32.5279400" lon="35.3475800">
<ele>219.179993</ele>
<time>2023-05-10T16:58:23.756Z</time>
</trkpt>
<trkpt lat="32.5282700" lon="35.3475900">
<ele>212.720001</ele>
<time>2023-05-10T16:58:23.756Z</time>
</trkpt>
<trkpt lat="32.5283400" lon="35.3475700">
<ele>210.759995</ele>
<time>2023-05-10T16:58:23.756Z</time>
</trkpt>
<trkpt lat="32.5283600" lon="35.3475400">
<ele>209.969986</ele>
<time>2023-05-10T16:58:23.756Z</time>
</trkpt>
<trkpt lat="32.5283700" lon="35.3474600">
<ele>208.250000</ele>
<time>2023-05-10T16:58:23.756Z</time>
</trkpt>
<trkpt lat="32.5282800" lon="35.3472300">
<ele>206.830002</ele>
<time>2023-05-10T16:58:23.756Z</time>
</trkpt>
<trkpt lat="32.5282400" lon="35.3469800">
<ele>208.879990</ele>
<time>2023-05-10T16:58:23.756Z</time>
</trkpt>
<trkpt lat="32.5282800" lon="35.3467700">
<ele>208.460007</ele>
<time>2023-05-10T16:58:23.757Z</time>
</trkpt>
<trkpt lat="32.5283500" lon="35.3466200">
<ele>207.520004</ele>
<time>2023-05-10T16:58:23.757Z</time>
</trkpt>
<trkpt lat="32.5284000" lon="35.3465700">
<ele>206.080002</ele>
<time>2023-05-10T16:58:23.757Z</time>
</trkpt>
<trkpt lat="32.5284400" lon="35.3465700">
<ele>204.930008</ele>
<time>2023-05-10T16:58:23.757Z</time>
</trkpt>
<trkpt lat="32.5287600" lon="35.3465900">
<ele>198.239990</ele>
<time>2023-05-10T16:58:23.757Z</time>
</trkpt>
<trkpt lat="32.5288600" lon="35.3465500">
<ele>196.940002</ele>
<time>2023-05-10T16:58:23.757Z</time>
</trkpt>
<trkpt lat="32.5289400" lon="35.3464000">
<ele>195.339996</ele>
<time>2023-05-10T16:58:23.757Z</time>
</trkpt>
<trkpt lat="32.5289400" lon="35.3461900">
<ele>191.819992</ele>
<time>2023-05-10T16:58:23.757Z</time>
</trkpt>
<trkpt lat="32.5289700" lon="35.3460200">
<ele>190.029999</ele>
<time>2023-05-10T16:58:23.757Z</time>
</trkpt>
<trkpt lat="32.5289900" lon="35.3459900">
<ele>189.750000</ele>
<time>2023-05-10T16:58:23.757Z</time>
</trkpt>
<trkpt lat="32.5290100" lon="35.3459600">
<ele>189.449997</ele>
<time>2023-05-10T16:58:23.757Z</time>
</trkpt>
<trkpt lat="32.5291100" lon="35.3459300">
<ele>188.090012</ele>
<time>2023-05-10T16:58:23.757Z</time>
</trkpt>
<trkpt lat="32.5292600" lon="35.3459300">
<ele>186.240005</ele>
<time>2023-05-10T16:58:23.757Z</time>
</trkpt>
<trkpt lat="32.5294000" lon="35.3458900">
<ele>184.190002</ele>
<time>2023-05-10T16:58:23.757Z</time>
</trkpt>
<trkpt lat="32.5294900" lon="35.3458200">
<ele>182.580002</ele>
<time>2023-05-10T16:58:23.757Z</time>
</trkpt>
<trkpt lat="32.5295900" lon="35.3457000">
<ele>181.629990</ele>
<time>2023-05-10T16:58:23.757Z</time>
</trkpt>
<trkpt lat="32.5296600" lon="35.3455600">
<ele>180.349991</ele>
<time>2023-05-10T16:58:23.757Z</time>
</trkpt>
<trkpt lat="32.5297300" lon="35.3453100">
<ele>179.709991</ele>
<time>2023-05-10T16:58:23.757Z</time>
</trkpt>
<trkpt lat="32.5298000" lon="35.3451600">
<ele>177.539993</ele>
<time>2023-05-10T16:58:23.757Z</time>
</trkpt>
<trkpt lat="32.5298600" lon="35.3451300">
<ele>175.699997</ele>
<time>2023-05-10T16:58:23.757Z</time>
</trkpt>
<trkpt lat="32.5300200" lon="35.3452300">
<ele>173.000015</ele>
<time>2023-05-10T16:58:23.757Z</time>
</trkpt>
<trkpt lat="32.5301800" lon="35.3453000">
<ele>170.779999</ele>
<time>2023-05-10T16:58:23.757Z</time>
</trkpt>
<trkpt lat="32.5302600" lon="35.3453000">
<ele>169.449997</ele>
<time>2023-05-10T16:58:23.757Z</time>
</trkpt>
<trkpt lat="32.5303200" lon="35.3452800">
<ele>169.020004</ele>
<time>2023-05-10T16:58:23.758Z</time>
</trkpt>
<trkpt lat="32.5304000" lon="35.3451900">
<ele>168.169998</ele>
<time>2023-05-10T16:58:23.758Z</time>
</trkpt>
<trkpt lat="32.5305500" lon="35.3447600">
<ele>165.639999</ele>
<time>2023-05-10T16:58:23.758Z</time>
</trkpt>
<trkpt lat="32.5306000" lon="35.3447000">
<ele>164.990005</ele>
<time>2023-05-10T16:58:23.758Z</time>
</trkpt>
<trkpt lat="32.5306700" lon="35.3446800">
<ele>163.499985</ele>
<time>2023-05-10T16:58:23.758Z</time>
</trkpt>
<trkpt lat="32.5308500" lon="35.3446800">
<ele>160.009995</ele>
<time>2023-05-10T16:58:23.758Z</time>
</trkpt>
<trkpt lat="32.5310400" lon="35.3448000">
<ele>158.580002</ele>
<time>2023-05-10T16:58:23.758Z</time>
</trkpt>
<trkpt lat="32.5311500" lon="35.3448200">
<ele>157.460007</ele>
<time>2023-05-10T16:58:23.758Z</time>
</trkpt>
<trkpt lat="32.5311800" lon="35.3448100">
<ele>156.979996</ele>
<time>2023-05-10T16:58:23.758Z</time>
</trkpt>
<trkpt lat="32.5312000" lon="35.3447800">
<ele>156.479996</ele>
<time>2023-05-10T16:58:23.758Z</time>
</trkpt>
<trkpt lat="32.5312800" lon="35.3444900">
<ele>154.529999</ele>
<time>2023-05-10T16:58:23.758Z</time>
</trkpt>
<trkpt lat="32.5313600" lon="35.3444000">
<ele>152.899994</ele>
<time>2023-05-10T16:58:23.758Z</time>
</trkpt>
<trkpt lat="32.5313900" lon="35.3444100">
<ele>152.610001</ele>
<time>2023-05-10T16:58:23.758Z</time>
</trkpt>
<trkpt lat="32.5314100" lon="35.3444400">
<ele>152.650009</ele>
<time>2023-05-10T16:58:23.758Z</time>
</trkpt>
<trkpt lat="32.5315900" lon="35.3445800">
<ele>150.319992</ele>
<time>2023-05-10T16:58:23.758Z</time>
</trkpt>
<trkpt lat="32.5316600" lon="35.3446000">
<ele>149.630005</ele>
<time>2023-05-10T16:58:23.758Z</time>
</trkpt>
<trkpt lat="32.5317500" lon="35.3446700">
<ele>150.110001</ele>
<time>2023-05-10T16:58:23.758Z</time>
</trkpt>
<trkpt lat="32.5320500" lon="35.3448100">
<ele>153.479996</ele>
<time>2023-05-10T16:58:23.758Z</time>
</trkpt>
<trkpt lat="32.5325500" lon="35.3448100">
<ele>153.800003</ele>
<time>2023-05-10T16:58:23.758Z</time>
</trkpt>
<trkpt lat="32.5326200" lon="35.3448300">
<ele>153.039993</ele>
<time>2023-05-10T16:58:23.758Z</time>
</trkpt>
<trkpt lat="32.5328100" lon="35.3450000">
<ele>152.650009</ele>
<time>2023-05-10T16:58:23.758Z</time>
</trkpt>
<trkpt lat="32.5328100" lon="35.3450000">
<ele>152.650009</ele>
<time>2023-05-10T16:58:23.758Z</time>
</trkpt>
<trkpt lat="32.5328100" lon="35.3450000">
<ele>152.650009</ele>
<time>2023-05-10T16:58:23.758Z</time>
</trkpt>
<trkpt lat="32.5328100" lon="35.3450000">
<ele>152.650009</ele>
<time>2023-05-10T16:58:23.758Z</time>
</trkpt>
<trkpt lat="32.5329100" lon="35.3450900">
<ele>152.710007</ele>
<time>2023-05-10T16:58:23.758Z</time>
</trkpt>
<trkpt lat="32.5330500" lon="35.3451200">
<ele>151.360001</ele>
<time>2023-05-10T16:58:23.758Z</time>
</trkpt>
<trkpt lat="32.5332100" lon="35.3452300">
<ele>151.279999</ele>
<time>2023-05-10T16:58:23.759Z</time>
</trkpt>
<trkpt lat="32.5334400" lon="35.3454500">
<ele>150.319992</ele>
<time>2023-05-10T16:58:23.759Z</time>
</trkpt>
<trkpt lat="32.5336800" lon="35.3456700">
<ele>147.289993</ele>
<time>2023-05-10T16:58:23.759Z</time>
</trkpt>
<trkpt lat="32.5342200" lon="35.3461800">
<ele>144.740005</ele>
<time>2023-05-10T16:58:23.759Z</time>
</trkpt>
<trkpt lat="32.5343400" lon="35.3464500">
<ele>142.690002</ele>
<time>2023-05-10T16:58:23.759Z</time>
</trkpt>
<trkpt lat="32.5345100" lon="35.3466400">
<ele>138.970001</ele>
<time>2023-05-10T16:58:23.759Z</time>
</trkpt>
<trkpt lat="32.5344500" lon="35.3469500">
<ele>137.899994</ele>
<time>2023-05-10T16:58:23.759Z</time>
</trkpt>
<trkpt lat="32.5344600" lon="35.3470200">
<ele>137.529999</ele>
<time>2023-05-10T16:58:23.759Z</time>
</trkpt>
<trkpt lat="32.5344800" lon="35.3470500">
<ele>137.209991</ele>
<time>2023-05-10T16:58:23.759Z</time>
</trkpt>
<trkpt lat="32.5345300" lon="35.3470500">
<ele>136.619995</ele>
<time>2023-05-10T16:58:23.759Z</time>
</trkpt>
<trkpt lat="32.5345900" lon="35.3469700">
<ele>135.910004</ele>
<time>2023-05-10T16:58:23.759Z</time>
</trkpt>
<trkpt lat="32.5347000" lon="35.3466400">
<ele>135.419998</ele>
<time>2023-05-10T16:58:23.759Z</time>
</trkpt>
<trkpt lat="32.5348800" lon="35.3463700">
<ele>131.479996</ele>
<time>2023-05-10T16:58:23.759Z</time>
</trkpt>
<trkpt lat="32.5349500" lon="35.3461300">
<ele>127.790001</ele>
<time>2023-05-10T16:58:23.759Z</time>
</trkpt>
<trkpt lat="32.5350100" lon="35.3460700">
<ele>125.900002</ele>
<time>2023-05-10T16:58:23.759Z</time>
</trkpt>
<trkpt lat="32.5351700" lon="35.3460200">
<ele>124.360001</ele>
<time>2023-05-10T16:58:23.759Z</time>
</trkpt>
<trkpt lat="32.5352300" lon="35.3459800">
<ele>123.909996</ele>
<time>2023-05-10T16:58:23.759Z</time>
</trkpt>
<trkpt lat="32.5353400" lon="35.3458300">
<ele>124.239998</ele>
<time>2023-05-10T16:58:23.759Z</time>
</trkpt>
<trkpt lat="32.5353900" lon="35.3457800">
<ele>124.750008</ele>
<time>2023-05-10T16:58:23.759Z</time>
</trkpt>
<trkpt lat="32.5354600" lon="35.3457500">
<ele>125.350006</ele>
<time>2023-05-10T16:58:23.759Z</time>
</trkpt>
<trkpt lat="32.5355300" lon="35.3457300">
<ele>125.960007</ele>
<time>2023-05-10T16:58:23.759Z</time>
</trkpt>
<trkpt lat="32.5356600" lon="35.3457500">
<ele>126.919998</ele>
<time>2023-05-10T16:58:23.759Z</time>
</trkpt>
<trkpt lat="32.5357500" lon="35.3458100">
<ele>127.290001</ele>
<time>2023-05-10T16:58:23.759Z</time>
</trkpt>
<trkpt lat="32.5358300" lon="35.3459000">
<ele>127.720001</ele>
<time>2023-05-10T16:58:23.759Z</time>
</trkpt>
<trkpt lat="32.5359800" lon="35.3461500">
<ele>125.849998</ele>
<time>2023-05-10T16:58:23.759Z</time>
</trkpt>
<trkpt lat="32.5360900" lon="35.3462300">
<ele>124.330002</ele>
<time>2023-05-10T16:58:23.759Z</time>
</trkpt>
<trkpt lat="32.5361700" lon="35.3462500">
<ele>122.620003</ele>
<time>2023-05-10T16:58:23.760Z</time>
</trkpt>
<trkpt lat="32.5362600" lon="35.3462400">
<ele>120.640007</ele>
<time>2023-05-10T16:58:23.760Z</time>
</trkpt>
<trkpt lat="32.5363700" lon="35.3462000">
<ele>118.489998</ele>
<time>2023-05-10T16:58:23.760Z</time>
</trkpt>
<trkpt lat="32.5365600" lon="35.3461000">
<ele>114.690002</ele>
<time>2023-05-10T16:58:23.760Z</time>
</trkpt>
<trkpt lat="32.5366300" lon="35.3461000">
<ele>112.919998</ele>
<time>2023-05-10T16:58:23.760Z</time>
</trkpt>
<trkpt lat="32.5367400" lon="35.3461300">
<ele>111.080002</ele>
<time>2023-05-10T16:58:23.760Z</time>
</trkpt>
<trkpt lat="32.5368800" lon="35.3462100">
<ele>109.720001</ele>
<time>2023-05-10T16:58:23.760Z</time>
</trkpt>
<trkpt lat="32.5369600" lon="35.3462100">
<ele>109.430000</ele>
<time>2023-05-10T16:58:23.760Z</time>
</trkpt>
<trkpt lat="32.5371400" lon="35.3461200">
<ele>110.389999</ele>
<time>2023-05-10T16:58:23.760Z</time>
</trkpt>
<trkpt lat="32.5372100" lon="35.3461100">
<ele>110.919998</ele>
<time>2023-05-10T16:58:23.760Z</time>
</trkpt>
<trkpt lat="32.5374400" lon="35.3460000">
<ele>116.189995</ele>
<time>2023-05-10T16:58:23.760Z</time>
</trkpt>
<trkpt lat="32.5376300" lon="35.3459800">
<ele>117.910004</ele>
<time>2023-05-10T16:58:23.760Z</time>
</trkpt>
<trkpt lat="32.5376600" lon="35.3459900">
<ele>117.940002</ele>
<time>2023-05-10T16:58:23.760Z</time>
</trkpt>
<trkpt lat="32.5377800" lon="35.3460900">
<ele>117.229996</ele>
<time>2023-05-10T16:58:23.760Z</time>
</trkpt>
<trkpt lat="32.5378900" lon="35.3460900">
<ele>117.540001</ele>
<time>2023-05-10T16:58:23.760Z</time>
</trkpt>
<trkpt lat="32.5381100" lon="35.3461400">
<ele>116.690002</ele>
<time>2023-05-10T16:58:23.760Z</time>
</trkpt>
<trkpt lat="32.5382700" lon="35.3462200">
<ele>113.780006</ele>
<time>2023-05-10T16:58:23.760Z</time>
</trkpt>
<trkpt lat="32.5386000" lon="35.3463800">
<ele>108.170006</ele>
<time>2023-05-10T16:58:23.760Z</time>
</trkpt>
<trkpt lat="32.5387400" lon="35.3464200">
<ele>107.070007</ele>
<time>2023-05-10T16:58:23.760Z</time>
</trkpt>
<trkpt lat="32.5389500" lon="35.3464900">
<ele>104.800003</ele>
<time>2023-05-10T16:58:23.760Z</time>
</trkpt>
<trkpt lat="32.5392200" lon="35.3465300">
<ele>99.579994</ele>
<time>2023-05-10T16:58:23.760Z</time>
</trkpt>
<trkpt lat="32.5394300" lon="35.3466200">
<ele>96.779999</ele>
<time>2023-05-10T16:58:23.760Z</time>
</trkpt>
<trkpt lat="32.5395700" lon="35.3466400">
<ele>99.910004</ele>
<time>2023-05-10T16:58:23.760Z</time>
</trkpt>
<trkpt lat="32.5397400" lon="35.3466200">
<ele>104.619995</ele>
<time>2023-05-10T16:58:23.760Z</time>
</trkpt>
<trkpt lat="32.5398900" lon="35.3466500">
<ele>107.029999</ele>
<time>2023-05-10T16:58:23.760Z</time>
</trkpt>
<trkpt lat="32.5399600" lon="35.3467000">
<ele>108.140007</ele>
<time>2023-05-10T16:58:23.760Z</time>
</trkpt>
<trkpt lat="32.5400900" lon="35.3468700">
<ele>109.150002</ele>
<time>2023-05-10T16:58:23.760Z</time>
</trkpt>
<trkpt lat="32.5400900" lon="35.3468700">
<ele>109.150002</ele>
<time>2023-05-10T16:58:23.761Z</time>
</trkpt>
<trkpt lat="32.5403800" lon="35.3472600">
<ele>105.969994</ele>
<time>2023-05-10T16:58:23.761Z</time>
</trkpt>
<trkpt lat="32.5405600" lon="35.3475400">
<ele>100.949997</ele>
<time>2023-05-10T16:58:23.761Z</time>
</trkpt>
<trkpt lat="32.5407400" lon="35.3477700">
<ele>99.010002</ele>
<time>2023-05-10T16:58:23.761Z</time>
</trkpt>
<trkpt lat="32.5409200" lon="35.3479700">
<ele>97.660004</ele>
<time>2023-05-10T16:58:23.761Z</time>
</trkpt>
<trkpt lat="32.5409800" lon="35.3480600">
<ele>97.430000</ele>
<time>2023-05-10T16:58:23.761Z</time>
</trkpt>
<trkpt lat="32.5413500" lon="35.3489400">
<ele>96.659996</ele>
<time>2023-05-10T16:58:23.761Z</time>
</trkpt>
<trkpt lat="32.5414100" lon="35.3490200">
<ele>95.709999</ele>
<time>2023-05-10T16:58:23.761Z</time>
</trkpt>
<trkpt lat="32.5416000" lon="35.3491700">
<ele>91.919998</ele>
<time>2023-05-10T16:58:23.761Z</time>
</trkpt>
<trkpt lat="32.5418000" lon="35.3494700">
<ele>86.190002</ele>
<time>2023-05-10T16:58:23.761Z</time>
</trkpt>
<trkpt lat="32.5419600" lon="35.3495700">
<ele>83.639999</ele>
<time>2023-05-10T16:58:23.761Z</time>
</trkpt>
<trkpt lat="32.5420000" lon="35.3496100">
<ele>83.250000</ele>
<time>2023-05-10T16:58:23.761Z</time>
</trkpt>
<trkpt lat="32.5420300" lon="35.3497100">
<ele>82.410004</ele>
<time>2023-05-10T16:58:23.761Z</time>
</trkpt>
<trkpt lat="32.5420400" lon="35.3497900">
<ele>82.339996</ele>
<time>2023-05-10T16:58:23.761Z</time>
</trkpt>
<trkpt lat="32.5420200" lon="35.3499200">
<ele>82.400002</ele>
<time>2023-05-10T16:58:23.761Z</time>
</trkpt>
<trkpt lat="32.5419900" lon="35.3499900">
<ele>82.649994</ele>
<time>2023-05-10T16:58:23.761Z</time>
</trkpt>
<trkpt lat="32.5418000" lon="35.3502700">
<ele>80.500000</ele>
<time>2023-05-10T16:58:23.761Z</time>
</trkpt>
<trkpt lat="32.5417100" lon="35.3503600">
<ele>78.829994</ele>
<time>2023-05-10T16:58:23.761Z</time>
</trkpt>
<trkpt lat="32.5415300" lon="35.3505000">
<ele>76.909996</ele>
<time>2023-05-10T16:58:23.761Z</time>
</trkpt>
<trkpt lat="32.5414900" lon="35.3505600">
<ele>76.389999</ele>
<time>2023-05-10T16:58:23.761Z</time>
</trkpt>
<trkpt lat="32.5414600" lon="35.3506700">
<ele>77.180000</ele>
<time>2023-05-10T16:58:23.761Z</time>
</trkpt>
<trkpt lat="32.5414700" lon="35.3507200">
<ele>77.550003</ele>
<time>2023-05-10T16:58:23.761Z</time>
</trkpt>
<trkpt lat="32.5415300" lon="35.3508000">
<ele>77.809998</ele>
<time>2023-05-10T16:58:23.761Z</time>
</trkpt>
<trkpt lat="32.5419000" lon="35.3508800">
<ele>78.930000</ele>
<time>2023-05-10T16:58:23.761Z</time>
</trkpt>
<trkpt lat="32.5423600" lon="35.3508600">
<ele>80.550003</ele>
<time>2023-05-10T16:58:23.761Z</time>
</trkpt>
<trkpt lat="32.5425500" lon="35.3508700">
<ele>79.899994</ele>
<time>2023-05-10T16:58:23.761Z</time>
</trkpt>
<trkpt lat="32.5426500" lon="35.3509000">
<ele>79.400002</ele>
<time>2023-05-10T16:58:23.761Z</time>
</trkpt>
<trkpt lat="32.5429000" lon="35.3510200">
<ele>79.340004</ele>
<time>2023-05-10T16:58:23.762Z</time>
</trkpt>
<trkpt lat="32.5431700" lon="35.3511700">
<ele>82.329994</ele>
<time>2023-05-10T16:58:23.762Z</time>
</trkpt>
<trkpt lat="32.5432400" lon="35.3512100">
<ele>84.080002</ele>
<time>2023-05-10T16:58:23.762Z</time>
</trkpt>
<trkpt lat="32.5432900" lon="35.3512100">
<ele>84.990005</ele>
<time>2023-05-10T16:58:23.762Z</time>
</trkpt>
<trkpt lat="32.5434200" lon="35.3510200">
<ele>84.360001</ele>
<time>2023-05-10T16:58:23.762Z</time>
</trkpt>
<trkpt lat="32.5435100" lon="35.3508300">
<ele>82.500000</ele>
<time>2023-05-10T16:58:23.762Z</time>
</trkpt>
<trkpt lat="32.5435300" lon="35.3507800">
<ele>82.120003</ele>
<time>2023-05-10T16:58:23.762Z</time>
</trkpt>
<trkpt lat="32.5439900" lon="35.3496900">
<ele>74.540001</ele>
<time>2023-05-10T16:58:23.762Z</time>
</trkpt>
<trkpt lat="32.5439900" lon="35.3496900">
<ele>74.540001</ele>
<time>2023-05-10T16:58:23.762Z</time>
</trkpt>
<trkpt lat="32.5439900" lon="35.3496900">
<ele>74.540001</ele>
<time>2023-05-10T16:58:23.762Z</time>
</trkpt>
<trkpt lat="32.5439900" lon="35.3496900">
<ele>74.540001</ele>
<time>2023-05-10T16:58:23.762Z</time>
</trkpt>
<trkpt lat="32.5442200" lon="35.3491700">
<ele>72.419998</ele>
<time>2023-05-10T16:58:23.762Z</time>
</trkpt>
<trkpt lat="32.5444400" lon="35.3486500">
<ele>71.230003</ele>
<time>2023-05-10T16:58:23.762Z</time>
</trkpt>
<trkpt lat="32.5446700" lon="35.3481200">
<ele>67.459999</ele>
<time>2023-05-10T16:58:23.762Z</time>
</trkpt>
<trkpt lat="32.5448900" lon="35.3476000">
<ele>68.209999</ele>
<time>2023-05-10T16:58:23.762Z</time>
</trkpt>
<trkpt lat="32.5451100" lon="35.3470400">
<ele>71.049995</ele>
<time>2023-05-10T16:58:23.762Z</time>
</trkpt>
<trkpt lat="32.5453300" lon="35.3464800">
<ele>72.919998</ele>
<time>2023-05-10T16:58:23.762Z</time>
</trkpt>
<trkpt lat="32.5455500" lon="35.3459200">
<ele>74.300003</ele>
<time>2023-05-10T16:58:23.762Z</time>
</trkpt>
<trkpt lat="32.5456800" lon="35.3454600">
<ele>73.549995</ele>
<time>2023-05-10T16:58:23.762Z</time>
</trkpt>
<trkpt lat="32.5457400" lon="35.3450600">
<ele>72.019997</ele>
<time>2023-05-10T16:58:23.762Z</time>
</trkpt>
<trkpt lat="32.5457400" lon="35.3450600">
<ele>72.019997</ele>
<time>2023-05-10T16:58:23.762Z</time>
</trkpt>
<trkpt lat="32.5457400" lon="35.3450600">
<ele>72.019997</ele>
<time>2023-05-10T16:58:23.762Z</time>
</trkpt>
<trkpt lat="32.5457500" lon="35.3450300">
<ele>71.879997</ele>
<time>2023-05-10T16:58:23.762Z</time>
</trkpt>
<trkpt lat="32.5457600" lon="35.3446500">
<ele>69.739998</ele>
<time>2023-05-10T16:58:23.762Z</time>
</trkpt>
<trkpt lat="32.5457100" lon="35.3441600">
<ele>67.959999</ele>
<time>2023-05-10T16:58:23.762Z</time>
</trkpt>
<trkpt lat="32.5453500" lon="35.3427200">
<ele>59.170002</ele>
<time>2023-05-10T16:58:23.762Z</time>
</trkpt>
<trkpt lat="32.5453000" lon="35.3424000">
<ele>54.860001</ele>
<time>2023-05-10T16:58:23.762Z</time>
</trkpt>
<trkpt lat="32.5452500" lon="35.3419400">
<ele>48.070000</ele>
<time>2023-05-10T16:58:23.762Z</time>
</trkpt>
<trkpt lat="32.5452500" lon="35.3415300">
<ele>45.860001</ele>
<time>2023-05-10T16:58:23.763Z</time>
</trkpt>
<trkpt lat="32.5452600" lon="35.3412000">
<ele>45.259998</ele>
<time>2023-05-10T16:58:23.763Z</time>
</trkpt>
<trkpt lat="32.5453200" lon="35.3409300">
<ele>45.750000</ele>
<time>2023-05-10T16:58:23.763Z</time>
</trkpt>
<trkpt lat="32.5453900" lon="35.3406200">
<ele>47.630001</ele>
<time>2023-05-10T16:58:23.763Z</time>
</trkpt>
<trkpt lat="32.5455100" lon="35.3402100">
<ele>47.039997</ele>
<time>2023-05-10T16:58:23.763Z</time>
</trkpt>
<trkpt lat="32.5459900" lon="35.3393300">
<ele>50.570004</ele>
<time>2023-05-10T16:58:23.763Z</time>
</trkpt>
<trkpt lat="32.5467700" lon="35.3377600">
<ele>53.590000</ele>
<time>2023-05-10T16:58:23.763Z</time>
</trkpt>
<trkpt lat="32.5472100" lon="35.3368900">
<ele>55.459999</ele>
<time>2023-05-10T16:58:23.763Z</time>
</trkpt>
<trkpt lat="32.5481000" lon="35.3351200">
<ele>61.590000</ele>
<time>2023-05-10T16:58:23.763Z</time>
</trkpt>
<trkpt lat="32.5486200" lon="35.3343800">
<ele>64.019997</ele>
<time>2023-05-10T16:58:23.763Z</time>
</trkpt>
<trkpt lat="32.5489500" lon="35.3340600">
<ele>66.580002</ele>
<time>2023-05-10T16:58:23.763Z</time>
</trkpt>
<trkpt lat="32.5492800" lon="35.3337900">
<ele>69.580002</ele>
<time>2023-05-10T16:58:23.763Z</time>
</trkpt>
<trkpt lat="32.5495100" lon="35.3336200">
<ele>71.709999</ele>
<time>2023-05-10T16:58:23.763Z</time>
</trkpt>
<trkpt lat="32.5500600" lon="35.3333800">
<ele>70.930000</ele>
<time>2023-05-10T16:58:23.763Z</time>
</trkpt>
<trkpt lat="32.5505000" lon="35.3332400">
<ele>78.399994</ele>
<time>2023-05-10T16:58:23.763Z</time>
</trkpt>
<trkpt lat="32.5509700" lon="35.3332100">
<ele>76.639999</ele>
<time>2023-05-10T16:58:23.763Z</time>
</trkpt>
<trkpt lat="32.5515400" lon="35.3332400">
<ele>72.099998</ele>
<time>2023-05-10T16:58:23.763Z</time>
</trkpt>
<trkpt lat="32.5522800" lon="35.3332700">
<ele>67.619995</ele>
<time>2023-05-10T16:58:23.763Z</time>
</trkpt>
<trkpt lat="32.5522800" lon="35.3333800">
<ele>67.139999</ele>
<time>2023-05-10T16:58:23.763Z</time>
</trkpt>
<trkpt lat="32.5522900" lon="35.3335200">
<ele>66.919998</ele>
<time>2023-05-10T16:58:23.763Z</time>
</trkpt>
<trkpt lat="32.5522500" lon="35.3335300">
<ele>66.959999</ele>
<time>2023-05-10T16:58:23.763Z</time>
</trkpt>
<trkpt lat="32.5522100" lon="35.3335600">
<ele>67.209999</ele>
<time>2023-05-10T16:58:23.763Z</time>
</trkpt>
<trkpt lat="32.5521900" lon="35.3336000">
<ele>67.580002</ele>
<time>2023-05-10T16:58:23.763Z</time>
</trkpt>
<trkpt lat="32.5521700" lon="35.3336600">
<ele>67.970001</ele>
<time>2023-05-10T16:58:23.763Z</time>
</trkpt>
<trkpt lat="32.5521800" lon="35.3337100">
<ele>67.809998</ele>
<time>2023-05-10T16:58:23.763Z</time>
</trkpt>
<trkpt lat="32.5522100" lon="35.3337700">
<ele>67.250000</ele>
<time>2023-05-10T16:58:23.763Z</time>
</trkpt>
<trkpt lat="32.5520200" lon="35.3339000">
<ele>71.419998</ele>
<time>2023-05-10T16:58:23.763Z</time>
</trkpt>
<trkpt lat="32.5519800" lon="35.3338000">
<ele>71.949997</ele>
<time>2023-05-10T16:58:23.764Z</time>
</trkpt>
<trkpt lat="32.5519800" lon="35.3335900">
<ele>71.290001</ele>
<time>2023-05-10T16:58:23.764Z</time>
</trkpt>
<trkpt lat="32.5519800" lon="35.3335900">
<ele>71.290001</ele>
<time>2023-05-10T16:58:23.764Z</time>
</trkpt>
</trkseg>
</trk>
</gpx>
